           , 1.998,  2.145,  2.293,  2.441,  2.589,  2.736,  2.884,  3.032,  3.179,  3.327,  3.475,  3.623,  3.770,  3.918,  4.066,  4.213,  4.361,  4.509,  4.657,  4.804,  4.952,  5.100,  5.248,  5.395,  5.543,  5.691,  5.838,  5.986,  6.134,  6.282,  6.429,  6.577,  6.725,  6.872,  7.020,  7.168,  7.316,  7.463,  7.611,  7.759,  7.907,  8.054,  8.202,  8.350,  8.497,  8.645,  8.793,  8.941,  9.088,  9.236,  9.384,  9.531,  9.679,  9.827,  9.975, 10.122, 10.270, 10.418, 10.565, 10.713, 10.861, 11.009, 11.156, 11.304, 11.452, 11.600, 11.747, 11.895, 12.043, 12.190, 12.338, 12.486, 12.634, 12.781, 12.929, 13.077, 13.224, 13.372, 13.520, 13.668, 13.815, 13.963, 14.111, 14.259, 14.406, 14.554, 14.702, 14.849, 14.997, 15.145, 15.293, 15.440, 15.588, 15.736, 15.883, 16.031, 16.179, 16.327, 16.474, 16.622, 16.770, 16.917, 17.065, 17.213, 17.361, 17.508, 17.656, 17.804, 17.952, 18.099, 18.247, 18.395, 18.542, 18.690, 18.838, 18.986, 19.133, 19.281, 19.429, 19.576
1990/01/17 00:05,    4.5,    5.6,    7.1,    8.3,   10.2,    9.8,    9.7,    9.7,    9.7,   10.5,   11.8,   14.0,   16.9,   19.3,   22.7,   24.6,   28.0,   29.7,   31.1,   29.5,   30.5,   30.9,   32.6,   34.7,   37.1,   38.6,   41.6,   41.6,   44.0,   47.3,   45.9,   47.3,   48.8,   51.1,   53.1,   53.6,   53.6,   53.7,   54.3,   53.5,   53.6,  999.0,   53.9,   49.7,   50.7,   53.6,   50.3,   50.4,   50.3,   51.3,   53.8,   59.7,   59.7,   63.8,   69.0,   70.5,   67.2,   67.2,   68.2,   69.1,   67.5,   71.1,   67.9,   75.2,   72.1,   70.5,   62.7,   64.0,   69.1,  999.0,  999.0,   66.9,   71.5,   69.8,   65.7,   69.2,   66.0,   65.4,   58.5,   61.5,   58.6,   60.8,  999.0,  999.0,   52.1,   52.2,   54.7,   49.5,   54.9,   52.0,   52.7,   56.8,   61.3,   50.8,   48.5,   44.6,   48.0,   37.7,   41.3,   40.6,   41.6,   40.6,   36.9,   32.2,   28.2,   27.2,   21.5,   26.5,   33.0,   28.0,   28.1,   27.9,   21.8,   15.2,   13.9,    9.9,    7.0,    9.6,    7.2,    9.5
1990/01/17 00:15,    5.1,    6.1,    7.0,    9.7,   10.4,   10.6,    9.2,   10.4,   11.4,   12.2,   13.9,   16.8,   19.2,   21.0,   23.1,   25.0,   28.5,   32.0,   32.6,   31.6,   31.0,   31.3,   33.3,   33.2,   35.4,   37.6,   39.6,   41.8,   44.2,   47.9,   47.5,   47.6,   49.0,   52.4,   53.1,   54.7,   57.4,   56.0,   54.6,   55.4,   53.9,  999.0,   53.1,   56.2,   50.4,   53.4,   49.9,   51.0,   50.9,   52.7,   56.3,   63.3,   60.8,   66.6,   69.2,   71.1,   66.7,   66.6,   69.2,   70.6,   66.8,   74.2,   67.9,   72.0,   70.9,   66.5,   63.0,   64.7,   68.0,  999.0,   67.1,   63.5,   68.0,   68.5,   69.1,   67.2,   63.8,   65.7,   58.9,   59.7,   57.7,   57.4,   58.0,  999.0,   49.1,   50.0,   51.5,   51.0,   53.0,   51.0,   53.4,   58.1,  999.0,   49.9,   46.1,   42.6,   46.3,   37.9,   39.3,   40.7,   42.7,   42.0,   41.5,   37.0,   31.7,   29.9,   28.2,   30.1,   30.4,   33.3,   28.4,   28.0,   24.9,   16.3,   14.6,   11.2,    8.3,    8.1,    8.8,   11.2
1990/01/17 00:25,    5.4,    6.6,    6.3,    8.7,   10.2,   10.2,    9.5,   11.2,   12.0,   12.5,   13.8,   16.7,   19.4,   20.4,   23.1,   25.9,   28.1,   31.6,   32.4,   31.0,   30.9,   32.1,   32.8,   32.9,   34.5,   37.3,   39.2,   42.2,   45.1,   47.6,   47.8,   46.9,   49.8,   53.9,   53.9,   54.9,   57.0,   56.2,   54.8,   56.2,   53.4,   55.8,   53.3,   55.9,   51.6,   50.7,   49.8,   51.0,   52.3,   52.8,   56.3,   63.1,   61.4,   64.0,   67.1,   69.6,   65.1,   67.0,   68.3,   70.1,   69.0,   70.5,   69.5,   67.1,   70.6,   64.3,   61.9,   64.6,   69.4,  999.0,   67.4,   65.9,   65.7,   67.1,   69.9,   68.6,   64.8,   63.5,   61.8,   59.4,   59.0,   55.4,   55.9,   61.3,   54.1,   46.8,   50.9,   51.2,   51.8,   50.5,   52.3,   54.9,   49.3,   47.8,   42.0,   40.6,   42.6,   41.0,   38.5,   39.6,   41.6,   41.6,   41.7,   39.6,   34.5,   31.7,   27.9,   25.2,   33.7,   34.0,   29.9,   30.3,   24.6,  999.0,   17.7,  999.0,   12.4,  999.0,   13.0,   14.4
1990/01/17 00:35,    3.6,    4.3,    5.9,    8.0,    9.0,    9.1,    9.2,   10.5,   11.2,   13.0,   15.2,   17.5,   18.9,   20.5,   22.7,   24.6,   27.7,   30.7,   32.5,   32.7,   32.2,   32.5,   31.7,   32.9,   34.3,   35.8,   38.0,   41.2,   45.3,   47.8,   47.9,   45.9,   48.6,   52.3,   54.3,   56.6,   55.6,   55.9,   53.3,   54.4,   54.0,  999.0,   54.4,   53.2,   52.3,   52.2,   50.0,   51.0,   51.9,   53.8,   57.8,   63.3,   60.5,   65.2,   67.1,   66.7,   66.6,   66.9,   71.7,   72.6,   71.0,   67.3,   68.9,   67.1,   64.4,   66.6,   63.2,   65.7,   65.9,  999.0,  999.0,   65.8,   68.6,   69.1,   70.1,   68.5,   63.4,   62.3,   63.5,   59.1,   57.1,   56.3,   53.8,   57.8,   54.1,   51.5,   49.8,   49.6,   52.4,   51.8,   54.5,   55.4,   50.0,   47.6,   44.2,   40.0,   43.2,   40.4,   37.2,   37.8,   40.8,   42.8,   39.6,   39.1,   37.8,   31.3,   29.3,   26.2,   29.9,   32.8,   27.4,   29.0,   28.0,   24.1,   19.2,   18.2,   15.9,   16.6,   16.1,   16.5
1990/01/17 00:45,    5.6,    6.6,    7.4,    9.0,    8.8,    8.7,    9.4,   10.8,   12.4,   13.4,   14.8,   17.1,   19.8,   20.8,   23.0,   26.2,   28.1,   30.7,   31.8,   31.9,   31.5,   33.2,   31.0,   33.1,   34.6,   36.0,   39.5,   42.5,   45.2,   47.8,   44.4,   45.9,   48.3,   51.4,   52.9,   56.2,   54.4,   55.7,   52.3,   52.2,   54.0,  999.0,  999.0,   50.9,   52.2,   51.7,   49.5,   51.2,   51.4,   54.2,   56.5,   61.5,   60.5,   63.1,   66.6,   65.3,   67.0,   65.6,   70.0,   69.7,   69.6,   68.8,   65.7,   66.3,   67.6,   62.7,   61.9,   61.8,   67.4,  999.0,   61.3,   67.0,   66.7,  999.0,   68.1,   64.2,   62.1,   61.1,   62.4,   60.5,   57.1,   55.8,   56.2,   53.6,   53.4,   50.2,   49.9,   50.9,   52.7,   51.5,   54.7,   58.6,   53.1,   49.8,   48.6,   41.9,   43.1,   44.2,  999.0,   39.4,   40.4,   41.7,   40.9,   41.6,   38.7,   34.6,   32.5,   29.1,   32.7,   33.3,   33.0,   32.1,   30.0,   27.3,   19.3,   20.0,   19.8,   17.5,   14.3,   14.0
1990/01/17 00:55,    4.6,    4.6,    5.6,    7.2,    7.4,    8.3,    8.6,    9.3,   11.3,   12.1,   14.3,   17.6,   18.5,   20.2,   22.7,   25.6,   27.3,   30.9,   31.3,   31.5,   31.6,   32.8,   31.8,   34.2,   35.4,   37.5,   39.7,   42.7,   45.9,   48.8,   44.9,   45.7,   47.8,   51.8,   51.9,   54.7,   53.7,   55.4,   56.4,   51.1,   53.5,   54.2,   50.4,   50.5,   51.9,   52.5,   49.6,   50.3,   51.3,   53.7,   55.7,   60.0,   62.5,   60.7,   65.0,   63.8,   66.3,   63.9,   66.9,   70.1,   66.4,   69.5,   64.4,   65.4,   69.0,   62.0,   61.9,   60.6,   64.7,   69.3,  999.0,   64.3,  999.0,  999.0,  999.0,  999.0,   63.0,   62.6,   61.2,   61.2,   55.1,   53.6,   53.3,   51.7,   51.9,   54.1,   48.3,   49.7,   53.2,   52.6,   53.9,   56.3,   55.2,   52.6,   51.7,   43.3,   45.1,   41.4,   43.3,   39.9,   41.9,   42.7,   43.4,   42.8,   40.6,   35.6,   32.7,   28.3,   32.7,   36.1,   31.1,   31.1,   25.5,   21.2,   19.9,   20.3,   19.8,   15.7,   13.7,   14.2
1990/01/17 01:05,    5.5,    7.5,    8.2,    9.2,    7.8,    8.7,    9.5,    9.3,   11.3,   12.2,   12.4,   13.3,   17.0,   18.6,   21.6,   24.3,   26.0,   28.8,   30.1,   31.9,   32.2,   33.0,   34.3,   34.5,   35.2,   37.9,   40.2,   42.9,   45.8,   49.3,   45.7,   45.1,   48.1,   52.0,   51.0,   54.4,   52.6,   55.8,   55.7,   51.2,   54.9,   53.4,   52.9,   51.1,   52.0,   52.4,   50.0,   50.6,   52.0,   54.8,   54.3,   59.8,   62.2,   62.3,   64.8,   65.1,   64.8,   66.5,   63.5,   66.9,   68.5,   69.3,   68.6,   61.6,   67.4,   63.6,   65.8,   62.1,   66.6,  999.0,   62.0,   62.2,   66.4,   64.7,  999.0,  999.0,   62.0,   60.3,   61.1,   59.9,   54.4,   54.7,   54.7,   52.8,   53.0,   53.3,   52.2,   48.9,   53.6,   56.1,   55.1,   54.8,   56.8,   52.7,   50.9,   42.4,   45.3,   41.7,   39.9,   40.4,   41.6,   42.2,   41.3,   42.7,   39.8,   35.1,   32.5,   28.2,   32.3,   35.1,   29.0,   26.9,   25.9,   22.4,   18.9,   18.9,   17.3,   14.8,   13.4,   12.9
1990/01/17 01:15,    3.9,    7.4,    9.2,    9.7,    9.8,   10.3,    9.1,    8.2,   10.5,   11.8,   14.0,   16.4,   18.1,   20.5,   22.6,   24.9,   26.0,   27.7,   29.4,   30.1,   31.7,   32.2,   34.1,   33.6,   34.2,   35.8,   38.5,   41.9,   44.8,   47.9,   44.6,   45.1,   46.6,   50.4,   49.6,   53.2,   52.1,   54.1,   54.1,   50.1,   53.5,   51.0,   52.4,   49.7,   52.0,   50.8,   49.8,   50.7,   51.7,   55.5,   56.5,   61.4,   59.9,   62.0,   64.1,   66.9,   66.7,   66.9,   64.9,   67.8,   69.4,   71.2,   68.6,   63.1,   69.7,   64.3,   61.3,   62.8,   67.3,   65.6,   63.1,   63.9,   70.2,   63.5,  999.0,  999.0,   63.4,   62.6,   62.8,   65.4,   55.8,   54.8,   53.9,   53.7,   53.7,   57.5,   51.0,   52.1,   57.5,   59.4,   55.8,   56.2,   55.6,   53.8,   55.5,   46.7,   46.8,   46.9,   36.5,   39.0,   42.4,   41.2,   43.2,   44.5,   44.3,   39.3,   35.1,   30.7,   34.6,   34.2,   31.1,   30.2,   25.2,   22.3,   20.2,   19.6,   16.9,   12.5,   11.7,   12.2
1990/01/17 01:25,    7.2,    9.4,   10.9,   12.2,   12.5,   10.9,   10.2,   11.0,   12.6,   13.6,   16.0,   16.5,   19.0,   21.1,   22.2,   23.7,   24.2,   27.3,   29.9,   31.4,   31.1,   32.4,   33.8,   34.3,   34.0,   36.5,   38.0,   40.6,   43.8,   47.1,   44.8,   44.9,   47.1,   50.3,   51.3,   52.5,   52.0,   53.0,   52.1,   50.6,   52.8,   51.7,   49.5,   49.2,   51.7,   49.2,   49.2,   50.8,   50.8,   54.1,   56.0,   61.4,   59.0,   63.3,   64.5,   68.5,   66.6,   66.1,   68.0,   68.8,   68.9,   73.3,   63.1,   62.7,   67.7,   68.1,   62.0,   64.7,   62.5,   68.1,   63.3,   62.8,   69.3,  999.0,  999.0,   65.5,   65.1,   65.5,   62.4,   65.6,   54.1,   55.8,   55.5,   57.0,   53.4,   57.8,   48.7,   54.8,   58.9,   60.5,   56.6,   54.5,   54.5,   53.9,   53.3,   49.5,   46.7,   45.3,   42.8,   39.6,   42.0,   42.3,   43.1,   43.4,   41.5,   37.9,   35.1,   29.8,   34.2,   37.8,   29.2,   29.8,   23.9,   19.2,   17.9,   16.0,   13.0,   10.7,   10.8,   11.4
1990/01/17 01:35,    5.8,    7.9,   10.5,   12.2,   13.3,   11.6,   11.6,   11.6,   13.1,   15.7,   16.8,   18.2,   20.4,   22.5,   23.9,   26.1,   28.0,   29.2,   30.4,   31.0,   31.6,   32.5,   33.8,   34.1,   34.6,   35.9,   38.7,   40.9,   44.0,   46.5,   44.1,   44.7,   47.6,   50.8,   49.8,   51.6,   51.7,   55.5,   51.4,   51.4,   51.1,   51.2,   48.8,   50.0,   50.5,   50.2,   47.8,   49.9,   49.7,   53.7,   53.6,   59.0,   58.2,   60.1,   62.5,   64.2,   65.2,   66.9,   65.6,   66.2,   65.9,   68.2,   63.8,   61.2,   64.7,   65.0,   63.9,   61.3,   61.9,   63.3,   67.9,   64.6,   68.1,   63.7,  999.0,  999.0,   61.7,   69.0,   62.5,   63.5,   63.3,   55.3,   55.4,   54.9,   55.4,   58.9,   49.1,   54.3,   59.8,   58.7,   54.2,   54.2,   56.5,   55.0,   52.1,   46.5,   45.2,   46.7,  999.0,   39.3,   42.0,   43.5,   41.9,   43.7,   43.0,   39.2,   36.2,   30.7,   34.7,   38.3,   30.3,   31.7,   26.5,   20.7,   18.2,   15.6,   12.2,   11.9,   12.7,   14.2
1990/01/17 01:45,    4.7,    7.4,   10.8,   12.1,   11.2,   11.5,   12.5,   14.4,   15.6,   15.4,   15.3,   17.5,   19.1,   21.8,   24.2,   24.4,   26.9,   28.7,   30.4,   30.7,   30.6,   32.6,   33.8,   34.1,   34.8,   37.0,   39.0,   41.0,   44.1,   45.9,   44.7,   44.5,   47.9,   50.9,   51.1,   53.6,   52.7,   56.9,   52.0,   48.2,   53.0,   51.7,   48.9,   50.9,   52.4,   49.9,   49.2,   50.4,   52.1,   56.5,   57.1,   61.1,   61.6,   63.7,   65.7,   66.8,   69.1,   67.2,   65.8,   70.4,   66.1,   72.6,   64.1,   63.9,   66.8,   69.6,   68.0,   59.9,   61.5,   64.3,   68.1,   64.4,  999.0,   67.1,  999.0,   67.1,  999.0,   67.3,   64.7,   64.8,   64.1,   57.4,   55.7,   56.4,   54.4,   57.9,   51.8,   55.5,   60.1,  999.0,   54.0,   57.4,   56.7,   57.5,   53.9,   48.6,   44.6,   46.7,  999.0,   39.8,   42.6,   45.4,   44.9,   45.5,   41.1,   38.2,   36.8,   30.4,   34.5,   38.2,   30.5,   32.2,   24.4,   20.4,   18.3,   15.9,   13.1,   11.6,   12.3,   11.4
1990/01/17 01:55,    4.6,    8.2,    9.3,    9.7,   11.2,   12.5,   13.8,   15.5,   15.9,   13.8,   13.7,   15.4,   18.1,   20.3,   22.7,   25.7,   27.8,   30.0,   29.8,   31.2,   30.9,   32.5,   33.0,   34.2,   34.3,   36.6,   37.8,   39.6,   42.4,   45.3,   45.3,   43.2,   47.2,   50.0,   50.4,   53.0,   53.2,   55.2,   51.4,   52.5,   53.3,   52.8,   50.1,   52.6,   53.7,   50.7,   49.7,   50.3,   52.7,   56.9,   58.7,   62.7,   63.6,   65.8,   66.5,   65.9,   68.3,   65.0,   68.6,   71.9,   67.7,   70.9,   64.0,   62.3,   67.3,   67.0,   66.5,   60.1,   61.1,   65.6,   65.1,   65.3,   67.6,   65.5,   72.0,   63.3,   66.6,   67.1,   63.3,   64.9,   63.3,   56.1,   56.3,   55.0,   55.9,   54.2,   53.3,   54.6,   61.7,   55.4,   55.8,   60.4,   59.8,   57.2,   53.3,   49.6,   44.7,   45.8,   43.6,   42.8,   43.9,   43.8,   47.2,   45.7,   39.8,   36.2,   36.7,   28.6,   33.1,   38.2,   30.5,   30.8,   23.8,   21.8,   19.5,   18.3,   13.4,   11.8,   13.2,   13.4
1990/01/17 02:05,    7.4,   10.3,   10.7,   12.4,   13.6,   14.9,   15.2,   15.4,   12.4,   12.7,   14.1,   16.4,   18.4,   20.7,   23.6,   26.7,   29.2,   31.0,   31.5,   30.9,   31.8,   33.5,   33.7,   35.2,   34.0,   36.2,   38.2,   40.4,   43.3,   46.1,   42.7,   44.0,   48.3,   49.2,   50.6,   52.6,   52.2,   53.7,   52.3,   51.1,   50.6,   52.7,   50.7,   50.6,   52.1,   51.9,   48.8,   50.5,   53.0,   57.2,   57.0,   61.4,   62.7,   65.6,   63.3,   66.4,   65.7,   65.2,   64.9,   68.7,   67.5,   67.7,   66.0,   63.7,   61.7,   66.1,   67.3,   61.2,   60.3,   65.0,   65.4,   65.4,  999.0,   64.9,   64.5,   68.8,  999.0,   64.3,   60.9,   61.6,   63.8,   55.9,   55.0,   54.1,   54.6,   56.2,   52.3,   55.1,   59.2,  999.0,   52.6,   59.7,   65.3,   59.0,   60.4,   45.1,   46.3,   43.0,   43.7,   44.3,   42.3,   43.2,   46.1,   47.5,   38.8,   35.9,   35.8,   27.6,   31.6,   36.0,   27.0,   28.6,   22.4,   19.9,   19.7,   15.7,   10.4,   10.2,    9.5,    8.9
1990/01/17 02:15,    6.3,    8.2,    9.8,   11.3,   13.9,   14.9,   14.3,   15.1,   11.4,   11.7,   12.6,   15.8,   18.2,   20.7,   23.7,   25.3,   27.1,   30.2,   29.9,   30.8,   30.6,   32.0,   33.2,   35.3,   33.1,   35.9,   37.6,   39.8,   43.1,   46.0,   40.7,   43.2,   47.8,   47.9,   50.0,   51.9,   50.9,   53.5,  999.0,   50.2,   49.2,   51.8,   50.8,   47.9,   49.7,   50.4,   48.7,   49.9,   52.4,   58.1,   56.5,   62.0,   61.8,   64.4,   64.9,   66.6,   62.5,   66.1,   62.2,   66.5,   67.5,   67.6,   65.1,   66.9,   61.2,   65.0,   63.7,   65.3,   60.6,   65.9,   68.7,   66.1,   64.5,   65.7,  999.0,   66.4,  999.0,   63.2,   64.4,   59.1,   62.5,   53.0,   52.9,   53.0,   54.9,   55.9,   50.4,   55.5,   61.0,  999.0,  999.0,   54.4,   61.3,   66.1,   57.4,  999.0,   46.0,   45.6,   43.3,   46.6,   43.5,   46.4,   50.7,   48.7,   39.6,   40.4,   39.8,   32.0,   35.1,   38.4,   32.6,   30.8,   25.2,   22.6,   20.3,   15.8,   12.6,    9.3,   11.7,   11.6
1990/01/17 02:25,    6.0,    8.5,    9.2,   11.5,   13.9,   14.9,   14.2,   14.8,   11.7,   11.5,   13.1,   14.9,   18.1,   20.1,   23.7,   26.2,   27.3,   30.4,   30.4,   31.4,   31.2,   32.8,   33.0,   33.7,   33.9,   37.3,   38.5,   40.2,   43.8,   44.5,   41.1,   43.0,   46.7,   47.8,   49.4,   52.5,   49.7,   53.6,   51.2,   50.1,   48.7,   51.0,   52.7,   46.5,   49.5,   51.5,   47.8,   49.7,   52.0,   55.4,   55.4,   60.8,   63.2,   64.2,   63.9,   66.5,   63.7,   61.5,   61.3,   67.1,   66.1,   70.1,   64.6,   68.0,   59.2,   63.2,   64.2,   65.5,   58.6,   65.0,   67.9,   67.8,   65.0,   69.2,   67.3,   65.1,   68.4,  999.0,   60.9,   58.4,   61.5,   59.8,   52.9,   53.8,   54.1,   56.3,   52.4,   53.8,   59.5,   60.4,  999.0,   53.2,   56.9,   63.1,   54.1,   50.5,   47.6,   46.0,   42.1,   45.3,   40.3,   45.7,   50.9,   44.1,   39.1,   38.6,   37.5,   31.3,   34.5,   37.9,   31.3,   28.6,   24.9,   22.7,   17.2,   15.5,   12.6,   11.2,    9.7,  999.0
1990/01/17 02:35,    6.7,    8.7,    9.1,   10.2,   14.2,   14.5,   14.0,   14.5,   11.0,   11.2,   12.8,   15.1,   17.9,   20.8,   23.8,   26.0,   27.7,   29.8,   29.7,   30.4,   31.0,   31.6,   32.8,   33.6,   34.4,   37.1,   39.2,   40.8,   44.1,   42.3,   40.4,   42.5,   46.8,   48.9,   48.2,   52.0,   50.5,   53.4,   50.5,   52.3,   49.6,   50.5,   50.9,   46.6,   49.1,   48.2,   50.7,   51.2,   52.4,   55.8,   56.1,   60.8,   63.5,   63.0,   64.2,   67.4,   60.0,   62.9,   61.4,   67.0,   64.0,   68.2,   69.0,   63.5,   62.6,   60.5,   62.9,   67.5,   57.6,   61.7,   66.9,   70.1,   64.5,   67.2,   64.9,   66.8,   71.7,   60.6,   62.8,   61.0,   59.9,   61.1,   55.6,   54.0,   53.5,   55.9,   54.7,   53.5,   58.6,  999.0,   60.1,   53.4,   56.8,   63.3,   56.1,   49.7,   49.0,   47.3,   41.8,   45.3,  999.0,   43.5,   48.2,   44.9,   38.8,   37.7,   38.7,   30.8,   36.1,   41.1,   31.4,   30.2,   27.3,   20.7,   17.4,   13.2,   12.2,   10.5,    9.5,   10.8
1990/01/17 02:45,    6.9,    8.5,    9.4,   11.7,   14.2,   15.4,   14.8,   12.9,    9.8,   11.0,   13.4,   14.7,   18.7,   21.5,   23.8,   26.6,   30.5,   30.6,   30.8,   31.5,   31.9,   33.0,   33.0,   33.4,   35.6,   37.9,   39.0,   41.2,   44.8,   41.2,   40.1,   43.0,   47.2,   50.3,   49.3,   51.0,   52.8,   51.7,   51.6,  999.0,   49.0,   52.1,   50.1,   46.9,   48.2,   48.6,   52.6,   54.2,   50.8,   57.0,   56.9,   59.7,   64.4,   64.6,   61.5,   67.6,   59.8,   62.4,   67.1,   64.6,   67.6,   68.8,   69.0,   64.8,   65.7,   60.6,   63.2,   68.0,   57.3,   62.7,   69.2,   69.1,   68.2,   71.4,   64.0,   66.3,   66.7,   65.3,   67.2,   62.6,   58.7,   59.7,   54.0,   52.9,   53.3,   57.8,   52.2,   54.3,   60.5,   54.6,   52.9,   50.0,   57.6,   60.6,   54.1,   52.9,   49.6,   44.6,   42.6,   45.5,  999.0,   43.7,   48.2,   46.2,   40.7,   38.1,   38.4,   31.3,   33.7,   35.6,   30.6,   29.9,   24.3,   23.8,   16.2,   13.8,   11.4,    8.5,    9.3,    9.8
1990/01/17 02:55,    7.4,    8.0,    8.5,   11.3,   13.7,   13.6,   12.9,   12.0,    9.4,   10.1,   12.3,   14.9,   18.6,   21.2,   24.1,   25.3,   28.7,   30.2,   29.7,   29.6,   31.9,   33.4,   31.6,   32.8,   34.5,   37.7,   39.8,   41.6,   44.0,   42.1,   39.5,   42.2,   46.4,   49.7,   49.6,   51.6,   50.4,   54.3,   50.7,   51.4,   51.4,   52.1,   49.7,   47.9,   49.6,   49.8,   53.1,   53.8,   52.1,   57.5,   57.7,   62.1,   64.3,   64.7,   64.5,   68.1,   60.1,   65.6,   67.0,   65.4,   69.2,   68.3,   70.5,   65.9,   63.5,   61.3,   62.4,   66.9,   60.0,   64.0,   70.5,  999.0,  999.0,  999.0,   65.9,   67.5,   71.5,   70.4,   68.8,   57.1,   62.4,   59.7,   52.2,   53.2,   55.0,   56.3,   54.5,   57.9,   60.5,  999.0,  999.0,   51.4,   58.4,   62.1,   55.7,   48.4,   46.8,   40.9,   42.1,   43.0,  999.0,   40.2,   45.2,   41.4,   37.7,   35.3,   35.1,   28.1,   30.7,   32.0,   34.0,   26.3,   21.7,   20.8,   19.5,   16.6,   11.0,    8.2,    6.7,    9.1
1990/01/17 03:05,    5.3,    6.1,    6.4,    6.9,   10.6,   11.6,   11.6,    8.8,    7.7,    8.8,   12.3,   14.5,   18.6,   21.5,   23.7,   25.3,   27.0,   29.6,   29.8,   29.7,   30.6,   33.6,   31.9,   32.4,   34.4,   37.2,   39.3,   41.8,   40.8,   41.3,   38.5,   42.4,   46.6,   49.1,   49.0,   52.3,   51.2,   55.0,   49.7,   51.2,   50.5,   49.8,   49.5,   48.0,   49.6,   49.7,   52.0,   56.0,   53.1,   57.0,   59.4,   64.1,   64.8,   63.1,   64.0,   66.9,   60.7,   66.0,   64.6,   66.8,   70.0,   65.9,   71.8,   63.6,   63.1,   63.0,   62.6,   63.1,   62.2,   63.3,   67.9,   67.3,   67.3,  999.0,  999.0,   65.9,   69.8,   70.7,   64.4,   59.6,   62.8,   59.7,   54.9,   54.1,   55.7,   56.7,   60.2,   60.2,   56.9,   57.0,   56.7,   54.3,   60.8,   60.1,   51.0,   51.1,   41.2,   40.4,   41.4,  999.0,  999.0,   37.8,   41.9,   40.8,   35.4,   34.0,   33.9,   23.8,   28.8,   29.7,   32.0,   24.2,   21.9,   21.7,   20.4,   17.1,   11.9,   10.8,    8.7,    9.6
1990/01/17 03:15,    5.3,    5.5,    6.1,    4.7,    5.6,    4.5,    4.1,    5.7,    8.2,   11.0,   14.6,   17.4,   19.2,   22.4,   23.7,   26.1,   28.2,   30.2,   29.7,   30.4,   31.1,   33.3,   32.4,   32.1,   34.5,   37.7,   39.1,   42.3,   40.9,   41.5,   39.1,   43.3,   46.9,   49.8,   49.5,   52.1,   51.0,   56.4,  999.0,   49.1,   52.0,   50.2,   49.6,   49.6,   50.2,   53.1,   51.2,   54.7,   53.7,   57.1,   60.4,   65.6,   62.4,   62.3,   63.8,   63.4,   65.5,   65.0,   64.0,   69.2,   69.6,   65.6,   67.3,   71.7,   63.8,   57.1,   61.8,   63.9,   63.1,   61.0,   63.4,  999.0,  999.0,   69.4,  999.0,   63.9,   67.6,   69.8,  999.0,   58.1,   61.9,   59.3,   54.8,   50.8,   53.1,   54.2,   59.1,   59.6,   54.0,   53.7,   55.1,   54.6,   59.7,   60.9,  999.0,   53.1,   43.3,   40.7,   41.9,  999.0,  999.0,   39.9,   45.0,  999.0,   37.8,   36.3,   36.3,  999.0,  999.0,  999.0,  999.0,  999.0,   27.3,  999.0,  999.0,  999.0,  999.0,  999.0,  999.0,  999.0
1990/01/17 03:25,    6.1,    7.0,    5.3,    3.3,    3.5,    3.2,    4.0,    5.2,   11.2,   13.8,   17.2,   18.3,   20.6,   22.2,   24.6,   25.1,   27.5,   30.5,   29.0,   30.0,   30.9,   32.3,   31.4,   32.0,   33.5,   36.0,   38.4,   41.0,   42.1,   39.9,   40.0,   43.3,   45.4,   49.3,   49.0,   51.8,   51.0,   54.3,   52.7,   49.4,   51.2,   48.6,   49.8,   50.0,   51.8,   52.5,   49.2,   54.5,   53.2,   56.6,   60.7,   64.7,   64.4,   62.9,   60.5,   63.7,   66.4,   63.2,   65.7,   68.3,   69.2,   62.6,   67.5,   70.2,   63.6,   62.2,   63.4,   60.8,   64.6,   60.0,   64.3,   66.1,   66.3,   70.1,  999.0,   59.7,   67.0,   64.6,   66.9,   64.0,   61.5,   62.0,   51.5,   51.8,   52.4,   56.3,   61.6,  999.0,  999.0,   51.8,   54.4,   55.8,   59.8,   60.9,   56.1,   51.4,   44.7,   40.9,   43.8,  999.0,  999.0,  999.0,   45.1,   48.6,   40.3,   38.8,   37.1,   37.9,   33.1,   35.9,   37.0,   33.6,   28.4,   27.8,   25.0,   24.6,  999.0,  999.0,   14.0,  999.0
1990/01/17 03:35,    6.0,    5.5,    3.5,    1.9,    1.9,    2.9,    4.3,    8.5,   11.7,   14.0,   17.2,   19.8,   21.1,   23.1,   24.3,   26.3,   28.4,   30.7,   29.6,   29.7,   31.6,   32.0,   31.4,   32.4,   34.1,   36.6,   38.6,   41.0,   42.3,   38.9,   42.0,   42.5,   47.4,   51.8,   49.7,   52.9,   52.8,   54.1,   53.9,   50.6,   50.9,   50.2,   50.6,   50.4,   53.9,   52.1,   48.5,   53.9,   54.9,   57.3,   60.6,   64.3,   63.4,   64.6,   58.4,   64.2,   63.8,   64.7,   70.6,   66.1,   71.1,   64.0,   69.6,   65.1,   66.9,   63.0,   64.6,   63.6,  999.0,   59.1,   63.0,   66.1,   69.2,  999.0,   63.2,   65.0,   67.7,   68.1,   67.3,   64.3,   61.8,   65.5,   54.0,   49.4,   52.2,   57.1,   62.6,   56.1,   54.5,   56.0,   54.0,   55.2,   57.2,   61.7,   55.6,   54.4,   47.0,   42.8,   43.2,   44.4,  999.0,   43.2,   46.1,   49.4,   41.6,   39.7,   37.8,   36.3,   34.4,   37.2,   37.4,   33.8,   28.9,   28.0,   24.5,   26.2,  999.0,  999.0,  999.0,  999.0
1990/01/17 03:45,    3.5,    2.1,    1.8,    2.0,    1.4,    3.2,    6.5,   10.9,   13.7,   15.1,   16.4,   19.3,   21.8,   22.8,   23.1,   26.3,   29.1,   31.9,   29.3,   30.5,   30.2,   32.6,   32.0,   31.4,   33.8,   34.6,   37.2,   39.0,   39.3,   39.1,   42.7,   42.5,   46.8,   49.9,   48.6,   50.7,   52.1,   54.8,   52.6,   50.2,   50.4,   48.0,   50.5,   50.2,   54.0,   53.1,   48.7,   53.4,   54.5,   58.5,   60.5,   63.9,   63.4,   65.7,   58.3,   63.3,   62.5,   65.5,   68.6,   64.7,   70.1,   67.4,   69.3,   66.0,   65.9,   59.7,   61.5,   60.2,   63.1,   59.2,   61.6,   67.8,  999.0,   68.2,   35.4,  999.0,   66.2,   67.6,  999.0,   63.5,   59.8,   62.5,   60.3,   47.9,   51.4,   57.3,   62.7,   53.8,   55.5,   54.2,   54.1,   57.4,   59.1,   63.7,   55.7,   51.7,   47.7,   40.4,   44.0,   45.9,   44.0,   43.9,   45.7,   48.8,   42.1,   39.6,   38.1,  999.0,   35.7,   36.3,   38.6,   29.5,   26.7,   29.6,   23.9,   24.0,   28.3,  999.0,  999.0,  999.0
1990/01/17 03:55,    2.6,    1.6,    1.8,    2.3,    2.5,    3.3,    7.4,   10.6,   12.5,   14.0,   16.5,   19.5,   22.9,   22.7,   23.9,   26.2,   28.5,   31.5,   29.1,   30.1,   30.8,   32.0,   32.1,   32.8,   34.7,   34.1,   35.3,   37.7,   38.0,   38.9,   42.2,   41.0,   46.0,   47.8,   48.4,   50.6,   51.5,   54.1,   51.7,   51.5,   49.1,   49.5,   49.6,   50.5,   52.3,   53.9,   50.0,   53.9,   55.7,   57.2,   59.9,   62.2,   64.8,   63.9,   58.3,   63.0,   61.9,   64.8,   66.2,   65.4,   70.0,  999.0,   65.2,   64.1,   65.1,   59.9,   62.8,   60.8,   64.3,   58.8,   61.5,   66.4,  999.0,  999.0,   68.6,   68.7,   66.4,   70.4,   64.4,   63.5,   60.9,   62.0,   58.1,   51.3,   52.1,   59.3,   59.9,   56.4,   58.0,   53.1,   53.9,   58.3,   60.7,   61.3,   58.8,   49.4,   46.1,   38.8,   44.1,   47.4,   46.9,   42.5,   46.1,   48.3,   41.4,   38.4,   37.0,  999.0,   33.9,   34.6,   34.7,   33.1,   25.1,   25.5,   23.9,   22.7,  999.0,  999.0,  999.0,   13.1
1990/01/17 04:05,    1.8,    2.0,    2.5,    1.6,    3.4,    6.2,    9.2,   12.0,   13.4,   14.3,   18.0,   20.4,   22.2,   22.8,   23.2,   25.6,   28.7,   30.8,   29.4,   30.5,   29.3,   31.5,   31.7,   32.5,   33.3,   33.2,   35.6,   36.6,   37.5,   38.4,   41.8,   39.2,   44.1,   46.6,   47.6,   49.2,   50.7,   52.5,   52.7,   51.2,   47.2,   50.0,   47.8,   50.6,   51.2,   52.3,   51.5,   53.0,   53.9,   56.1,   59.4,   64.4,   63.4,   60.9,   59.2,   63.9,   62.6,   65.0,   65.0,   65.7,   70.9,   64.3,   66.3,   66.5,   66.0,   63.0,   63.0,   60.3,   66.4,   58.1,   59.6,   65.3,  999.0,  999.0,  999.0,  999.0,   62.5,  999.0,   64.6,   64.2,   63.0,   63.6,   58.1,   50.9,   52.6,   58.8,   62.3,  999.0,  999.0,   52.6,   52.9,   58.9,   58.8,   60.6,  999.0,   50.8,   47.7,   39.5,   43.7,   45.1,   44.7,   41.7,   45.5,   46.1,   40.4,   37.0,   34.7,   36.0,   32.3,   32.4,   31.9,   31.1,   24.8,   24.1,   22.8,   21.1,  999.0,  999.0,   14.8,  999.0
1990/01/17 04:15,    2.3,    2.0,    2.6,    4.5,    5.1,    9.6,   10.6,   12.3,   13.0,   15.7,   19.1,   21.5,   22.6,   22.8,   22.9,   25.4,   28.6,   29.7,   29.5,   30.0,   30.9,   31.9,   32.0,   32.8,   33.3,   33.6,   34.9,   36.9,   36.7,   38.9,   39.9,   39.1,   43.5,   46.7,   47.2,   48.9,   51.1,   51.0,   52.0,   49.7,   49.4,   49.4,   46.9,   49.7,   50.8,   52.5,   52.4,   53.1,   53.7,   55.7,   59.9,   64.9,   64.5,   61.6,   61.6,   64.7,   63.7,   65.2,   65.1,   66.1,   71.6,   65.6,   69.8,   67.0,   63.0,   64.3,   71.3,   61.3,   65.6,   66.2,   63.8,   67.8,   69.0,  999.0,  999.0,  999.0,  999.0,  999.0,   64.8,   64.4,   66.0,   66.1,   61.0,   51.9,   54.6,   60.1,  999.0,  999.0,  999.0,   50.7,   54.1,   60.1,   59.3,   57.4,   57.5,   49.3,   48.8,   39.4,   43.9,   48.9,   45.3,   43.0,   48.2,   45.3,   42.3,   38.9,   38.1,   35.9,   35.5,   34.2,   35.4,   31.6,   27.5,   27.4,   24.7,   22.9,   20.1,   16.6,   14.9,   15.9
1990/01/17 04:25,    1.1,    0.6,    0.4,    1.1,    1.8,    6.1,    9.7,   12.4,   14.9,   17.0,   19.7,   21.7,   21.0,   21.3,   22.0,   24.8,   26.8,   29.1,   28.6,   30.1,   29.8,   32.1,   30.7,   32.3,   32.6,   33.1,   34.7,   36.2,   37.2,   39.1,   37.0,   38.9,   42.7,   45.9,   47.1,   49.3,   50.6,   51.0,   51.1,   50.3,   48.9,   47.2,   48.4,   47.9,   51.1,   51.6,   52.5,   52.6,   52.0,   54.6,   58.7,   62.4,   63.4,   60.0,   63.4,   65.9,   63.0,   64.9,   63.5,   65.2,   66.1,  999.0,   66.0,   71.0,   70.2,   62.2,   70.0,   60.9,   67.8,   62.8,   63.7,   68.1,   68.2,  999.0,   66.0,  999.0,  999.0,   71.0,   67.5,   64.3,   65.6,   65.5,   60.4,   53.6,   53.4,   60.2,   65.9,  999.0,   53.4,   50.2,   56.4,   62.4,   51.2,   56.8,   53.4,   49.1,   44.6,   40.6,   45.0,   46.5,   40.0,   44.1,   47.2,   42.2,   37.8,   35.8,   37.3,   32.0,   33.1,   32.0,   34.5,   32.5,   28.7,   23.8,   21.7,   18.7,   19.6,   16.5,   18.5,  999.0
1990/01/17 04:35,    3.7,    3.4,    2.6,    3.4,    3.1,    7.2,   10.7,   13.9,   16.3,   17.9,   20.1,   23.1,   22.7,   22.6,   23.7,   25.4,   27.4,   29.6,   30.2,   31.3,   31.1,   31.3,   31.9,   31.5,   32.6,   33.7,   35.0,   37.4,   36.9,   38.7,   35.9,   37.9,   43.0,   44.6,   48.1,   46.8,   50.9,   50.5,   50.4,   50.9,   50.9,   47.0,   48.2,   48.8,   49.5,   51.3,   50.3,   52.9,   53.0,   54.7,   57.6,   62.7,   64.4,   59.1,   64.9,   66.2,   62.4,   65.1,   61.7,   65.6,   65.6,   71.0,   66.6,   70.5,   70.2,   60.4,   65.0,   66.6,   68.0,   65.0,   62.9,   66.2,   67.4,   68.3,   73.8,  999.0,   67.8,   70.9,   70.3,   64.2,   65.3,   65.7,   62.3,   54.1,   54.3,   60.9,   66.0,  999.0,  999.0,   53.4,   58.1,   63.8,   57.1,   54.5,   53.1,   49.1,   42.1,   40.4,   46.5,   38.9,   41.3,   45.6,   43.4,   44.7,   37.1,   34.8,   38.0,   30.0,   32.3,   28.4,   30.2,   30.9,   21.0,   20.7,   21.2,   17.9,   17.4,   14.7,   14.8,   15.0
1990/01/17 04:45,    2.7,    3.6,    2.1,    2.8,    4.4,    7.9,   11.1,   14.2,   15.2,   17.8,   21.4,   23.6,   23.2,   23.1,   25.2,   26.0,   27.3,   28.4,   29.8,   30.2,   31.3,   31.8,   30.9,   31.6,   33.2,   32.3,   34.6,   36.5,   36.7,   38.4,   34.8,   37.9,   42.4,   44.6,   46.5,   46.6,   51.0,   52.3,   50.7,   49.6,   52.4,   47.5,   48.1,   51.4,   48.6,   53.1,   50.4,   53.3,   52.1,   55.4,   56.2,   60.0,   63.7,   57.8,   62.1,   66.6,   64.4,   63.2,   61.3,   65.2,   65.3,   68.5,   64.8,   67.3,   68.4,   65.9,   63.6,   69.0,   67.6,   66.3,   63.0,   66.4,   68.5,   65.6,   70.2,  999.0,   67.4,   66.5,   67.4,   67.5,   64.7,   64.5,   59.4,   53.3,   55.4,   64.1,  999.0,  999.0,  999.0,   54.8,   60.7,   56.1,   57.5,   56.6,   51.2,   49.0,   48.6,   38.6,   44.6,   46.7,   43.0,   43.9,   46.2,   46.2,   36.4,   33.4,   37.8,  999.0,   31.2,   29.3,   29.8,   30.5,   21.7,   20.2,   20.2,   18.0,   19.3,   16.2,   14.5,   14.9
1990/01/17 04:55,    3.1,    3.5,    2.7,    4.1,    7.3,   10.2,   13.5,   14.3,   17.8,   20.6,   22.4,   22.6,   22.4,   23.4,   23.8,   25.4,   27.5,   27.9,   28.2,   29.6,   29.6,   30.6,   31.5,   30.6,   32.4,   33.4,   34.4,   36.9,   36.7,   36.1,   35.7,   38.3,   42.3,   43.4,   45.7,   45.4,   48.2,   50.9,   51.6,   48.5,   51.9,   49.8,   47.1,   49.7,   48.9,   51.2,   50.0,   53.1,   52.2,   54.9,   56.5,   59.6,   63.3,   57.9,   62.7,   66.8,   66.7,   62.4,   61.8,   63.1,   67.0,   62.3,   65.3,   69.1,   67.4,   66.6,   66.5,   67.9,   67.7,   67.8,   62.8,   67.9,   66.1,   64.1,   69.8,  999.0,   66.7,   67.4,   66.9,   69.3,   62.1,   63.6,   57.3,   52.1,   58.1,   66.0,  999.0,  999.0,   52.1,   57.2,   61.7,   57.8,   56.6,   58.2,   47.6,   48.1,   42.6,   40.0,   45.6,   42.4,   43.7,   41.4,   45.2,   48.1,   35.8,   33.7,   37.0,  999.0,   28.3,   27.7,   29.3,   30.0,   22.3,   21.0,   18.9,   20.2,   17.8,   15.3,   15.9,   16.9
1990/01/17 05:05,    2.7,    3.8,    4.4,    6.9,    9.2,   13.5,   13.2,   15.1,   18.3,   21.0,   22.4,   22.7,   22.6,   24.3,   25.7,   26.9,   28.1,   27.6,   28.7,   28.8,   30.4,   30.9,   31.0,   30.8,   32.4,   32.8,   35.5,   37.8,   35.9,   34.9,   36.4,   38.1,   42.0,   43.6,   43.6,   46.4,   47.4,   51.4,   51.8,   48.8,   49.4,   51.6,  999.0,   46.5,   49.5,   48.4,   50.6,   52.2,   52.9,   54.5,   57.0,   59.4,   63.6,   58.2,   63.2,   67.0,   65.5,   61.5,   62.6,   63.5,   66.5,   67.4,   62.0,   67.5,   69.1,   62.9,   66.3,   66.2,   71.1,   66.0,   69.7,   62.7,   68.2,   65.9,   69.7,   72.7,   67.1,   66.7,   60.4,   64.1,   62.7,   64.6,   56.3,   52.0,   58.0,   65.8,  999.0,  999.0,   52.8,   58.1,   62.5,   59.4,   55.5,   59.0,   51.0,   48.3,   41.0,   41.8,   48.2,  999.0,   44.6,   45.3,   43.7,   46.9,   39.3,   35.6,   38.6,  999.0,   29.9,   28.7,   30.7,   31.3,   24.4,   19.2,   19.1,   18.4,   17.5,   16.5,   13.2,   14.8
1990/01/17 05:15,    2.6,    1.8,    3.2,    7.0,    9.5,   11.2,   13.0,   15.3,   16.3,   18.7,   21.7,   22.0,   22.0,   23.9,   24.8,   26.2,   27.5,   27.5,   29.7,   29.3,   30.3,   30.7,   30.7,   31.7,   33.6,   34.2,   36.6,   38.7,   35.2,   33.8,   36.4,   38.2,   41.3,   41.8,   43.7,   47.4,   45.8,   49.2,   50.2,   48.7,   49.8,  999.0,  999.0,   45.7,   48.9,   48.5,   50.8,   50.9,   54.3,   53.7,   56.6,   58.5,   63.4,   59.9,   62.5,   67.3,   63.3,   62.5,   62.9,   60.9,   64.2,   66.5,   63.9,   67.4,   66.8,   65.3,   65.0,   65.4,   69.7,   67.9,   67.9,   63.4,   70.9,   64.6,   67.1,   69.1,  999.0,   69.2,   64.4,  999.0,   61.1,   63.8,   64.3,   51.4,   56.7,   62.6,   55.7,  999.0,   54.2,   58.7,   61.7,   62.9,   57.7,   56.3,   52.8,   49.1,   42.4,   45.3,   50.1,  999.0,   44.3,   46.6,   42.3,   45.8,   38.5,   34.3,   37.1,  999.0,   29.2,   30.4,   28.6,   31.0,   25.5,   21.4,   22.6,   21.9,   17.9,   17.5,   16.1,   15.5
1990/01/17 05:25,    1.7,    1.3,    4.0,    6.9,   10.2,   11.5,   14.3,   15.8,   17.2,   20.2,   22.3,   21.3,   23.3,   24.4,   26.4,   26.9,   28.1,   26.5,   27.7,   29.6,   30.0,   30.8,   30.6,   32.4,   33.8,   34.6,   38.1,   36.3,   34.7,   34.1,   37.4,   39.6,   39.3,   41.3,   45.9,   47.1,   46.2,   48.6,   50.2,   47.5,   50.4,  999.0,  999.0,   45.2,   48.4,   47.7,   50.8,   50.4,   54.5,   53.5,   56.8,   60.5,   65.2,   57.5,   62.3,   69.2,   59.6,   63.4,   62.1,   64.9,   65.3,   64.3,   64.6,   66.8,   68.5,   64.5,   66.3,   66.6,   68.6,   66.4,   68.3,   64.5,   69.3,   70.9,   65.3,   70.6,   65.1,   66.5,  999.0,   71.6,   61.8,   64.0,   64.2,   54.7,   51.8,   58.5,   63.6,   58.8,   56.9,   57.3,   60.4,   59.6,   60.5,   53.7,   51.3,   46.5,   43.8,   45.1,  999.0,  999.0,   45.7,   46.0,   42.3,   45.2,   37.1,   33.9,   37.9,  999.0,   30.0,   32.1,   28.7,   29.7,   24.1,   22.5,   22.6,   21.3,   16.0,   18.0,   14.3,   16.1
1990/01/17 05:35,    2.0,    2.1,    3.5,    5.9,    8.9,   10.2,   13.9,   15.4,   17.1,   20.0,   21.8,   21.0,   22.6,   24.5,   26.8,  999.0,   28.2,   27.2,   26.8,   28.9,   30.5,   30.0,   30.6,   31.5,   33.2,   35.1,   38.0,   35.5,   34.4,   35.5,   38.7,   38.8,   40.9,   42.2,   46.0,   45.3,   46.3,   48.9,   49.5,   47.2,  999.0,  999.0,  999.0,  999.0,   46.8,   47.5,   49.6,   49.2,   52.3,   51.4,   56.1,   60.6,   60.4,   57.9,   62.3,   68.2,   61.2,   65.6,   62.9,   61.5,   65.6,   66.1,   67.5,   65.6,   66.5,   68.4,   68.1,   67.8,   68.9,   64.2,   69.8,   70.5,   68.4,   72.2,   64.5,   68.1,   72.6,   68.6,  999.0,   67.5,   61.0,   65.4,   63.5,   58.9,   56.6,   58.0,   62.1,   58.1,   59.0,   56.4,   59.0,   62.4,   60.9,   50.0,   52.3,   49.0,   43.8,   47.5,  999.0,   45.2,   45.7,   47.5,   42.6,   44.5,   38.6,   34.0,   36.6,  999.0,   33.2,   32.2,   32.1,   34.9,   32.0,   23.5,   23.3,   26.2,   15.2,   18.0,   18.4,  999.0
1990/01/17 05:45,    2.5,    2.9,    4.1,    5.6,    9.1,   11.4,   13.5,   15.5,   17.8,   20.9,   23.5,   21.9,   22.7,   24.1,   26.8,   26.1,   26.0,   26.3,   27.3,   28.3,   28.4,   28.6,   30.7,   32.6,   33.6,   36.6,   38.5,   34.5,   35.2,   37.4,   38.6,   38.4,   40.6,   42.4,   44.9,   47.0,   46.4,   47.9,   48.9,   47.5,  999.0,  999.0,  999.0,  999.0,   46.1,   48.2,   47.9,   47.8,   51.3,   50.8,   55.1,   60.8,   59.7,   57.9,   61.0,   67.1,   61.0,   65.5,   63.9,   63.0,   66.1,   66.1,   67.9,   65.9,   63.5,   66.7,   69.3,   65.0,   71.6,   66.1,   70.7,   68.1,   66.7,   74.7,  999.0,  999.0,   69.6,   68.8,  999.0,  999.0,   61.4,   65.5,   66.2,   57.3,   53.6,   58.8,   61.3,   53.6,   57.9,   53.8,   56.8,   62.7,   60.9,   49.4,   52.4,   46.0,   44.7,   45.9,  999.0,   42.6,   47.3,  999.0,   41.3,   44.1,   39.9,   34.5,   35.0,   35.2,   33.2,   32.8,   31.9,   35.2,  999.0,   21.9,   21.8,   23.0,   15.9,   13.2,   14.3,   14.5
1990/01/17 05:55,    3.6,    3.3,    5.5,    5.8,    8.6,   11.5,   13.9,   15.3,   18.0,   21.2,   23.5,   22.9,   23.7,   25.5,   26.4,   26.3,   26.6,   26.9,   27.7,   27.4,   28.5,   29.5,   32.3,   32.8,   34.2,   36.0,   37.3,   35.7,   36.2,   38.0,   39.1,   37.3,   40.5,   42.8,   44.6,   48.8,   47.9,   46.2,   48.0,   47.3,  999.0,  999.0,  999.0,   42.9,   46.5,   49.5,   46.6,   48.0,   51.3,   50.8,   55.7,   61.4,   57.8,   58.0,   60.9,   66.5,   62.5,   67.0,   65.5,   61.4,   64.2,   66.8,   68.0,   63.8,   65.9,   69.2,   68.1,   66.6,   67.7,  999.0,   70.0,   69.1,   69.3,   76.3,  999.0,  999.0,   68.2,   75.1,   66.3,   68.4,   64.5,   66.2,   62.9,   60.9,   58.0,   57.7,   60.0,   64.0,   59.6,   51.6,   58.1,   64.1,   60.8,   48.4,   51.7,   48.2,   43.8,   46.2,   40.7,   45.4,   48.5,   47.2,   40.2,   45.3,   37.7,   33.9,   34.4,   35.5,   31.3,   30.2,   31.1,   33.8,   22.9,   21.2,   17.7,   15.8,   20.2,   13.1,   13.7,   14.4
1990/01/17 06:05,    4.7,    4.7,    6.2,    6.7,    9.4,   11.5,   13.7,   15.2,   17.1,   20.3,   22.4,   22.6,   23.6,   25.0,   26.3,   27.2,   26.9,   26.6,   27.5,   28.1,   29.0,   30.1,   31.2,   32.1,   31.4,   33.9,   35.9,   35.1,   36.4,   38.3,   37.8,   36.3,   39.1,   40.7,   42.9,   46.9,   47.0,   45.3,   47.7,   46.2,  999.0,  999.0,   -0.2,  999.0,   45.7,   48.6,   46.7,   47.2,   51.0,   52.0,   55.1,   58.7,   59.5,   59.1,   59.9,   64.6,   62.2,   64.8,   62.3,   60.9,   64.2,   65.0,   69.4,   66.6,   66.5,   67.6,   69.2,   69.0,   67.1,   65.4,   67.4,   68.0,   66.3,   71.5,   76.0,  999.0,   72.2,   71.5,   67.0,   70.6,   65.3,   64.6,   65.2,   60.8,   55.1,   56.4,   60.6,  999.0,   54.6,   52.1,   57.6,   62.4,   57.7,   46.6,   49.1,   45.5,   42.3,   43.3,   40.9,   45.0,   47.8,   43.8,   39.7,   44.5,   36.6,   33.6,   34.1,   35.0,   30.8,   29.7,   29.1,   32.5,   22.5,   21.2,   20.9,   19.0,   18.3,   11.7,   12.2,   11.6
1990/01/17 06:15,    4.7,    5.3,    6.2,    6.8,    9.2,   13.0,   14.3,   16.4,   19.1,   22.9,   23.6,   23.6,   24.4,   26.7,   26.9,   26.3,   26.2,   27.5,   28.5,   29.9,   30.0,   31.2,   30.5,   31.1,   31.8,   34.7,   34.6,   34.7,   37.2,   37.8,   37.2,   36.9,   38.0,   40.9,   44.5,   45.4,   47.5,   44.4,   46.9,   46.2,  999.0,  999.0,    0.2,   44.3,   46.6,   48.3,   47.2,   47.4,   51.4,   52.5,   54.6,   56.8,   58.8,   58.8,   59.6,   63.8,   59.8,   63.0,   63.1,   58.3,   61.0,   65.4,   67.7,   65.3,   63.3,   64.5,   67.3,   72.4,   65.8,   63.8,   67.3,   66.8,   65.8,   73.7,   75.0,  999.0,  999.0,   67.0,   62.9,   68.7,   63.5,   61.6,   65.7,   61.7,   59.9,   53.6,   58.3,   59.4,   53.6,   51.2,   56.4,   59.7,   55.4,   50.8,   46.1,   43.9,   44.0,   40.0,   42.7,   43.4,   46.6,   43.4,   40.4,   45.5,   35.5,   35.0,   35.2,   33.2,   31.3,   30.5,   29.1,   31.9,   25.2,   23.2,   22.9,   23.6,   19.1,   16.1,   11.4,   11.0
1990/01/17 06:25,    4.3,    5.1,    7.4,    9.5,  999.0,   11.6,   14.0,   15.8,   20.0,   22.9,   22.4,   23.0,   24.6,   26.4,   26.5,   26.5,   26.9,   27.7,   30.2,   28.2,   28.5,   31.3,   30.6,   29.9,   31.4,   34.4,   34.6,   35.1,   37.9,   38.1,   35.2,   37.4,   37.9,   41.8,   43.8,   44.8,   47.2,   44.9,   46.9,   46.3,   48.7,  999.0,  999.0,   43.8,   47.0,   47.5,   48.2,   47.9,   50.7,   53.4,   56.6,   55.7,   56.6,   60.1,   60.9,   65.9,   56.9,   62.0,   64.9,   58.6,   61.7,   63.7,   68.6,   64.0,   64.6,   64.2,   68.7,   70.5,   65.9,   65.1,   67.8,   65.8,   65.7,   72.2,   77.5,  999.0,  999.0,  999.0,   70.1,   65.5,  999.0,   62.0,   65.0,   57.7,   56.4,   51.6,   55.1,   60.6,  999.0,   49.1,   56.5,   58.2,   53.7,   55.7,   46.6,   45.6,   42.6,   42.9,   40.3,   41.4,   45.7,   42.2,   39.3,   44.3,   35.5,   32.8,   33.5,   32.0,   32.4,   29.9,   28.0,   30.8,   24.4,   23.6,   24.5,   19.3,   17.2,   15.8,  999.0,   10.7
1990/01/17 06:35,    5.0,    6.2,    7.9,   10.5,   11.4,   12.9,   14.3,   16.7,   20.5,   22.2,   23.2,   22.8,   24.6,   27.0,   26.1,   27.1,   27.2,   26.9,   27.4,   28.3,   29.2,   29.3,   30.7,   30.6,   31.7,   33.8,   34.1,   35.0,   37.0,   37.7,   36.3,   36.4,   38.3,   42.3,   43.2,   44.0,   45.1,   44.9,   44.4,   46.6,   50.2,  999.0,   44.6,   43.9,   47.4,   46.2,   48.5,   47.7,   50.4,   51.9,   56.3,   53.8,   57.3,   55.7,   60.2,   62.0,   63.5,   61.1,   62.3,   60.2,   62.7,   62.0,   66.5,   65.8,   65.5,   63.5,   67.5,   69.9,   67.1,   64.7,   68.3,   68.1,   66.8,   72.0,   76.0,  999.0,  999.0,   71.7,   72.7,   66.9,   66.7,   60.5,   65.2,   57.6,   57.0,   49.6,   54.9,   60.7,   45.7,   50.8,   58.1,   58.6,   54.3,   53.7,   46.6,   44.1,   44.5,   46.3,   39.4,   42.3,   46.3,   41.7,   40.5,   43.3,   40.2,   33.9,   33.9,   33.7,   33.9,   32.3,   29.7,   30.9,   26.0,   24.1,   24.3,   21.1,   14.7,   13.8,   12.5,  999.0
1990/01/17 06:45,    6.0,    7.5,    9.4,   11.2,   12.3,   13.7,   14.0,   17.4,   20.1,   23.5,   22.3,   22.8,   25.4,   27.3,   25.6,   26.3,   27.2,   26.4,   27.6,   28.9,   29.5,   31.7,   30.5,   31.2,   32.2,   34.4,   35.7,   35.8,   38.2,   37.4,   34.9,   36.0,   38.8,   42.3,   43.1,   42.9,   46.5,   44.4,   46.5,  999.0,  999.0,  999.0,   44.1,   45.2,   47.5,   45.1,   48.8,   49.3,   52.0,   51.4,   55.8,   52.9,   57.2,   55.1,   59.3,   62.0,   65.6,   59.8,   63.1,   55.1,   61.9,   62.0,   64.9,   69.1,   64.5,   63.2,   67.8,   64.7,   67.4,   65.6,   65.0,   69.3,   64.0,   71.4,   70.2,  999.0,  999.0,   64.5,   69.7,   69.4,   63.4,   63.9,   64.5,   60.1,   55.1,   54.9,   53.5,   58.8,   56.7,   52.5,   59.5,   54.0,   55.8,   51.9,   47.9,   43.3,   45.8,   48.2,   39.0,   43.1,   46.3,   43.4,   37.8,   42.3,   44.7,   33.6,   33.6,   35.5,   34.3,   30.0,   29.3,   31.2,   27.9,   24.4,   25.3,   27.0,   14.2,   13.3,   12.5,  999.0
1990/01/17 06:55,    7.1,    8.9,    9.4,   10.4,   11.4,   13.2,   15.2,   17.4,   20.5,   23.5,   22.9,   22.9,   25.3,   25.8,   25.6,   26.8,   26.1,   26.3,   27.8,   28.8,   29.8,   30.2,   31.0,   31.1,   32.1,   34.5,   35.6,   36.7,   36.8,   37.4,   34.2,   36.1,   39.8,   42.0,   43.0,   42.1,   46.4,   43.4,   46.1,  999.0,  999.0,   44.9,   47.0,   44.0,   47.0,   45.7,   48.2,   49.9,   52.3,   50.4,   55.1,   55.1,   55.6,   56.7,   59.9,   62.0,   60.6,   59.5,   60.0,   58.5,   60.3,   62.3,   63.2,   67.4,   66.7,   61.3,   67.3,   65.3,   63.6,   66.2,   65.3,   66.0,   65.4,   69.7,  999.0,   66.7,  999.0,   64.8,   68.2,   69.2,   60.2,   62.3,   60.9,   60.9,   55.2,   53.2,   52.7,   56.6,   55.2,   54.6,   60.0,   50.6,   52.6,   50.2,   48.9,   40.4,   45.1,   45.1,   39.4,   44.0,   47.0,   46.5,   37.5,   42.0,   46.0,   35.2,   34.5,   35.6,   33.4,   32.3,   30.2,   31.5,   26.5,   24.0,   24.4,   25.1,   12.0,   11.3,   11.9,  999.0
1990/01/17 07:05,    8.1,    8.6,    8.9,   10.0,   11.8,   13.1,   14.5,   16.8,   19.8,   23.1,   21.8,   22.8,   25.0,   26.2,   25.6,   25.8,   25.3,   25.9,   28.0,   28.6,  999.0,   28.9,   30.8,   30.7,   32.9,   34.1,   34.8,   37.6,   36.7,   36.7,   33.9,   35.7,   39.8,   42.5,   41.8,   43.7,   45.6,   43.4,   45.3,  999.0,  999.0,   47.2,  999.0,   44.3,   46.8,   45.8,   49.6,   50.1,   51.7,   50.7,   54.5,   56.1,   53.0,   57.6,   57.5,   62.9,   61.9,   59.0,   59.6,   59.1,   56.9,   61.2,   63.5,   66.2,   67.2,   61.4,   66.7,   64.5,   59.9,   67.8,  999.0,   65.9,   63.6,   69.4,  999.0,  999.0,  999.0,   66.8,   66.2,   64.2,   63.2,   63.6,   59.5,   57.7,   57.3,   53.5,   52.8,   56.6,   55.1,   52.6,   59.4,  999.0,   49.6,   48.9,   50.4,   39.8,   43.9,  999.0,   38.1,   43.7,   44.4,   41.5,   36.0,   40.6,   40.1,   36.5,   34.5,  999.0,   33.4,   32.4,  999.0,   32.4,   26.7,   24.9,   25.7,   21.7,   11.9,    9.6,   10.9,  999.0
1990/01/17 07:15,    9.4,    8.8,    9.4,   10.9,   12.2,   13.4,   15.3,   17.2,   20.8,   23.0,   20.6,   21.7,   24.1,   24.6,  999.0,   25.5,   26.1,   26.2,   26.7,   28.1,  999.0,   28.4,   30.7,   30.5,   31.8,   34.1,   35.3,   37.5,   37.3,   36.3,   36.3,   35.2,   39.1,   41.1,   42.1,   43.5,   45.4,   43.3,   44.2,  999.0,  999.0,   47.5,   44.1,   46.0,   45.7,   44.8,   49.9,   49.3,   51.2,   51.9,   55.3,   55.4,   51.9,   56.8,   57.0,   60.8,   61.6,   60.4,   56.8,   56.0,   57.7,   61.8,   62.3,   67.5,   65.1,   63.5,   64.7,   65.1,   60.9,   68.5,   64.7,   66.8,   63.8,   70.7,  999.0,  999.0,   67.3,   71.4,   70.5,   63.8,   63.6,   60.9,   66.0,   52.6,   55.1,   59.5,   50.8,   57.1,   57.4,   55.9,   57.7,   51.7,   51.9,   47.7,   46.3,   38.5,   42.2,   45.7,   38.2,   43.0,   44.4,  999.0,   35.7,   40.2,   43.8,   36.0,   35.0,  999.0,   32.8,   34.9,   29.4,   31.2,   28.8,   25.0,   25.2,   22.4,   13.8,   10.7,   12.1,   14.5
1990/01/17 07:25,    8.8,    8.1,    9.7,   10.9,   11.5,   13.0,   15.0,   18.0,   21.5,   21.3,   21.2,   22.4,   24.7,   26.1,   27.0,   25.1,   25.3,   25.3,   27.7,   26.4,   29.0,   28.9,   30.1,   31.6,   30.2,   33.7,   34.7,   36.4,   36.2,   35.0,   34.6,   35.0,   37.1,   39.4,   40.8,   43.6,   45.1,   45.7,   45.1,   46.7,  999.0,   46.8,   44.7,   45.0,   46.2,   45.5,   47.1,   48.6,   50.4,   51.0,   56.6,   54.7,   49.9,   55.2,   56.8,   61.3,   60.1,   61.7,   59.5,   56.0,   57.6,   61.7,   62.3,   63.4,   65.1,   63.5,   62.4,   66.2,   61.4,   67.5,   62.5,   66.3,   63.1,   68.4,   72.9,  999.0,   61.3,   69.1,   69.6,   60.2,   62.4,   58.6,   64.1,  999.0,   52.9,   55.5,   50.3,   56.7,   56.9,   53.9,   57.0,   53.1,  999.0,   46.5,   43.8,   43.2,   40.4,   46.4,   38.6,   43.7,   46.8,   42.8,   38.1,   43.1,   39.6,   37.4,   35.0,  999.0,   36.0,   37.1,   31.1,   34.4,   34.5,   28.1,  999.0,   24.8,   17.8,   12.7,   13.2,  999.0
1990/01/17 07:35,    9.4,   10.8,   12.4,   13.4,   12.9,   15.0,   17.3,   20.9,  999.0,   21.8,   21.1,   24.1,   25.8,   24.7,   25.2,   26.2,   26.3,   25.9,   27.9,   27.3,   30.0,   28.7,   30.9,   31.2,   30.6,   33.4,   35.1,   37.4,   37.6,   35.5,   35.6,   35.5,   37.4,   39.2,   40.6,   43.1,   45.1,   45.9,   45.1,   48.3,  999.0,  999.0,   47.2,   45.3,   47.3,   46.8,   50.9,   49.7,   52.9,   52.5,   53.4,   54.4,   51.3,   56.3,   58.3,   62.4,   60.8,   62.6,   57.2,   59.0,   57.5,   60.8,   63.2,   64.8,   65.5,   63.4,   62.3,   65.0,   63.2,  999.0,  999.0,   62.0,   65.0,   72.7,  999.0,  999.0,   65.3,   70.6,   69.6,   59.5,   63.4,   57.0,   62.5,   58.9,   49.6,   54.2,   50.8,   56.3,   53.3,   53.2,   54.5,   56.1,   46.1,   49.0,  999.0,   40.2,   43.0,   44.9,  999.0,   42.6,   46.7,   46.6,   38.8,   42.1,   44.4,   38.8,   39.8,   38.2,  999.0,   34.3,   32.2,   32.5,   33.6,   30.2,   29.2,   23.1,   16.8,   12.4,    9.9,  999.0
1990/01/17 07:45,   11.1,   12.1,   11.9,   11.2,   12.8,   14.9,   15.7,   19.8,   21.9,   20.6,   20.3,   23.0,   24.6,   25.5,   24.0,   25.5,   25.4,   26.7,   26.2,   24.9,   26.5,   28.7,   29.8,   30.3,   30.6,   31.9,   34.4,   36.6,   36.0,   36.2,   35.3,   35.3,   36.8,   38.3,   39.9,   40.5,   42.5,   45.1,   46.8,   47.7,   47.1,   46.3,   48.6,   45.8,   47.5,   46.8,   50.2,   49.6,   51.8,   53.0,   52.7,   52.5,   53.4,   53.9,   57.4,   61.6,   60.4,   60.5,   59.7,   59.3,   53.4,   57.5,   61.2,   63.6,   67.9,   59.4,   62.6,   63.1,   60.7,  999.0,  999.0,   66.2,   62.2,   70.5,  999.0,  999.0,   69.1,   67.8,   69.1,   58.6,   64.8,   56.9,   62.2,   59.2,   50.2,   55.5,   51.3,   55.1,   56.6,   53.1,  999.0,   50.7,  999.0,   48.3,   44.1,  999.0,   41.9,   44.9,   45.7,   41.2,   46.4,   45.4,   37.7,   40.3,   42.4,   35.9,   39.1,   35.7,   37.7,   32.2,   32.7,   31.7,   31.9,   28.8,   27.6,   21.6,   13.1,    9.7,    9.2,  999.0
1990/01/17 07:55,   11.7,   11.6,   11.5,   12.5,   13.6,   14.7,   15.9,   19.4,   20.5,  999.0,   20.1,   22.9,   24.2,  999.0,   24.1,   24.3,   24.9,   26.2,   26.4,   26.1,   27.2,   27.6,   29.5,   30.2,   31.2,   32.2,   34.0,   36.4,   36.6,   36.4,   34.5,   35.2,   36.2,   38.1,   38.6,   39.2,   41.8,   44.7,   44.8,   47.0,  999.0,   44.8,   44.7,   45.7,   47.4,   47.2,   47.5,   47.5,   50.3,   53.4,   52.0,   52.3,   55.3,   54.0,   58.5,   59.3,   58.4,   60.9,   58.0,   55.3,   52.8,   57.4,   59.1,   62.1,   66.7,   60.3,   59.4,   61.7,   61.4,   63.7,   60.5,   63.0,   61.6,   64.8,   71.7,   64.8,   69.1,   68.5,   65.4,   61.9,   64.3,  999.0,   58.8,   62.0,   50.4,   52.5,   53.9,   58.3,   49.7,   52.9,  999.0,   51.3,  999.0,   48.5,   42.0,   43.0,   40.3,   41.4,   43.5,   41.8,   44.5,   44.8,   38.0,   42.1,   44.1,   36.7,   39.6,   36.2,   39.6,   34.5,  999.0,   31.3,   35.0,   29.2,   29.4,   24.6,   15.6,   11.9,    8.6,  999.0
1990/01/17 08:05,   10.7,   11.3,   11.3,   12.4,   13.9,   14.3,   15.4,   18.8,   20.9,   20.6,   19.6,   21.8,   24.3,  999.0,  999.0,   23.7,   24.6,   24.7,   25.4,   24.8,   27.2,   27.6,   29.8,   30.1,   30.3,   32.9,   33.0,   34.8,   37.0,   36.5,   37.8,   35.0,   36.7,   38.1,   38.7,   38.4,   41.6,   42.8,   44.0,   46.7,  999.0,   46.1,   44.3,   45.6,   48.0,   48.7,   47.6,   49.0,   50.2,   52.9,   53.3,   52.1,   56.9,   54.3,   59.1,   55.7,   59.6,   58.3,   59.1,   56.2,   52.2,   57.3,   60.1,   61.5,   66.0,  999.0,   62.8,   59.1,   60.9,   63.4,  999.0,   63.3,   66.3,   65.5,  999.0,   68.3,   70.0,   64.7,   66.3,   66.8,   64.7,   64.4,   59.6,   62.2,   47.8,   53.3,   54.8,  999.0,   50.3,  999.0,   52.0,  999.0,   44.6,   44.0,   44.4,  999.0,   37.9,   41.7,   42.8,   41.9,   44.0,   44.8,   38.1,   41.9,   42.4,   38.3,   41.5,   36.6,   38.8,   36.2,  999.0,   30.3,   33.0,   33.2,   29.4,   27.2,   15.3,   14.3,   10.1,  999.0
1990/01/17 08:15,   11.2,   10.6,   11.7,   13.4,   13.0,   13.5,   15.1,   16.7,   18.7,   18.9,   18.7,   21.5,   22.5,   21.5,   23.9,   22.9,   23.6,   24.1,   25.5,   24.0,   27.5,   28.1,   29.3,   30.8,   32.3,   32.3,   32.3,   35.1,   37.0,   35.9,   37.9,   34.8,   35.3,   35.9,   37.5,   37.6,   41.2,   43.2,   43.4,   45.3,  999.0,   43.2,   44.1,   46.2,   48.5,   49.2,   48.0,   47.8,   51.1,   51.7,   54.2,   51.9,   54.5,   56.9,   61.9,   58.4,   59.5,   60.4,   55.1,   58.1,   52.5,   55.6,   61.5,   60.7,   65.2,   63.5,   62.3,   61.5,   60.9,   61.9,   62.0,   63.4,   65.0,   69.0,   62.2,   69.1,   65.9,   68.0,   67.8,   65.8,   67.3,  999.0,   60.5,   64.3,   51.3,   56.4,  999.0,   49.8,   51.7,   50.1,   51.0,   49.6,   47.9,   46.3,   45.8,   47.4,   37.9,   41.1,   41.4,   43.0,   44.1,   44.0,   36.6,   41.2,   41.8,   38.0,   38.7,   35.8,   38.8,  999.0,  999.0,   27.4,   31.4,   33.4,   28.1,   26.2,   16.3,   13.9,   10.2,   10.5
1990/01/17 08:25,    8.8,    9.7,   11.1,   11.7,   12.3,   12.6,   12.9,   16.3,   18.3,   17.6,   19.6,   20.7,   21.1,   20.8,   23.2,   22.4,   23.9,   24.6,  999.0,   24.3,   25.8,  999.0,   28.9,   30.2,   31.5,   31.8,   32.1,   34.4,   35.0,   34.8,   37.4,   34.7,   35.2,   35.4,   37.0,   37.8,   38.8,   41.0,   42.5,   44.5,   45.6,   47.6,   42.1,   45.6,   48.3,   48.4,   45.4,   48.3,   51.2,   50.2,   51.7,   52.6,   54.9,   58.1,   60.6,   56.7,   56.8,   60.0,   57.3,   54.5,   58.2,   54.8,   57.2,   61.1,   62.2,   66.1,  999.0,  999.0,   63.7,   58.3,   59.9,   65.6,   63.8,   66.5,   62.6,   67.0,  999.0,   66.2,   63.3,   66.3,   66.6,   67.1,   59.3,   52.5,   58.9,   63.6,  999.0,  999.0,   51.3,   52.0,   47.1,   47.4,   51.7,  999.0,   39.4,   36.9,   36.3,   42.0,   43.7,   44.0,   45.6,   44.2,   38.5,   43.1,   45.6,   37.9,   38.7,   34.5,   37.1,   38.9,  999.0,   29.5,   31.8,   32.6,   30.1,   29.8,   23.1,   16.8,   13.9,   11.3
1990/01/17 08:35,    8.0,   10.3,   11.4,   11.9,   11.5,   12.7,   14.4,   16.4,   16.1,   16.9,   18.6,   19.3,   21.8,   21.0,   22.5,   22.9,   23.4,   24.3,   25.1,   26.0,   26.7,   27.1,   29.5,   30.2,   32.4,   30.8,   31.2,   33.1,   34.6,   33.9,   36.5,   33.7,   34.6,   34.2,   36.0,   37.7,   38.8,   41.9,   41.6,   44.5,   44.8,   44.9,   43.8,   45.1,   47.1,   49.4,   43.1,   48.2,   47.0,   51.5,   50.7,   50.8,   54.8,   56.2,   58.7,   56.0,   57.5,   58.4,   63.7,   52.6,   55.0,   54.8,   57.0,   62.1,   61.8,   64.2,   67.8,   62.4,   67.0,   58.8,   61.4,   67.4,   61.7,   66.9,   66.4,   69.2,  999.0,   70.0,   69.2,   67.0,   69.5,   59.1,   57.2,   53.5,   57.8,   62.9,  999.0,   51.0,   54.6,   61.9,   48.2,   47.2,   51.8,   37.9,   39.8,   38.9,   37.9,   42.7,   44.3,   44.3,   46.0,   45.1,   36.8,   41.2,   40.3,   35.7,   36.5,   33.3,   34.3,   36.2,  999.0,   28.0,   29.9,   31.5,   27.7,   27.4,   24.8,   15.8,   13.3,   12.5
1990/01/17 08:45,    9.3,   11.4,   11.6,   10.9,   11.2,   12.5,   13.7,   16.8,   18.0,   17.3,   17.6,   20.2,   21.9,   20.7,   22.1,   22.8,   23.2,   24.0,   24.0,   24.7,   26.8,   27.6,   29.8,   30.7,   32.6,   31.1,   32.2,   33.3,   35.2,   34.4,   35.3,   33.4,   33.8,   34.4,   37.1,   38.1,   39.2,   42.1,   43.3,   45.2,   45.3,   43.6,   43.1,   45.8,   48.2,   51.8,   44.6,   48.1,   49.8,   52.9,   49.9,   51.2,   55.2,   58.1,   60.7,   57.8,   56.6,   61.6,   66.3,   53.8,   56.6,   56.1,   60.7,   61.8,   63.0,   66.6,   68.4,   63.4,   64.6,   61.8,   64.6,   64.1,   65.5,   66.3,   70.2,   73.6,   67.0,   74.9,   67.3,   65.4,   68.9,   58.1,   57.5,   53.6,   55.1,   61.1,   48.5,   49.5,   51.4,   56.4,  999.0,   47.2,  999.0,  999.0,   37.6,   38.1,   39.0,   40.8,   42.2,   44.3,   45.0,   42.9,   36.7,   37.9,   38.1,   37.9,   33.7,   32.9,   32.7,   34.0,   30.9,   25.4,   29.2,   30.9,   26.0,   24.9,   20.3,   14.6,   11.4,   11.2
1990/01/17 08:55,    9.6,   11.6,   12.6,   12.0,   12.8,   14.4,   15.8,   17.6,   17.2,   18.5,   19.2,   22.0,   22.3,   20.6,   21.5,  999.0,   23.6,   24.8,   26.4,   27.6,   27.4,   28.9,   30.7,   32.8,   31.7,   33.4,   31.7,   33.6,   35.2,   34.4,   34.6,   31.3,   34.2,   34.3,   36.9,   37.6,   40.5,   42.5,   44.6,   48.4,  999.0,   44.8,   43.5,   45.7,   48.0,   48.0,   45.0,   48.8,   49.8,   50.4,   50.3,   52.1,   54.1,   58.5,   62.6,   58.4,   58.3,   60.2,   64.4,   52.4,   58.3,   56.6,   61.0,   64.7,   64.0,   65.7,   65.7,   70.2,   68.5,   63.8,   64.2,   64.8,   67.2,   67.7,   70.7,  999.0,   68.4,   73.5,   74.3,   63.4,   66.8,   65.3,   55.0,   57.2,   52.4,   52.0,   53.6,   51.7,   54.6,  999.0,   48.5,   49.4,  999.0,   44.8,   37.0,   38.6,   39.3,  999.0,   42.0,   47.2,   45.2,   41.9,   38.1,   38.9,   38.2,  999.0,   31.5,   34.3,   32.8,   36.2,   35.3,  999.0,   29.4,   32.4,   24.3,   28.3,   21.3,   17.4,   12.3,   10.8
1990/01/17 09:05,   10.2,   12.5,   12.4,   13.0,   14.5,   14.8,   16.1,   17.4,   16.9,   18.0,   19.5,   22.4,   21.7,   19.3,   21.3,  999.0,   23.7,   24.4,   26.2,   27.2,   28.3,   29.5,   29.4,   31.5,   32.3,   32.5,   32.7,   33.9,   34.3,   34.8,   35.0,   32.1,   32.9,   33.6,   36.7,   38.1,   40.6,   42.7,   44.4,   45.8,  999.0,  999.0,   44.4,   46.1,   48.5,   46.5,   44.7,   49.8,   53.3,   50.5,   48.2,   52.7,   55.0,   58.5,   62.3,   61.9,   56.8,   59.7,   57.1,   55.4,   58.6,   57.1,   60.4,   63.8,  999.0,   64.2,  999.0,  999.0,  999.0,  999.0,  999.0,  999.0,  999.0,  999.0,  999.0,  999.0,  999.0,  999.0,  999.0,  999.0,  999.0,  999.0,  999.0,  999.0,  999.0,  999.0,  999.0,   54.0,   56.6,  999.0,  999.0,  999.0,   41.3,   42.1,   42.1,   38.9,   39.4,   43.1,   43.1,   46.1,   45.0,   43.4,   39.9,   36.3,   36.5,  999.0,   32.3,   34.4,   31.5,   34.8,   37.3,   27.8,   30.9,   31.6,   29.8,   26.9,   22.0,   12.4,   13.1,  999.0
1990/01/17 09:15,    9.2,   11.4,   12.8,   14.1,   14.2,   14.7,   16.8,   16.8,   17.7,   17.9,   19.8,   23.3,   21.4,   18.8,   20.2,   21.4,   21.8,   23.9,   25.3,   26.7,   27.3,   29.2,   29.2,   30.6,   32.8,   29.8,   32.9,   33.0,   35.0,   33.3,   34.5,  999.0,   32.4,   33.5,   35.6,   36.0,   38.8,   41.2,   42.6,   46.0,  999.0,   47.8,   44.8,   44.8,   47.1,   46.8,   43.8,   48.6,   52.6,   48.6,   47.9,   50.8,   55.0,   57.5,   58.0,   60.7,   59.8,   63.1,   59.4,   55.4,   57.6,   59.9,   58.9,   63.6,   56.0,   65.1,   67.5,   65.5,   63.1,   64.9,   64.6,   64.9,   63.8,   63.9,   73.2,  999.0,  999.0,   68.7,  999.0,   64.7,   66.4,   57.6,  999.0,   50.8,   54.0,   53.1,   53.8,   56.2,   53.6,  999.0,   52.0,   44.3,   40.4,   39.2,   38.6,   38.6,   39.4,  999.0,   40.9,   45.5,   44.8,   45.7,  999.0,   36.3,   34.2,   35.9,   28.4,   31.3,   31.8,   32.8,  999.0,  999.0,  999.0,  999.0,   28.1,   23.1,  999.0,   18.0,   10.0,    8.6
1990/01/17 09:25,   10.3,   11.3,   11.7,   12.7,   12.9,   13.8,   15.3,   15.6,   16.6,   18.3,   19.1,   22.2,   21.9,   18.5,   19.2,   20.5,   23.0,   24.3,   25.4,   27.9,   28.2,   28.2,   29.0,   30.0,   31.2,   30.7,   32.9,   32.9,   33.3,   34.0,   33.9,   34.0,   32.5,   32.3,   34.0,   35.0,   37.2,   39.3,   41.2,   43.8,  999.0,  999.0,   46.5,   43.1,   45.5,   46.3,   44.5,   47.7,   50.6,   50.7,   46.1,   50.1,   53.7,   58.5,   57.2,   58.7,   59.6,   59.6,   56.6,   56.5,   59.5,   56.3,   58.0,   62.0,   62.0,   63.4,   67.6,   65.6,   64.5,   65.0,   67.0,   62.6,   63.6,   65.3,   68.7,  999.0,   67.1,   69.0,   72.8,   62.1,   64.4,   68.0,  999.0,  999.0,   51.2,  999.0,   55.3,   51.0,   53.7,  999.0,   52.3,   47.0,   42.4,   39.7,   39.6,   38.7,   39.9,  999.0,   39.5,   45.5,   43.7,   40.8,  999.0,   35.0,   35.9,   33.7,   27.5,   30.1,   31.4,   32.4,   31.2,   27.1,   33.7,   34.1,   27.9,   22.4,   18.6,   13.7,   10.4,    6.9
1990/01/17 09:35,    9.5,    9.0,   11.1,   13.3,   12.2,   13.5,   15.8,   16.0,   16.9,   17.8,   19.1,   23.0,   22.7,   18.7,   19.3,   21.6,   22.6,   23.7,   24.3,   27.8,   29.0,   28.2,   29.6,   31.5,   31.1,   31.5,   32.9,   33.7,   32.4,   33.4,   34.3,   34.4,   33.2,   32.8,   33.4,   34.8,   37.5,   38.4,   41.3,   43.2,   43.4,   43.9,   44.9,   44.8,   46.2,   47.0,   44.7,   48.4,   51.4,   47.6,   49.2,   48.8,   54.9,   57.4,   56.6,   60.4,   60.7,   60.1,   57.9,   55.9,   59.4,   57.0,   60.9,   63.7,   66.4,   61.5,   68.1,   65.1,   67.5,   70.6,   67.6,  999.0,   63.3,   63.0,   67.5,  999.0,   63.9,   73.1,   73.0,   61.4,   66.7,   67.8,  999.0,   52.3,   54.6,   54.7,   52.7,   50.4,   56.1,   59.4,   47.9,   48.9,   42.7,   41.6,   39.9,   37.2,   38.2,  999.0,  999.0,   44.8,   47.4,  999.0,   36.1,   37.5,   40.7,   30.4,   30.6,   33.1,   33.2,   33.7,   34.4,  999.0,   30.4,  999.0,  999.0,   19.5,   17.6,   10.5,    8.9,    6.2
1990/01/17 09:45,    9.0,   10.4,   11.3,   11.9,   12.5,   15.0,   15.9,   15.8,   18.2,   18.6,   21.2,   23.6,   22.2,   19.6,   19.8,   22.4,   23.0,   23.6,   26.1,   27.8,   28.1,   28.6,   29.9,  999.0,   31.3,   33.4,   34.0,   33.6,   32.9,   32.6,   35.2,   32.5,   32.8,   32.6,   33.6,   35.2,   37.6,   39.4,   40.4,   42.5,   43.8,   44.5,   43.9,   43.4,   44.8,   47.8,   43.4,   47.0,   48.7,   50.0,   46.8,   50.6,   51.6,   56.7,   55.6,   59.4,   59.1,   60.6,   56.9,   55.1,   57.9,   57.0,   58.9,   61.2,   63.5,   61.9,   67.0,   65.5,   73.0,  999.0,   68.4,   70.5,   60.1,   63.4,   69.4,  999.0,   64.6,   72.5,   69.7,   59.6,   62.7,   65.2,   62.7,   52.1,   54.8,   55.6,   53.8,   52.8,   55.3,   55.1,   52.7,   43.7,   41.5,   39.3,   38.2,   36.0,   39.7,   42.2,   35.3,   42.8,   45.3,   44.6,   35.6,   39.1,   38.9,  999.0,   29.2,   32.0,   32.3,   32.6,   33.3,   29.4,   32.8,   33.8,   33.9,   23.4,   19.5,   14.1,    9.7,   10.5
1990/01/17 09:55,   10.4,   11.2,   11.4,   12.4,   12.9,   14.6,   15.6,   15.9,   16.9,   19.0,   21.4,   22.9,   20.4,   19.0,   20.1,   20.8,   23.2,   25.7,   26.9,   27.5,   27.4,   28.8,   30.6,   28.9,   32.6,   33.7,   33.9,   32.5,   31.6,   32.3,   34.4,   33.5,   30.9,   32.3,   32.8,   34.1,   36.6,   38.3,   39.2,   41.7,   42.0,   44.0,   42.9,   42.3,   43.8,   47.3,   43.4,   44.9,   47.2,   52.0,   44.3,   48.7,   49.3,   55.0,   56.2,   60.5,   60.7,   61.0,   57.7,   56.3,   55.9,   57.0,   58.5,   59.1,   62.6,   61.2,   66.8,   63.0,   68.3,   62.6,   67.1,  999.0,   60.2,   65.4,   72.6,  999.0,   67.9,   76.6,   67.4,  999.0,   63.2,   67.6,   63.1,   52.6,   57.2,   58.4,   45.8,   54.0,   61.8,   58.3,   49.5,   49.3,   48.0,   42.1,   37.9,   38.3,   43.2,  999.0,   42.9,   43.9,   47.2,   38.7,   37.0,   40.8,  999.0,  999.0,   31.6,   32.6,   33.0,   32.3,  999.0,  999.0,   32.5,  999.0,  999.0,   22.2,   20.4,   12.4,   11.6,  999.0
1990/01/17 10:05,    9.9,   10.4,   11.8,   12.3,   13.4,   15.2,   15.4,   15.5,   16.8,   18.3,   20.2,   21.3,   20.7,   18.6,   19.0,   21.2,   23.1,   25.0,   27.1,   26.1,   26.9,   28.7,   29.1,   29.3,   31.4,   33.4,   30.8,   33.2,   31.6,   31.5,   33.9,   33.6,   32.1,   32.1,   33.1,   34.1,   36.3,   37.6,   38.2,   41.7,   42.3,  999.0,   42.1,   41.5,   44.3,   46.6,   46.0,   44.7,   47.7,   50.9,   43.7,   48.1,   50.2,   55.3,   58.0,   60.3,   59.9,   58.6,   58.8,   55.3,   57.5,   57.8,   59.8,   59.2,   65.5,   62.3,   68.9,  999.0,  999.0,  999.0,  999.0,  999.0,  999.0,   67.7,  999.0,  999.0,   65.7,   71.9,   69.7,   70.7,   61.0,   66.4,  999.0,   56.4,   54.3,  999.0,  999.0,   53.1,   59.7,  999.0,   47.7,   48.6,   46.2,   42.7,   36.5,   39.9,  999.0,  999.0,   44.5,   40.0,   42.9,  999.0,   37.5,  999.0,  999.0,   34.9,   29.2,   32.4,   29.4,   33.0,  999.0,   26.2,   31.6,   31.3,  999.0,  999.0,   16.6,   10.1,  999.0,  999.0
1990/01/17 10:15,    8.9,   11.4,   11.2,   11.7,   13.7,   14.6,   14.8,   15.4,   16.6,   18.9,   19.3,   21.3,   20.8,   17.7,   18.8,   20.6,   22.3,   24.4,   25.1,   26.3,   27.3,   28.6,   28.8,   30.1,   32.5,   32.5,   30.8,   33.0,   33.2,   31.5,   33.8,   34.9,   33.0,   32.3,   33.3,   34.2,   36.4,   37.7,   39.6,   41.3,   44.2,   42.6,   43.0,   43.3,   44.4,   47.4,   44.1,   44.2,   46.4,   49.4,   44.5,   49.7,   50.7,   56.8,   61.5,   60.4,   60.5,   63.3,   60.6,   56.1,   58.4,   58.8,   60.7,   59.3,   63.7,   63.2,   66.0,   64.5,  999.0,   67.4,   69.2,   64.7,  999.0,   66.9,  999.0,  999.0,   67.4,   71.8,   67.5,   72.0,  999.0,   62.7,   63.9,   61.4,   49.9,   54.5,  999.0,   53.3,   55.7,   60.9,   49.8,   50.1,   46.0,   44.4,   37.4,   39.6,   44.4,   45.0,   44.4,   44.9,   42.7,   44.6,   42.2,   39.5,   36.1,   35.9,   29.9,   31.6,   32.7,  999.0,  999.0,   27.1,   32.2,   32.1,   35.4,   40.5,   13.0,   11.0,    8.5,  999.0
1990/01/17 10:25,    9.0,    9.9,   10.1,   12.2,   12.8,   12.3,   13.7,   14.2,   16.9,   18.6,   19.6,   19.8,   21.1,   18.7,   19.2,   20.9,   23.7,   24.6,   26.5,   27.5,   28.3,  999.0,   29.2,   30.3,   31.7,   31.3,   31.9,   31.8,   33.2,   31.5,   33.7,   34.1,   34.2,   31.6,   33.1,   34.1,   35.1,   36.6,   38.1,   39.7,   42.6,   42.3,   41.7,   42.9,   44.7,   47.0,   44.3,   43.5,   43.7,   45.9,   45.0,   47.9,   50.2,   55.5,   57.4,   59.6,   60.2,   60.9,   60.7,   54.7,   57.6,   60.2,   61.2,   57.6,   64.1,   63.0,   65.9,   66.2,   65.9,   67.8,   66.3,   61.6,   63.0,   65.7,   69.3,  999.0,  999.0,   70.4,   71.4,   71.7,   62.9,   59.4,   66.7,   60.2,   52.5,   50.4,   54.5,   50.7,   52.4,   59.6,   47.4,   49.0,   45.2,   41.9,   37.1,   37.9,   42.1,   43.8,   44.3,   44.1,   41.5,   43.4,   41.3,  999.0,   34.0,   34.8,   31.3,   33.1,  999.0,   33.7,  999.0,   31.0,   33.9,   32.8,   36.4,   25.5,   14.7,   11.2,   10.5,    6.8
1990/01/17 10:35,    9.1,    9.7,   11.0,   13.2,   13.1,   13.1,   13.3,   15.1,   16.1,   18.2,   20.3,   20.8,   20.8,   18.7,   19.8,   21.5,   22.9,   24.3,   25.0,   27.0,   28.9,   29.5,   28.6,   29.1,   31.0,   30.6,   31.5,   32.1,   30.7,   31.8,   33.3,   33.3,   33.7,   32.4,   32.1,   33.6,   34.0,   36.1,   37.5,   39.3,   41.8,   40.2,   42.1,   44.2,   45.8,   44.9,   46.2,   44.9,   43.4,   44.7,   47.9,   46.9,   49.9,   54.8,   58.3,   60.5,   60.4,   61.7,   59.7,   55.5,   57.3,   60.8,   59.3,   59.5,   66.6,   61.2,   65.7,   65.3,  999.0,   64.9,   64.7,   62.9,   59.8,   62.9,   68.5,  999.0,  999.0,   67.4,   68.5,   69.4,  999.0,   58.7,   62.4,  999.0,   48.2,   48.7,   54.6,   47.1,   51.1,   56.6,  999.0,   45.6,   42.6,   40.7,   39.1,   34.3,   38.9,   43.2,   40.2,   43.4,   39.1,   42.0,   38.5,   36.4,   35.4,   33.3,   29.6,   31.1,   30.9,   26.1,  999.0,   30.8,   29.7,   31.2,   34.5,   27.8,   13.1,   12.2,  999.0,  999.0
1990/01/17 10:45,    9.3,   10.3,   12.4,   12.7,   13.1,   11.5,   13.3,   14.7,   16.5,   17.8,   19.5,   20.0,  999.0,   19.4,   22.0,   23.3,   24.6,   25.1,   26.3,   28.6,   28.6,   28.3,   29.1,   28.5,   29.0,   30.0,   30.4,   31.7,   29.9,   31.3,   31.5,   33.4,   33.1,   32.5,   31.8,   33.4,   33.3,   34.5,   35.9,   37.7,   38.8,   39.3,   41.0,   42.3,   43.1,   45.9,   43.9,   46.7,   43.8,   45.0,   48.8,   48.8,   48.3,   51.7,   56.2,   58.0,   59.3,   57.8,   60.8,   53.8,   57.3,   60.4,   63.1,   59.4,   65.0,   60.4,   63.3,   62.6,   68.0,   65.5,   67.1,   63.9,   62.0,   65.6,   70.3,  999.0,  999.0,   69.1,   68.2,   66.0,   63.0,   62.5,   59.5,  999.0,   48.6,   49.8,   53.5,   53.6,   49.8,   54.4,   49.8,   46.4,   43.5,   38.1,   35.6,   36.8,   41.4,   41.3,   43.4,   40.5,   43.8,   37.8,   41.6,  999.0,   34.1,   32.8,   30.1,   31.3,  999.0,  999.0,  999.0,   29.0,   30.8,  999.0,  999.0,  999.0,   19.1,  999.0,    8.9,    8.7
1990/01/17 10:55,   10.2,   11.2,   12.8,   12.9,   12.9,   11.8,   12.8,   14.4,   15.7,   17.1,   18.1,   18.6,   19.8,   21.1,   22.2,   23.7,   25.1,   26.1,   27.6,   29.9,   28.0,   29.1,   28.9,  999.0,   29.4,   30.2,   30.9,   30.8,   30.0,   31.6,   33.6,   33.8,   32.9,   33.0,   31.7,   33.3,   32.8,   33.2,   34.1,   36.2,   36.8,   38.5,   38.6,   38.0,   41.4,   43.3,   41.2,   45.6,   42.6,   45.3,   49.0,   48.8,   50.4,   52.7,   56.9,   58.3,   59.0,   58.6,   58.8,   55.1,   59.2,   57.9,   61.5,   58.3,   61.1,   64.9,   64.6,   66.1,   66.4,  999.0,   64.4,   66.4,   63.2,   64.1,   67.8,  999.0,  999.0,   65.2,   69.9,   66.3,   63.0,  999.0,   56.1,   54.8,  999.0,   49.1,   53.2,   55.8,   48.7,   52.2,   54.5,   44.1,   43.0,   39.8,   37.3,   38.6,   42.4,   45.0,   43.6,   44.5,   37.2,   41.4,   45.0,  999.0,  999.0,  999.0,   31.1,   32.3,   34.0,   31.2,   30.2,  999.0,  999.0,   37.6,  999.0,  999.0,   18.4,   14.2,  999.0,    6.0
1990/01/17 11:05,    9.4,   10.0,   11.1,   11.8,   12.1,   12.1,   13.9,   14.5,   15.1,   17.1,   17.5,   19.0,   20.1,   21.0,   22.0,   22.5,   24.1,   26.0,   28.0,   28.5,   29.3,   28.8,   31.0,   28.1,   30.4,   30.6,   31.2,   32.7,   33.1,   32.7,   34.0,   35.1,   34.1,   32.9,   31.2,   32.9,   33.5,   32.1,   34.7,   36.7,   36.7,   38.0,   38.9,   38.6,   42.1,   43.9,   41.9,   46.3,   43.0,   43.6,   47.4,   48.0,   50.1,   54.4,   59.9,   59.7,   59.4,   61.3,   58.2,   56.9,   61.5,   59.4,   64.2,   58.2,   59.8,   65.5,   63.8,   67.0,   66.4,  999.0,  999.0,   63.0,   63.9,   65.5,   68.7,  999.0,  999.0,   62.5,   68.0,   73.7,  999.0,   62.1,   60.9,  999.0,  999.0,   46.3,   53.3,   56.2,  999.0,   53.6,  999.0,   45.8,   42.2,   38.3,   37.9,   39.1,   42.3,   45.4,   44.2,   41.8,   40.6,   41.5,   43.5,  999.0,   37.8,  999.0,   28.9,   31.8,  999.0,   34.9,   31.1,   32.1,   34.4,   37.4,   38.8,   26.1,   22.7,  999.0,    7.6,  999.0
1990/01/17 11:15,   10.3,   11.0,   12.1,   12.2,   11.6,   11.1,   14.1,   15.7,   16.1,   16.4,   16.9,   18.8,   20.5,   21.3,   23.0,   23.7,   24.2,   25.9,   27.9,   28.5,   30.0,   31.3,   31.2,   29.4,   31.1,   30.9,   31.4,   32.0,   32.3,   32.9,   33.5,   34.4,   33.1,   32.4,   30.8,   31.7,   32.5,   32.1,   34.1,   35.5,   37.2,   38.1,   39.4,   38.5,   40.9,   42.3,   41.5,   45.7,   43.1,   44.5,   47.6,   48.8,   50.2,   55.3,   59.5,   60.5,   61.5,   61.9,   60.3,   57.1,   61.1,   57.4,   60.6,   58.1,   61.2,   64.9,   62.8,   67.1,   66.6,  999.0,   69.8,   62.7,   65.5,   66.4,   66.5,   67.5,  999.0,  999.0,   67.8,   72.7,  999.0,   62.5,  999.0,  999.0,  999.0,   50.3,   52.0,   57.9,   51.8,   54.2,   50.3,   45.1,   39.9,   38.5,   38.8,   40.7,   43.7,  999.0,  999.0,   43.8,   44.6,   40.7,   42.5,  999.0,   34.1,   36.5,   30.7,  999.0,   33.8,   35.1,   31.1,  999.0,   35.7,   38.1,  999.0,   23.0,   14.7,   15.1,   11.4,    8.6
1990/01/17 11:25,   12.0,   11.4,   11.3,   12.3,   10.8,   10.2,   13.9,   15.3,   16.6,   16.3,   17.0,   18.8,  999.0,   22.8,   24.8,   24.7,   24.9,   25.9,   28.8,   28.8,   29.9,   32.5,   31.0,   29.7,   31.7,   29.4,   30.6,   32.6,   32.5,   33.7,   33.5,   34.8,   32.6,   32.0,   31.6,   31.9,   33.6,   33.6,   34.7,   35.9,   36.7,   38.0,   37.9,   38.7,   40.2,   41.5,   40.2,   45.4,   44.6,   44.2,   46.7,   48.7,   51.4,   55.5,   56.8,   61.5,   60.1,   60.6,   59.8,   60.1,   64.4,   56.5,   57.7,   59.2,   60.4,   64.1,   65.1,   67.6,  999.0,   70.3,  999.0,   68.5,   61.9,   68.0,   70.1,  999.0,  999.0,  999.0,   63.5,   64.9,   73.6,  999.0,   60.3,  999.0,   52.8,  999.0,   50.9,   53.1,   55.2,   51.9,   50.5,   44.4,   42.2,   39.0,   37.2,   40.1,   42.0,  999.0,  999.0,   43.2,  999.0,   36.4,   40.2,  999.0,   35.0,   37.0,   35.3,   31.3,   34.1,   33.4,   33.1,   31.0,   35.6,   38.7,  999.0,  999.0,   13.8,  999.0,  999.0,    6.4
1990/01/17 11:35,   11.4,   11.9,   12.3,   11.7,   11.6,   10.8,   12.9,   14.1,   16.3,   17.9,   18.4,   17.9,   18.5,   19.8,   21.4,   23.6,   24.8,   24.5,   28.1,   27.6,   29.0,   30.8,   31.3,   30.1,   30.7,   28.9,   31.4,   32.3,   33.2,   33.5,   34.8,   34.6,   34.1,   33.5,   31.5,   33.2,   34.5,   35.7,   35.1,   37.6,   37.7,   38.0,   39.6,   40.8,   41.8,   43.4,   41.9,   46.0,   43.1,   46.1,   47.5,   48.6,   51.8,   56.9,   58.6,   62.8,   62.7,   60.1,   60.0,   59.5,   65.7,   58.2,   56.9,   59.2,   61.8,   65.0,   66.4,  999.0,   66.2,   67.1,  999.0,   73.1,   63.7,   65.6,   67.7,  999.0,  999.0,  999.0,  999.0,   66.9,  999.0,  999.0,   62.0,  999.0,   56.9,   59.7,   50.2,   52.9,   59.5,   62.9,   50.1,  999.0,  999.0,   36.8,   37.9,   41.8,  999.0,  999.0,   43.3,   45.9,   46.9,   36.5,   40.7,   38.4,   40.3,   38.8,   39.1,   31.0,   32.4,   34.1,   33.9,   33.4,   35.7,   39.7,   29.5,  999.0,  999.0,  999.0,  999.0,    7.6
1990/01/17 11:45,   10.6,   10.5,    9.5,    9.3,    9.3,   10.4,   11.9,   15.5,   16.6,   18.9,   20.1,   20.1,   19.0,   20.6,   23.0,   25.0,   23.3,   24.7,   27.2,   26.3,   29.3,   30.4,   28.5,   27.9,   28.1,   27.1,   29.6,   32.5,   32.9,   32.5,   33.4,   34.1,   34.1,   31.4,   32.9,   32.0,   34.3,   33.7,   34.9,   36.7,   36.5,   37.4,   38.3,   39.1,   40.3,   40.6,   41.2,   44.1,   43.9,   45.4,   45.3,   48.3,   49.6,   54.5,   57.5,   61.2,   61.5,   60.6,   62.2,   59.5,   63.0,   57.3,   54.9,   58.6,   60.0,   65.0,   65.4,   66.1,   66.4,   66.1,   66.7,   68.3,   68.5,   65.1,   69.8,   67.6,  999.0,   57.0,   66.8,   68.5,  999.0,   63.8,  999.0,  999.0,   57.1,   53.4,   53.0,   53.9,   58.8,   54.7,   48.2,   47.7,   38.0,   34.6,  999.0,   43.9,   41.8,   40.4,   44.1,  999.0,   33.3,   35.6,   38.6,   35.4,   37.1,   34.2,   33.7,   27.6,   29.6,   29.9,   28.9,   30.2,   32.0,   35.5,   26.7,  999.0,  999.0,   12.1,   10.4,    7.9
1990/01/17 11:55,    9.2,    9.5,    8.7,    9.3,    9.3,    9.7,   12.0,   15.3,   17.6,   18.8,   18.8,   18.5,   18.5,   22.6,   24.5,   22.9,   23.8,   26.1,   26.4,   27.2,   28.9,   28.6,   26.8,   26.9,   25.5,   27.9,   30.8,   32.9,   31.6,   32.6,   32.6,   33.0,   32.8,   32.3,   33.2,   33.7,   34.1,   35.1,   35.5,   36.2,   35.9,   36.8,   37.3,   39.0,   39.6,   39.5,   42.3,   41.8,   43.9,   47.9,   48.9,   46.5,   48.6,   52.7,   57.8,   58.5,   60.6,   61.7,   62.3,   56.8,   59.5,   57.7,   58.5,   58.7,   60.7,   65.5,   64.3,   67.9,   68.5,  999.0,   65.7,   69.5,   65.2,   65.7,   68.5,   72.8,  999.0,   62.8,   67.5,  999.0,  999.0,  999.0,   61.3,   61.0,  999.0,   53.5,   52.5,   55.6,   59.0,   51.4,   46.2,   44.4,   40.3,   39.2,   42.2,   40.4,  999.0,   44.7,   46.3,   43.0,  999.0,  999.0,   40.1,   39.9,  999.0,   37.0,   35.3,   26.8,   28.9,   28.4,   30.6,   27.9,   30.6,   32.1,   26.3,   23.2,  999.0,  999.0,  999.0,    9.5
1990/01/17 12:05,   10.1,   11.1,   10.1,   10.0,    8.8,   11.0,   12.9,   16.5,   18.8,   19.2,   18.9,   20.6,   21.5,   23.7,   23.7,   23.0,   25.3,   26.7,   27.3,   28.3,   28.4,   26.7,   25.3,   24.0,   25.2,   28.5,   30.0,   32.0,   30.8,   31.7,   31.5,   31.5,   32.5,   32.1,   32.9,   33.9,   34.5,   35.3,   36.1,   35.0,   35.0,   37.0,   37.6,   38.2,   40.0,   40.0,   41.9,   42.3,   45.4,   48.6,   49.4,   45.2,   47.9,   51.5,   56.6,   56.1,   59.9,   61.4,   61.0,  999.0,   59.2,   57.5,   57.4,   61.2,   60.4,  999.0,   62.3,   66.0,   69.7,   67.9,   65.4,   71.4,   65.7,   72.4,  999.0,   65.9,   60.5,   67.2,  999.0,  999.0,  999.0,  999.0,  999.0,   60.6,   59.3,   63.3,   54.6,   57.3,   61.3,   51.9,   46.6,   42.7,   37.7,   39.4,   43.6,  999.0,  999.0,   44.5,   44.0,  999.0,   36.4,   36.4,   37.5,   36.6,  999.0,   32.1,   33.4,   27.4,  999.0,  999.0,   26.8,   30.0,  999.0,  999.0,  999.0,   22.8,  999.0,  999.0,  999.0,   11.3
1990/01/17 12:15,   10.0,    9.6,    9.6,    9.7,    9.7,   10.3,   11.5,   16.1,   17.3,   17.7,   19.1,   20.5,   21.6,   23.8,   25.2,   25.2,   26.8,   28.1,   29.0,   27.7,   26.3,   25.2,   24.3,   24.1,   25.9,   29.3,   30.8,   32.1,   30.2,   30.6,   31.9,   31.8,   32.0,   32.5,   32.5,   33.8,   34.6,   35.4,   34.1,   35.8,   35.5,   36.9,   37.9,   38.6,   39.6,   39.2,   41.3,   45.0,   44.8,   47.5,   49.1,   47.7,   47.8,   51.7,   55.6,   56.7,   60.4,   63.2,   61.9,   60.7,   61.3,   58.9,   58.5,   60.8,   62.1,   61.9,   66.0,   64.9,   65.2,   66.8,   64.1,   68.0,   68.8,   68.0,   75.3,   66.5,   64.3,   66.4,   66.0,   62.0,   62.9,   56.2,   60.1,   60.4,   67.2,   55.6,   54.1,   54.4,   58.1,   50.3,   46.3,   40.4,   36.0,   38.1,   39.6,   37.8,  999.0,   42.7,   41.6,   39.4,   34.3,   34.1,   34.9,   38.4,  999.0,   31.2,   32.4,   26.1,   28.2,  999.0,   24.4,   26.4,   29.9,  999.0,   22.2,   18.5,  999.0,  999.0,  999.0,  999.0
1990/01/17 12:25,   10.2,    9.9,   10.0,    9.5,   10.2,   11.8,   12.5,   16.2,   17.6,   18.9,   19.1,   21.3,   22.7,   24.2,   25.3,   26.7,   27.8,   27.8,   27.1,   25.8,   24.8,   23.7,   24.1,   25.3,   26.4,   29.0,   31.0,   30.1,   30.0,   30.9,   30.7,   30.8,   31.9,   32.6,   31.3,   34.7,   35.9,   34.8,   33.2,   33.9,   34.6,   36.6,   37.3,   39.2,   38.7,   40.2,   42.5,   46.7,   43.2,   45.3,   49.9,   48.9,   49.4,   50.9,   55.0,   56.1,   59.3,   60.3,   61.0,   59.7,   60.6,   59.1,   56.8,   58.3,   59.5,   62.8,   65.6,   62.3,   63.7,   67.3,   67.4,   64.8,   68.6,   66.1,   72.4,   61.7,   61.6,   68.0,  999.0,  999.0,  999.0,  999.0,   61.5,   59.8,   62.9,  999.0,   54.6,   55.4,   56.3,   55.9,   48.9,   45.0,   40.5,   38.8,   40.3,   40.0,  999.0,   42.9,   42.1,   44.7,   34.3,   32.8,   37.0,   37.3,  999.0,   33.2,   31.1,   28.1,   30.7,   28.4,   24.8,  999.0,   30.5,   32.9,   25.2,   28.3,   18.8,   12.8,  999.0,  999.0
1990/01/17 12:35,   10.5,    9.8,   10.2,   10.4,   10.6,   11.7,   13.1,   16.2,   18.6,   20.3,   21.7,   21.4,   22.6,   25.4,   26.2,   27.4,   27.6,   27.5,   26.7,   25.3,   23.9,   24.2,   24.7,   26.4,   27.6,   29.9,   31.0,   30.1,   30.1,   30.5,   31.9,   32.0,   32.5,   32.6,   33.5,   36.0,   33.8,   36.4,   34.6,   35.2,   35.1,   36.0,   38.0,   39.9,   40.1,   41.6,   44.3,   44.9,   44.2,   45.3,   49.1,   52.0,   49.5,   53.1,   55.9,   56.3,   58.4,   62.2,   61.6,   61.5,   60.8,   59.7,   57.9,   60.6,   59.9,   61.5,   65.5,   65.1,   66.0,   68.5,   66.9,   66.8,   67.3,   66.7,   73.2,   65.9,  999.0,  999.0,   63.9,  999.0,   60.0,  999.0,   63.4,  999.0,   57.3,   60.3,   55.8,   54.6,   56.9,   56.3,   47.5,   42.8,   41.3,   42.5,   41.4,   43.0,   42.8,   42.0,   44.5,   39.6,   33.9,   31.6,   34.4,   34.4,   34.1,   32.6,   28.9,   26.7,   28.7,   27.9,   24.4,   26.2,   28.7,   32.1,   26.5,   25.4,  999.0,   14.5,   13.8,  999.0
1990/01/17 12:45,   10.3,   10.6,   10.6,    9.7,   10.7,   11.3,   11.5,   15.5,   17.9,   19.5,   20.7,   21.0,   22.7,   24.4,   25.3,   26.9,   28.4,   27.1,   25.7,   24.4,   23.5,   24.0,   24.4,   27.1,   28.3,   28.9,   29.9,   30.2,   30.6,   32.0,   32.4,   32.4,   33.3,   32.1,   33.4,   34.6,   35.7,   34.9,   34.4,   35.6,   34.8,   36.5,   38.5,   38.7,   39.8,   40.3,   45.0,   44.2,   44.0,   45.0,   47.3,   52.0,   52.3,   53.7,   56.2,   54.8,   57.5,   62.1,   61.5,   66.8,   57.5,   58.4,   59.9,   59.5,   60.7,   62.3,   66.2,   64.5,   65.3,   66.4,   67.7,   69.2,   67.3,   67.5,   74.1,   59.6,   63.9,   61.5,  999.0,  999.0,   60.6,   59.8,   56.1,   61.4,  999.0,   56.5,   59.0,   53.1,   55.9,  999.0,   47.1,   43.8,   44.3,   45.5,  999.0,   43.7,   44.2,   43.1,  999.0,  999.0,  999.0,   31.7,   34.6,   38.7,   35.2,   31.4,   28.9,   26.1,   27.3,   24.0,   25.4,  999.0,  999.0,   29.0,   31.9,   22.6,   21.4,  999.0,  999.0,  999.0
1990/01/17 12:55,    9.7,   10.5,   10.4,    9.6,    9.6,   11.2,   12.3,   14.8,   16.7,   20.3,   22.2,   22.3,   23.7,   25.4,   25.7,   27.2,   27.1,   25.4,   24.9,   23.9,   22.7,   23.2,   25.5,   27.5,   27.7,   28.5,   28.8,   30.4,   32.1,   31.9,   31.9,   32.9,   33.9,   33.0,   33.9,   35.0,   36.0,   34.7,   33.9,   37.0,   36.3,   37.1,   36.8,   39.9,   40.7,   44.1,   47.2,   42.9,   42.7,   45.9,   48.1,   53.1,   52.3,   52.9,   55.2,   55.9,   58.5,   60.3,   60.5,   66.2,   59.2,   58.6,   59.8,   56.2,   58.5,   59.9,   63.9,   65.0,   69.7,   67.2,   62.5,   68.1,   70.1,   66.0,   71.1,   63.6,  999.0,  999.0,   67.0,   60.2,   59.8,   60.3,   59.3,   57.5,   62.2,   58.3,   56.8,   53.5,   57.1,   57.4,   50.8,   48.1,   43.7,   46.9,   47.5,   45.2,   44.7,   43.7,   45.5,   37.0,  999.0,   31.2,   34.9,  999.0,  999.0,  999.0,   29.1,   26.7,   22.4,  999.0,   24.5,   22.2,   23.8,   28.3,   27.4,   21.8,   20.5,   14.6,  999.0,  999.0
1990/01/17 13:05,   10.5,   10.6,    9.8,    9.2,    9.9,   11.4,   12.4,   15.3,   17.1,   20.9,   22.5,   22.4,   24.0,   25.5,   25.6,   26.6,   26.5,   24.6,   23.7,   23.9,   23.1,   23.6,   26.3,   27.5,   28.1,   28.2,   28.5,   30.2,   31.5,   31.5,   31.7,   32.1,   34.2,   34.7,   34.0,   34.7,   33.4,   32.4,   34.9,   36.6,   33.5,   37.1,   37.4,   39.8,   41.4,   46.0,  999.0,   42.7,   41.4,   45.5,   49.2,   50.6,   52.1,   53.6,   52.5,   54.7,   55.5,   60.0,   60.6,   64.3,   60.3,   56.3,   59.1,   57.7,   56.6,   60.1,   62.3,   64.1,   64.9,   69.8,   61.1,   67.1,  999.0,   65.5,   70.5,  999.0,  999.0,  999.0,   56.6,   55.3,   59.1,   63.8,  999.0,   55.8,   60.1,   66.7,  999.0,   50.9,   55.9,   56.5,   54.4,   49.3,   45.4,   44.7,   45.5,   43.9,   44.3,   43.5,   43.6,   36.9,   39.6,   29.0,   32.2,   37.9,  999.0,   30.9,   25.3,   25.9,  999.0,   22.9,   24.1,  999.0,   25.9,   29.5,  999.0,   23.1,  999.0,  999.0,   13.9,  999.0
1990/01/17 13:15,   10.0,   10.0,    8.7,    9.0,   11.0,   11.4,   13.5,   15.4,   17.2,   20.7,   22.3,   21.9,   23.6,   24.8,   24.5,   27.4,   27.2,   25.7,   23.6,   22.4,   23.7,   24.8,   26.9,   27.7,   28.0,   28.3,   29.4,   30.1,   31.7,   30.6,   31.1,   32.8,   34.3,   34.5,   36.4,   34.4,   32.9,   34.4,   34.2,   36.3,   35.1,   36.5,   37.2,   39.5,   42.8,   45.3,   45.7,   41.0,   41.7,   45.1,   48.7,   51.0,   53.1,   53.9,   51.6,   55.0,   55.9,   57.7,   61.9,   62.8,   62.1,   57.2,   58.1,   57.4,   55.8,   57.6,   60.7,   64.6,   66.0,   70.9,   60.7,   66.3,   65.2,   67.0,   73.1,  999.0,  999.0,  999.0,   57.1,   60.0,   60.5,   57.6,   57.2,   59.4,   62.9,   60.8,  999.0,   48.3,   52.4,   54.2,   53.5,   49.9,   46.2,   45.1,   43.4,   46.6,   45.0,   45.3,   45.8,   38.6,   36.0,   30.5,  999.0,   32.6,   33.2,   34.6,   29.3,   27.3,   26.1,   27.0,   24.8,   25.0,   25.6,   29.1,   30.5,   24.2,   23.9,  999.0,   15.7,   13.9
1990/01/17 13:25,    9.0,    9.4,    6.9,    9.4,   11.1,   10.5,   13.6,   15.0,   16.6,   21.4,   23.1,   22.9,   24.7,   26.8,   25.3,   27.4,   27.7,   25.2,   23.4,   23.6,   23.5,   26.0,   27.5,   28.1,   28.6,   28.5,   29.5,   30.5,   30.0,   30.6,   30.1,   32.3,   33.0,   34.2,   33.0,   30.0,   33.7,   35.0,   35.7,   36.9,   35.0,   37.1,   36.9,   40.7,   42.2,   44.5,  999.0,   39.0,   41.0,   43.8,   47.4,   50.4,   54.4,   53.5,   52.4,   53.8,   55.2,   56.3,   61.1,   60.4,   63.5,   57.2,   58.8,   58.8,   56.6,   57.8,   61.6,   64.2,   61.3,   67.8,   64.8,   65.8,   62.1,   61.6,   67.7,   71.2,  999.0,  999.0,   52.7,   57.1,   58.3,   57.8,  999.0,   56.3,   61.8,   53.1,   51.6,   49.8,   51.1,   54.9,   58.3,   46.4,   45.1,   45.1,   42.9,   46.3,   42.9,   43.8,   43.4,   39.1,   36.0,   33.9,   32.4,   31.4,   30.2,   30.8,   28.5,   25.9,  999.0,   23.8,   23.2,   24.1,   25.3,   27.2,   26.4,   22.9,   22.0,  999.0,  999.0,  999.0
1990/01/17 13:35,    9.4,    8.8,    7.5,    8.3,   10.9,   11.5,   12.9,   14.9,   16.6,   19.5,   22.6,   23.2,   24.8,   26.0,   24.7,   26.4,   26.7,   25.1,   23.1,   22.9,   24.3,   26.6,   27.1,   28.2,   28.1,   29.4,   30.2,   30.7,   30.6,   30.6,   31.7,   32.8,   33.0,   33.3,   33.4,   32.4,   32.4,   33.6,   35.3,   37.3,   33.8,   35.9,   36.6,   38.6,   40.5,   42.9,  999.0,   40.9,   40.6,   42.9,   45.5,   48.6,   52.0,   53.7,   51.8,   52.5,   55.3,   55.8,   61.0,   62.7,   62.9,   58.0,   57.9,   58.7,   55.1,   55.6,   61.3,   57.8,   63.5,   65.8,   64.3,   68.5,   63.5,   63.7,   64.0,   69.0,  999.0,  999.0,  999.0,   53.5,   55.2,   56.8,   56.0,   54.9,   57.5,   52.7,   52.0,   51.2,   48.0,   51.3,   55.3,   45.9,   41.7,   43.1,   43.1,   44.6,   40.7,   43.9,   44.4,   37.5,   34.7,   29.7,   32.1,   31.0,   30.2,   29.0,   30.1,  999.0,   22.6,   23.0,   24.8,   27.1,   25.7,   28.4,   22.6,   23.3,   22.4,   16.1,  999.0,   13.8
1990/01/17 13:45,   10.0,    9.1,    7.4,    8.0,   10.6,   11.1,   12.1,   14.2,   16.5,   20.6,   22.3,   23.0,   24.9,   25.3,   25.9,   26.6,   26.7,   24.8,   24.0,   23.5,   25.8,   26.6,   26.9,   27.7,   28.2,   29.1,   29.6,   29.5,   29.3,   30.0,   30.9,   32.0,   33.4,   32.9,   33.3,   33.5,   34.1,   34.9,   38.3,   33.2,   35.6,   36.3,   38.1,   40.3,   41.5,   41.3,   41.6,   39.4,   40.0,   42.6,   44.9,   47.4,   50.5,   53.4,   51.3,   52.9,   56.3,   56.8,   60.3,   62.3,   62.9,   56.9,   59.0,   56.7,   54.9,   54.5,   61.6,   59.3,   64.5,   65.2,   64.7,   65.6,   65.7,   63.6,   64.3,   65.2,   66.0,  999.0,  999.0,  999.0,   59.2,   56.7,   57.6,  999.0,   55.4,   54.9,   52.2,   52.2,   50.7,   53.5,   58.5,   50.9,   42.0,   42.0,   42.3,   44.0,   41.1,   42.6,   43.7,   38.1,  999.0,   29.7,  999.0,   29.3,  999.0,  999.0,   26.5,   26.7,  999.0,   23.1,   24.6,   25.7,   26.6,   29.0,   28.0,   25.2,   19.0,   16.6,  999.0,   14.5
1990/01/17 13:55,    9.2,    9.1,    8.5,    9.2,   11.8,   11.9,   12.9,   14.8,   17.4,   20.6,   22.4,   23.4,   23.2,   23.7,   26.2,   26.8,   24.9,   23.6,   23.6,   24.1,   26.3,   26.6,   27.6,   27.5,   28.8,   29.5,   29.8,   28.6,   29.9,   30.4,   31.2,   31.4,   34.4,   33.5,   33.1,   34.6,   35.3,   35.7,   37.6,   32.8,   35.9,   36.5,   37.3,   39.4,   41.2,   42.4,   42.1,   41.3,   39.7,   42.0,   43.8,   47.1,   51.9,   52.6,   51.6,   52.0,   57.3,   54.7,   60.8,   62.9,   61.3,   60.1,   57.5,   59.2,   57.2,   54.8,   61.1,   59.3,   64.5,   66.3,   65.5,  999.0,   65.2,   71.4,   65.6,   70.7,   59.3,   60.5,   62.5,   61.0,   57.1,  999.0,   59.6,   53.7,   55.4,   54.9,   53.0,   55.2,   52.6,   58.4,   59.1,   42.6,   46.2,   44.8,   41.6,   44.3,   43.2,   45.1,   44.9,   40.8,   33.1,   33.9,  999.0,   32.5,   31.1,   30.1,   26.8,   24.8,   24.2,   23.4,   21.4,   22.9,   24.4,   27.9,   28.8,   24.3,   20.0,  999.0,  999.0,  999.0
1990/01/17 14:05,    8.7,    7.6,    8.0,    9.1,   10.2,   10.9,   12.5,   14.2,   16.4,   19.3,   21.9,   22.3,   23.4,   24.6,   25.9,   25.8,   25.0,   24.1,   23.8,   24.9,   26.1,   26.2,   27.0,   27.1,   28.3,   28.9,   29.6,   28.7,   29.2,   30.4,   30.6,   31.5,   33.5,   34.0,   33.2,   33.2,   35.5,   36.8,   32.4,   34.0,   36.5,   36.7,   36.7,   37.6,   40.0,   42.0,   42.6,   40.9,   39.2,   41.6,   43.5,   47.4,   52.3,   54.6,   50.8,   52.6,   58.4,   56.6,   62.0,   64.3,   61.8,   56.0,   58.2,   62.9,   55.9,   54.7,   59.7,   57.3,   64.3,   69.8,   67.7,   65.9,   67.3,   65.6,   66.0,   70.4,  999.0,   59.6,  999.0,  999.0,   56.7,   59.7,  999.0,   57.3,   56.8,   54.7,   53.9,   55.3,   55.8,   52.7,   52.8,   40.6,   46.2,   42.6,   42.9,   44.1,   41.0,   43.4,   43.8,   42.3,   31.1,   32.2,   36.3,   33.0,   30.1,   28.5,   27.2,   25.6,   24.9,   23.0,   23.5,   22.8,   24.9,   28.1,   30.5,  999.0,   18.1,   15.3,   15.5,  999.0
1990/01/17 14:15,    6.8,    7.3,    7.4,    7.4,   10.7,    9.7,   12.0,   13.8,   15.7,   18.9,   20.9,   22.2,   23.5,   24.2,   26.8,   26.0,   23.9,   24.0,   24.1,   25.7,   26.7,   26.2,   27.0,   28.1,   28.8,   29.2,   29.4,   29.1,   29.1,   29.1,   30.3,   32.2,   34.0,   35.2,   34.1,   34.0,   33.9,   35.3,   33.3,   35.8,   36.7,   39.2,   35.7,   38.8,   40.1,   41.2,   37.6,   42.6,   39.6,   40.2,   42.7,   45.5,   51.1,   53.6,   52.2,   53.2,   57.8,   57.0,   61.6,  999.0,   58.9,   66.5,   56.2,   57.9,   59.3,   53.8,   57.1,   58.6,   61.7,   66.6,   61.3,  999.0,   65.6,   65.6,   66.1,   67.0,   68.5,  999.0,   58.9,   55.6,   60.6,   56.8,  999.0,   57.0,   57.8,   53.8,   55.3,   56.6,   58.6,   50.7,   57.3,   42.5,   47.1,  999.0,   42.3,   44.4,   43.2,   44.1,   47.2,   39.9,   31.0,  999.0,   33.4,  999.0,  999.0,   31.3,   27.6,   27.2,   24.4,   24.7,   22.7,   21.9,   25.4,   27.6,   29.2,  999.0,  999.0,   16.6,  999.0,   11.6
1990/01/17 14:25,    6.2,    7.1,    6.2,    8.7,    9.8,   10.7,   12.9,   14.7,   17.9,   19.3,   21.0,   22.6,   24.1,   24.8,   25.9,   25.4,   25.0,   24.6,  999.0,   25.7,   27.7,   28.2,   26.4,   27.4,   28.3,   29.9,   28.5,   28.6,   28.7,   29.3,   31.7,   32.8,   33.8,   35.4,   35.8,   35.8,   34.9,   35.1,   35.4,   35.2,   36.4,   38.4,   36.6,   38.2,   40.7,   39.9,   41.9,   42.2,   38.8,   41.3,   44.3,   47.2,   50.8,   53.7,   53.2,   52.9,   58.0,   57.6,   61.7,   62.5,   61.1,   58.6,   55.2,   58.7,   60.9,   55.0,   56.8,   58.1,   61.8,   66.6,   61.9,   61.2,   63.5,   65.3,   68.6,  999.0,  999.0,   64.0,   60.4,   59.3,   61.0,  999.0,   58.1,   59.4,   56.0,   55.4,   58.4,   54.7,   58.4,   52.2,  999.0,   42.9,   48.5,   41.4,   43.5,  999.0,   43.8,   44.2,   44.9,   42.8,  999.0,  999.0,   30.1,   31.6,   33.5,   30.4,   27.9,   27.3,   24.8,   24.0,   24.9,  999.0,   25.7,   28.1,   29.2,   20.7,   22.4,   17.0,   14.0,  999.0
1990/01/17 14:35,    7.0,  999.0,    6.5,    9.3,   10.0,   11.1,   13.3,   14.6,   17.9,   20.0,   21.2,   23.2,   23.8,   24.6,   25.4,   24.8,   24.3,   24.1,   26.4,   26.9,   28.2,   26.7,   26.5,   28.0,   28.9,   28.9,   28.1,   29.0,   29.1,   29.2,   31.6,   33.6,   36.4,   34.9,   35.7,   36.5,   36.5,   36.1,   36.4,   38.5,   37.5,   35.8,   37.3,   39.8,   39.9,   43.1,   44.2,   42.0,   40.0,   41.5,   44.0,   48.2,   51.8,   55.1,   53.1,   53.6,   57.1,   59.8,   61.1,   61.3,   59.9,   63.0,   53.2,   58.9,   59.5,   53.1,   56.4,   57.9,   64.7,   64.3,   64.2,   63.0,   63.8,   68.0,   69.4,  999.0,  999.0,   64.2,   61.8,   58.5,   58.0,   56.5,  999.0,   56.6,   58.7,   55.4,   57.7,   56.6,   56.9,   44.9,   49.3,   40.0,   46.2,   43.4,   43.1,   44.2,   43.8,   42.6,   45.6,   40.9,  999.0,  999.0,  999.0,   30.9,  999.0,   27.7,   26.0,   25.5,   25.1,   22.2,   24.0,   24.3,   25.8,   28.2,   29.6,   26.4,   20.8,  999.0,  999.0,  999.0
1990/01/17 14:45,    5.6,  999.0,    6.3,    9.3,    9.4,   11.3,   13.8,   15.0,   19.1,   19.5,   22.3,   23.2,   22.8,   23.8,   24.2,   23.7,   23.6,   24.3,   25.3,   27.2,   26.6,   27.6,   26.4,   26.9,   28.6,   28.1,   28.5,   28.1,   27.6,   29.0,   30.6,   33.5,   33.5,   35.3,   35.8,   35.8,   37.5,   36.1,   35.2,   36.8,   37.6,   37.3,   37.9,   40.2,   41.8,   42.9,   43.9,   42.4,   40.2,   43.3,   45.3,   47.6,   52.2,   55.7,   53.3,   52.8,   58.0,   57.6,   59.9,   60.3,   60.8,   64.1,   54.9,   59.0,   59.3,   52.9,   56.8,   59.4,   61.1,   62.9,   60.7,   63.4,   63.8,   66.2,   70.4,  999.0,  999.0,  999.0,  999.0,  999.0,   57.9,   57.4,   54.5,   57.4,   57.8,   53.1,   55.8,   53.7,   55.0,  999.0,   41.5,   46.5,   39.6,   41.8,   43.1,  999.0,   40.6,   41.7,   40.9,   39.6,  999.0,  999.0,   27.8,   30.4,   25.6,   27.2,   25.5,   25.6,   23.8,   20.4,   22.7,   24.2,   26.0,   28.4,   30.6,  999.0,  999.0,  999.0,  999.0,  999.0
1990/01/17 14:55,    5.5,    4.3,    6.2,    8.9,    9.2,    9.5,   13.2,   14.2,   17.1,   18.9,   21.3,   22.6,   22.5,   24.2,   23.9,   22.6,   24.1,   25.6,   26.5,   25.9,   25.7,   26.4,   26.5,   27.5,   28.5,   28.6,   28.0,   28.6,   28.2,   29.4,   31.3,   33.4,   35.0,   37.4,   36.9,   35.8,   38.7,   35.6,   35.4,   37.1,   39.2,  999.0,   37.7,   41.7,   42.6,   45.0,   43.8,   41.6,   41.9,   41.3,   44.8,   47.4,   51.9,   55.8,   55.0,   55.4,   58.6,   56.4,   60.6,   59.8,   59.7,   65.3,   55.4,   58.4,   58.4,   53.4,   56.6,   59.4,   63.5,   64.4,   60.1,   61.1,   60.8,   66.6,   74.2,   62.0,  999.0,  999.0,  999.0,   62.0,  999.0,   57.8,   54.8,   57.9,   54.4,   51.1,   53.8,   50.5,   54.4,  999.0,   41.9,   46.1,   42.1,   41.9,   42.9,  999.0,   40.3,   42.0,   42.6,   40.2,   38.2,  999.0,   29.8,   31.8,   27.5,   27.7,   28.1,   26.9,   24.1,  999.0,   22.3,   23.3,   25.1,   27.9,   27.2,  999.0,    6.3,  999.0,   16.3,  999.0
1990/01/17 15:05,    6.6,    5.9,    5.7,    8.7,    9.6,   10.2,   13.4,   14.8,   17.5,   18.7,   20.7,   21.9,   21.9,   23.3,   24.2,   25.4,   25.9,   25.1,   25.9,   25.9,   26.4,   25.5,   26.9,   28.1,   28.6,   28.3,   28.4,   29.0,   28.3,   28.7,   30.9,   32.9,   34.9,   38.2,   38.8,   38.1,   36.7,   35.6,   36.7,   36.3,   38.6,  999.0,   37.8,   40.5,   42.1,   41.9,   41.5,   41.1,   41.8,   39.9,   42.4,   45.6,   50.9,   55.0,   55.9,   57.8,   59.7,   56.0,   60.2,   59.8,   58.2,   63.3,   54.8,   59.7,   58.0,   52.1,   55.5,   58.8,   62.6,   66.7,   60.3,   63.8,   64.3,   67.4,   73.3,   63.6,   63.2,  999.0,  999.0,  999.0,  999.0,  999.0,   51.9,   56.7,   57.7,   50.4,   54.4,   56.6,   57.2,  999.0,   42.5,   45.9,   51.8,   40.3,   40.2,   40.7,   37.8,   41.8,   44.1,   41.7,  999.0,  999.0,   26.1,   30.6,   27.7,   26.6,   26.4,   24.2,   22.5,   21.1,   22.0,   22.9,   24.5,   27.1,   24.8,   25.5,   15.3,   20.0,   14.9,   14.9
1990/01/17 15:15,    5.8,    3.4,    5.3,    9.3,   10.0,   11.3,   13.4,   14.2,   17.3,   19.0,   21.1,   19.9,   22.6,   23.4,   24.1,   23.1,   25.2,   25.9,   25.1,   26.7,   26.8,   26.4,   27.6,   28.0,   28.7,   27.9,   28.0,   27.6,   28.0,   28.8,   30.3,   32.2,   33.7,   36.4,   36.9,   38.1,   35.6,   34.8,   36.5,   36.8,   38.3,  999.0,   38.1,   39.1,   41.8,   41.8,   38.6,   42.3,   40.6,   40.6,   42.5,   45.8,   49.9,   53.5,   56.0,   57.1,   56.8,   57.1,   60.1,   60.3,   59.0,   62.7,   53.6,   58.3,   59.5,   49.9,   56.0,   59.2,   60.6,   64.3,   59.9,  999.0,   60.6,   63.2,   71.7,   59.3,   64.8,  999.0,  999.0,  999.0,  999.0,  999.0,   53.6,   56.0,   54.7,   50.5,   52.8,   56.7,   60.5,  999.0,   40.9,   44.8,  999.0,   37.3,   36.8,   40.0,   37.4,   40.3,   43.2,   35.5,   37.1,  999.0,  999.0,   26.0,   25.6,   26.2,   27.7,   26.2,   23.3,   22.5,   23.2,   22.2,   24.6,   26.4,   25.9,   23.1,   18.0,  999.0,   14.0,   15.3
1990/01/17 15:25,    6.3,    5.5,    7.5,    9.8,   10.5,   11.6,   12.2,   13.8,   17.9,   19.8,   21.0,   20.9,   23.3,   24.7,   24.1,   24.5,   25.2,   26.3,   25.6,   26.3,   26.9,   26.0,   26.9,   27.1,   27.5,   27.7,   28.2,   27.7,   26.9,   28.6,   30.9,   32.8,   33.2,   35.7,   38.4,   34.7,   36.7,   37.0,   36.4,   35.4,   36.6,   37.3,   39.2,   40.9,   43.1,   39.9,   41.3,   40.7,   41.2,   40.5,   42.4,   44.6,   49.5,   51.7,   54.4,   56.8,   56.2,   56.0,   57.9,   58.1,   59.5,   62.0,   51.8,   56.8,   57.1,   49.6,   54.8,   58.9,  999.0,   60.5,   60.0,   60.0,  999.0,   61.5,   69.0,   69.9,   65.0,  999.0,  999.0,  999.0,   56.6,   55.7,  999.0,   54.4,   53.8,   51.8,   52.6,   54.7,   58.4,   45.2,   42.8,   46.1,   46.1,   40.1,   38.6,   40.2,   40.0,   39.9,   39.8,   37.5,   36.1,   34.7,  999.0,   24.9,  999.0,   26.1,   28.2,   27.6,   23.5,   24.3,   23.1,   22.5,   25.1,   26.7,   26.0,  999.0,   18.0,   14.2,   12.4,   15.5
1990/01/17 15:35,    6.4,    5.1,    7.9,    9.7,   11.0,   12.0,   13.5,   15.1,   17.9,   19.7,   21.0,   21.0,   23.1,   24.7,   23.8,   25.1,   24.3,   25.1,   26.2,   26.9,   26.3,   26.4,   26.3,   26.8,   26.6,   26.1,   27.6,   27.3,   27.8,   28.0,   29.7,   31.6,   32.4,   35.0,   34.8,   34.7,   37.1,   36.1,   34.7,   37.1,   36.5,   38.1,   39.4,   41.1,   38.5,   41.3,   39.9,   41.2,   39.8,   40.1,   41.2,   43.5,   48.9,   51.7,   53.0,   54.9,   54.8,   57.3,   55.7,   58.5,   58.6,   61.0,   51.5,   56.0,   57.6,   51.6,   53.8,   58.1,   55.7,   58.4,   60.9,  999.0,  999.0,   60.6,   66.7,   73.2,   63.5,   58.6,   58.2,  999.0,   54.6,   59.7,   53.0,   59.2,   56.6,   57.5,   51.7,   53.8,   57.6,  999.0,   42.5,   46.8,   44.7,   41.8,   38.6,   39.8,   41.3,   41.4,   43.6,   38.1,   37.5,  999.0,   26.4,   26.3,   27.1,   25.7,   26.6,   25.7,   23.4,   22.8,   22.8,   22.8,   25.3,   26.8,   27.9,  999.0,   18.1,   11.5,   12.2,   15.4
1990/01/17 15:45,    5.8,    5.6,    7.2,    9.9,   10.9,   11.7,   13.5,   15.5,   18.1,   18.8,   21.3,   21.4,   22.5,   24.2,   23.7,   24.2,   24.6,   24.8,   26.1,   26.2,   25.2,   25.7,   25.5,   26.4,   26.7,   26.9,   27.8,   27.3,   27.4,   28.3,   29.6,   31.9,   33.8,   33.5,   34.8,   35.3,   36.3,   37.2,   35.8,   37.1,   35.9,   37.1,   39.9,   41.5,   40.5,   40.9,   38.6,   40.7,   38.8,   39.5,   41.9,   43.7,   47.6,   51.3,   51.5,   54.9,   54.4,   57.0,   54.9,   60.2,   58.2,   60.3,   52.4,   58.4,   57.9,   56.9,   50.9,   56.0,   55.2,   58.7,   64.1,  999.0,   58.6,   63.3,   66.0,   69.0,   70.3,  999.0,   58.4,   59.7,   59.4,   63.4,   54.6,   57.0,   59.8,   54.5,   50.5,   53.7,   57.9,  999.0,   43.4,   49.6,   45.2,   43.2,   40.6,   41.4,   41.5,   42.4,   41.7,   36.0,   37.1,   31.1,   28.0,   26.6,   23.7,   24.2,   27.7,   26.5,   25.5,   23.5,   23.9,   24.8,   27.2,   26.6,   29.2,   18.0,   15.8,   14.5,   11.0,   14.0
1990/01/17 15:55,    3.9,    5.2,    5.6,    9.5,   10.1,   11.3,   12.5,   14.9,   17.1,   19.8,   19.7,   20.0,   21.8,   22.5,   23.7,   24.3,   24.8,   24.8,   25.6,   24.9,   24.8,   25.8,   26.7,   25.8,   26.5,   28.0,   28.0,   28.2,   28.1,   29.2,   30.0,   31.8,   34.2,   32.6,   34.7,   34.8,   39.0,   37.7,   35.6,   36.6,   34.3,   37.3,   39.5,   42.7,  999.0,   40.8,   38.6,   40.7,   38.5,   40.8,   41.6,   44.8,   48.6,   52.0,   53.1,   55.5,   53.6,   58.1,   58.1,   61.2,   58.8,   63.7,   52.3,   57.8,   57.7,   62.6,   52.0,   56.2,   56.0,   57.5,   62.8,  999.0,   57.7,   63.8,   63.4,   66.8,   72.4,   62.7,   64.5,   55.3,   61.1,  999.0,   53.4,   53.6,   60.2,  999.0,   51.2,   54.6,   58.7,   53.7,   43.7,   47.9,   49.0,   41.9,   43.6,   40.9,   39.4,   43.2,   42.6,   36.8,   37.1,   26.6,   26.5,   25.3,   24.3,   24.8,   26.3,   25.0,   25.3,   22.5,   24.8,   25.8,   28.5,   27.6,   26.0,  999.0,   16.3,   15.1,   10.4,   12.9
1990/01/17 16:05,    4.3,    5.9,    5.3,    9.2,   10.3,   11.7,   12.9,   15.0,   16.0,   18.9,   19.3,   19.9,   21.1,   22.0,   22.9,   23.3,   24.0,   25.2,   25.8,   25.9,   26.4,   26.3,   26.6,   26.1,   26.9,   28.9,   28.1,   28.3,   27.0,   28.1,   29.9,   31.1,   32.4,   33.2,   34.2,   35.8,   36.3,   37.9,   36.0,  999.0,   34.7,   36.9,   38.8,   40.4,  999.0,   39.5,   38.0,   41.1,   37.8,   39.7,   42.4,   46.7,   50.2,   52.6,   52.9,   52.3,   54.3,   59.8,   55.5,   59.2,   57.9,   60.9,   51.3,   57.4,   57.3,   57.3,   54.8,   55.2,   53.0,   56.0,   63.1,  999.0,  999.0,   63.6,  999.0,   63.8,   71.3,   62.2,  999.0,   60.0,   58.2,   59.4,  999.0,   53.6,   59.7,   54.3,   50.4,   53.5,   57.8,   51.1,   45.7,   45.1,   45.2,   41.8,  999.0,   40.9,   38.9,   43.5,   43.2,   36.5,   37.4,  999.0,   26.4,   24.2,   25.4,   26.8,   26.3,   26.0,   27.5,   25.4,   25.6,   25.5,   28.8,   28.4,   25.4,   24.8,   14.6,   13.5,   10.4,   12.4
1990/01/17 16:15,    3.4,    4.2,    5.6,    8.7,   10.1,   11.3,   12.3,   13.7,   16.6,   17.3,   18.1,   19.4,   21.3,   23.0,   24.1,   24.4,   23.8,   23.2,   24.7,   25.6,   26.6,   27.8,   26.4,   25.4,   27.9,   28.4,   29.0,   27.9,   27.9,   28.3,   29.2,   30.3,   32.1,   33.9,   34.3,   35.3,   35.8,   38.6,   35.8,  999.0,   35.3,   36.8,   39.3,   43.2,  999.0,   38.9,   37.2,   40.9,   36.6,   39.5,   41.5,   45.7,   48.9,   52.3,   53.8,   50.6,   54.0,   59.8,   57.7,   56.7,   55.9,   58.2,   51.0,   56.7,   56.4,   53.5,   51.9,   52.2,   52.3,   56.4,   55.8,   62.3,  999.0,  999.0,  999.0,   59.3,   69.0,   66.6,  999.0,   55.6,   55.7,   56.1,   57.2,   51.0,   58.4,   53.1,   48.4,   53.2,   57.2,   56.0,   42.9,   42.8,  999.0,   42.5,   39.8,   39.0,   38.4,   42.0,   42.1,   36.8,   35.0,  999.0,  999.0,   24.2,   24.3,   25.2,   23.8,   23.9,   22.8,   24.5,   23.6,   23.8,   27.0,   26.6,   25.1,   23.4,  999.0,   13.1,   10.7,   12.1
1990/01/17 16:25,    2.5,    5.5,    6.5,    9.8,   10.8,   11.7,   11.8,   15.1,   16.3,  999.0,   18.2,   19.8,   21.4,   22.6,   23.3,   24.0,   23.1,   23.3,   25.4,   26.0,   26.7,   27.4,   26.5,   27.2,   29.2,   29.1,   28.7,   29.2,   26.8,   28.5,   29.1,   30.0,   32.4,   34.0,   34.8,   37.0,   35.9,   36.6,   37.2,   35.5,   35.0,   37.6,   37.9,   40.3,   35.6,   40.3,  999.0,   37.8,   37.0,   38.2,   41.6,   45.6,   49.4,   51.4,   52.6,   50.5,   55.9,   62.6,   53.8,   57.0,   55.2,   56.2,   52.7,   55.3,   54.6,   57.8,   51.5,   53.5,   52.1,   55.4,   55.0,   60.4,   59.5,  999.0,  999.0,   57.2,   66.2,   75.7,   60.7,   56.7,   54.4,   58.7,   54.9,   55.3,   62.4,   51.1,   50.6,   52.7,   56.1,   55.3,   43.7,   43.7,   44.4,   41.8,   38.2,   37.1,   38.1,   39.1,   41.8,   37.1,   32.6,   30.2,   27.9,   22.3,   24.5,   24.6,   22.6,   23.1,   23.5,   23.5,   24.4,   25.5,   27.8,  999.0,  999.0,   22.3,  999.0,   13.1,   12.9,   13.8
1990/01/17 16:35,    2.8,    6.5,    5.9,    9.6,   11.1,   11.6,   13.0,   14.1,   16.4,  999.0,   18.2,   19.1,   21.1,   22.0,   22.4,   22.9,   22.7,   23.5,   24.3,   25.6,   26.2,   25.7,   26.9,   27.2,   28.5,   28.6,   27.4,   26.5,   27.0,   28.5,   29.8,   30.7,   33.1,   34.6,   35.1,   35.4,   36.2,   35.9,   36.7,   35.9,   35.7,   35.4,   37.5,   37.9,   36.8,   38.5,   37.1,   38.9,   37.3,   37.6,   40.9,   44.4,   49.2,   51.0,   52.9,   51.4,   57.6,   63.5,   51.5,   56.1,   56.0,   55.7,   55.7,   57.4,   53.7,   53.9,   51.1,   55.4,   50.9,   53.9,   54.9,   59.0,   65.3,  999.0,  999.0,   56.9,   65.4,   69.9,  999.0,  999.0,   54.4,   56.1,   53.6,   55.4,   61.4,   52.7,   50.7,   51.8,   53.9,   53.8,   43.8,   42.5,   40.9,   41.9,   37.0,   36.0,   39.1,   39.2,   40.7,   34.5,   31.6,   29.8,   27.4,   24.3,   23.7,   24.2,   26.0,   24.3,   23.4,   26.1,   24.0,   26.3,   27.3,   27.0,   23.8,   21.3,   19.0,   14.0,   13.3,   12.2
1990/01/17 16:45,    3.0,    6.2,    5.7,    8.6,   11.0,   11.4,   12.7,   14.1,   15.7,   16.5,   17.3,   18.9,   20.5,   22.7,   22.9,   22.5,   23.4,   22.4,   24.2,   24.4,   25.4,   25.8,   25.9,   25.9,   27.0,   26.8,   27.0,   25.6,   26.4,   28.6,   30.0,   31.8,   31.9,   33.5,   34.1,   34.9,   36.7,   35.4,   36.0,   35.9,   35.3,   34.5,   38.3,   38.9,   35.5,   37.8,   36.1,   36.9,   38.7,   36.8,   40.6,   44.1,   49.4,   52.7,   49.7,   53.8,   58.7,   65.4,   55.8,   57.0,   55.3,   54.0,   59.0,   56.2,   55.0,   53.6,   52.2,   55.4,   56.2,   52.3,   54.9,   56.3,   61.9,  999.0,  999.0,   59.3,   62.3,   66.1,   63.7,  999.0,   56.9,   55.0,   54.2,   55.2,   62.2,   51.4,   52.2,   51.3,   54.3,   53.9,   49.4,   41.5,   40.1,   42.2,   40.8,   38.4,   41.0,   40.7,   36.1,   34.4,   31.9,   29.7,   26.1,   24.3,   22.9,   25.3,   24.5,   24.3,   24.4,   27.6,  999.0,   27.8,   29.2,   31.3,   26.7,   22.1,   23.3,   13.1,   12.8,   15.4
1990/01/17 16:55,    3.4,    5.1,    6.4,    9.2,   11.1,   11.6,   12.6,   14.5,   15.2,   16.8,   17.3,   18.9,   21.4,   23.2,   23.0,   22.6,   22.8,   22.6,   22.3,   23.4,   24.2,   24.8,   24.8,   25.6,   26.7,   27.0,   26.5,   26.5,   27.2,   27.2,   28.4,   29.8,   31.0,   31.7,   32.5,   32.3,   34.8,   36.3,   36.3,   36.6,   36.2,   36.6,   37.8,   37.2,   35.5,   36.5,   36.3,   35.1,   37.1,   35.2,   37.7,   42.7,   48.7,   51.4,   49.1,   52.6,   56.8,   64.0,   57.0,   55.8,   55.6,   54.5,   55.7,   56.1,   57.8,   51.1,   55.0,   53.6,   52.9,   54.7,   57.5,   56.4,   58.6,   63.9,  999.0,   58.0,   58.5,   63.4,   66.2,   62.7,   60.1,   54.3,   53.8,   56.3,   62.3,   52.0,   52.5,   52.4,   55.2,   52.4,   52.1,   41.6,   43.2,   43.1,   40.7,   40.8,   43.6,   42.3,   41.5,   33.1,   32.0,   25.3,   24.1,   22.6,   23.9,   23.9,   25.2,   24.6,   23.3,   24.1,  999.0,   25.8,   27.4,   27.8,   26.0,   18.2,   19.6,   14.4,   11.5,   11.5
1990/01/17 17:05,    4.8,    5.6,    5.1,    8.4,   10.9,   12.2,   12.9,   13.8,   15.5,   17.0,   17.6,   17.3,   20.0,   21.9,   22.9,   22.3,   22.3,   20.9,   22.1,   23.2,   23.4,   25.0,   24.5,   25.9,   26.8,   26.8,   27.1,   28.1,   27.9,   28.8,   30.5,   30.6,   31.2,   32.5,   32.1,   34.1,   35.4,   36.4,   35.8,   37.0,   36.6,   38.4,   37.6,   38.1,   35.9,   36.4,   35.3,   36.1,   37.8,   36.2,   38.2,   43.8,   49.3,   50.8,   51.7,   52.3,   56.8,   62.5,   57.5,   53.7,   57.2,   52.6,   56.0,   55.0,   56.2,   50.4,   52.9,   54.6,   53.2,   51.7,   58.4,   55.9,   57.0,   62.5,  999.0,   58.5,   57.8,   63.8,   65.4,   65.6,   62.4,   54.6,   57.3,   56.0,   61.6,   52.4,   53.3,   53.1,   55.0,   55.7,   52.2,   42.5,   42.5,   43.8,   40.4,   45.4,   47.5,   44.3,   43.3,   31.6,   31.3,   27.4,   24.2,   22.7,   21.8,   24.8,   25.6,   26.6,   24.2,   25.4,   24.2,   27.0,   27.8,   28.6,   28.2,   19.4,   16.4,   12.5,   12.4,   13.8
1990/01/17 17:15,    4.2,    5.4,    5.4,    9.5,   10.7,   11.6,   12.8,   12.2,   15.1,  999.0,   17.6,   16.9,   19.4,   21.1,   22.5,   22.1,   22.4,   21.2,   21.0,   22.0,   23.8,   23.9,   24.7,   25.5,   26.6,   26.1,   27.6,   28.2,   28.8,   28.1,   30.1,   31.2,   32.5,   32.6,   33.4,   34.3,   35.9,   36.9,   35.7,   38.1,   37.5,   38.2,  999.0,   36.3,   36.7,   36.6,   35.4,   36.6,   38.1,   36.4,   38.9,   44.7,   48.8,   51.1,   52.3,   53.3,   57.0,   62.7,   57.6,   53.5,   56.2,   55.1,   55.6,   55.6,   58.2,   50.6,   52.4,   53.0,   55.4,   52.7,   54.2,   56.5,   56.9,   60.9,   63.2,   60.6,   60.8,   61.2,   63.7,   67.4,   57.9,   59.4,   61.0,   55.0,   58.3,   56.4,   50.5,   54.3,   54.4,   54.7,   50.2,   45.4,   43.2,   45.4,   40.4,   44.3,   47.6,   46.3,   35.4,   32.5,   30.9,   26.5,   23.9,   23.3,   23.2,   25.0,   26.7,   26.2,   24.2,   25.2,   23.9,   27.4,   26.8,   28.5,   27.2,   21.3,   19.3,   12.5,   12.7,   14.9
1990/01/17 17:25,    4.4,    6.7,    5.3,    9.5,   11.1,   12.5,   13.0,   12.7,   14.5,  999.0,   17.8,   16.5,   18.4,   20.4,   21.9,   22.8,   22.4,   22.3,   21.8,   22.1,   23.7,   24.6,   25.2,   25.9,   26.1,   27.1,   26.8,   27.3,   28.5,   29.1,   30.0,   31.4,   32.0,   33.2,   33.4,   34.4,   36.5,   35.7,   36.9,   37.4,   37.8,   37.1,   35.9,   36.5,   36.9,   37.3,   37.5,   37.1,   35.8,   37.3,   40.9,   46.4,   50.4,   50.7,   52.0,   55.9,   59.6,   61.3,   61.7,   52.2,   55.7,   55.9,   57.1,   56.4,   59.0,   51.2,   52.6,   51.0,   54.4,  999.0,   52.6,   56.1,   57.0,   59.1,   63.3,   59.6,   62.6,   61.2,   60.4,   66.5,   58.6,   60.9,   55.2,   57.0,   57.2,   55.4,   53.9,   52.8,   57.4,   56.2,   49.5,   45.0,   41.9,   43.4,   41.9,   46.4,   49.3,   43.9,   37.0,   35.1,   30.4,   26.0,   23.7,   21.2,   22.9,   26.0,   26.9,   25.3,   23.3,   23.4,   25.2,   27.9,   26.7,   27.8,   25.2,   22.4,   17.9,   13.1,   12.3,   15.0
1990/01/17 17:35,    5.4,    5.9,    8.3,   10.5,   12.3,   13.2,   13.7,   13.5,   14.7,   16.0,   17.5,   16.3,   17.8,   20.6,   22.5,   23.3,   23.0,   23.6,   22.4,   22.7,   24.0,   23.8,   25.0,   25.0,   25.3,   26.6,   27.0,   26.9,   28.3,   29.5,   29.7,   31.6,   32.4,   33.3,   33.8,   34.1,   35.8,   36.4,   36.2,   38.0,   37.4,   38.2,   36.8,   36.6,   36.8,   36.3,   36.9,   37.7,   37.1,   38.2,   41.6,   46.9,   49.4,   50.2,   51.8,   54.9,   59.7,   60.5,   60.2,   52.1,   55.2,   55.2,   59.4,   55.7,   55.0,   54.2,   50.7,   49.9,   52.5,   53.6,   51.0,   55.5,   56.0,   59.9,   61.0,   59.1,   62.2,   55.9,   58.7,   63.6,   57.2,   59.0,   54.1,   56.3,   58.1,   49.8,   55.6,   51.3,   55.4,   55.1,   48.4,   44.6,   41.0,   41.5,   38.6,   42.9,   46.1,   39.1,   35.0,   33.7,   30.1,   26.0,   24.1,   21.9,   21.3,   24.2,   28.1,   27.4,   25.4,   23.1,   24.2,   27.8,   26.7,   28.5,   26.2,   25.1,   17.9,   14.2,   14.0,   16.1
1990/01/17 17:45,    6.5,    5.5,    8.2,   10.5,   12.7,   13.5,   13.7,   14.9,   16.1,   17.2,   18.1,   16.8,   18.6,   21.5,   22.4,   23.3,   23.2,   22.4,   22.7,   23.5,   22.5,   23.4,   24.7,   24.7,   25.3,   26.4,   26.8,   27.0,   28.5,   29.3,   30.3,   31.2,   31.9,   33.7,   33.5,   34.4,   36.1,   36.7,   36.1,   37.6,   38.4,   39.1,   37.1,   37.1,   36.0,   37.0,   37.7,   36.6,   35.9,   39.6,   43.2,   48.1,   50.1,   50.1,   53.0,   55.6,   60.7,   62.5,   59.8,   53.6,   54.8,   53.1,   58.4,   55.3,   53.1,   56.0,   50.4,   53.7,   51.1,   54.2,   54.2,   55.7,   56.7,   58.3,   60.1,   59.2,   61.0,   55.6,   57.8,   62.2,   58.9,   55.4,   52.3,   57.9,  999.0,   51.3,   56.2,   49.5,   55.2,   50.5,   51.1,   45.7,   41.4,   41.0,   42.0,   40.4,   44.6,   42.0,   35.8,   34.2,   31.1,   25.8,   23.7,   21.9,   22.2,   24.0,   26.0,   27.5,   27.4,   23.2,   24.7,   28.2,   26.8,   28.3,   26.5,   21.9,   17.9,   13.0,   14.0,   16.7
1990/01/17 17:55,    9.0,    7.2,    9.8,   11.2,   12.9,   13.8,   14.3,   15.3,   16.5,   16.7,   18.2,   17.9,   18.9,   20.8,   21.7,   23.1,   23.7,   21.5,   22.3,   21.8,   23.1,   22.4,   24.0,   23.8,   24.7,   24.6,   26.1,   27.4,   28.7,   29.2,   30.3,   31.2,   30.3,   33.0,   33.6,   35.4,   35.4,   36.5,   37.1,   36.7,   37.9,   40.8,   37.4,   38.0,   35.8,   38.2,   39.3,   37.4,   38.3,   41.4,   44.6,   49.4,   48.4,   51.3,   53.9,   57.5,   60.5,   64.6,   59.1,   53.9,   55.3,   56.3,   58.6,   55.6,   55.1,   54.1,   51.0,   52.8,   51.7,   54.0,   53.6,   57.1,   57.1,   59.8,   62.0,   64.9,   60.1,  999.0,   60.2,   59.7,   61.3,   59.5,   56.7,   56.8,  999.0,   54.5,   55.8,   52.5,   54.7,   52.3,   47.6,   46.8,   43.5,   39.9,   42.4,   40.2,   44.9,   43.1,   37.6,   36.9,   32.6,   29.0,   25.4,   22.5,   22.2,   22.2,   24.3,   26.1,   25.4,   21.8,   23.9,   27.2,   32.2,   27.5,   28.3,   27.0,   16.5,   14.7,   16.2,   19.0
1990/01/17 18:05,    7.2,    6.6,    8.8,    9.2,   12.9,   13.8,   14.6,   14.7,   16.6,   16.7,   18.9,   19.3,   17.9,   20.5,   21.6,   22.6,   23.2,   22.2,   22.2,   20.9,   21.9,   23.7,   22.9,   23.0,   23.8,   23.7,   24.5,   25.9,   27.4,   28.9,   28.9,   30.8,   30.9,   32.8,   33.5,   34.5,   36.6,   37.2,   35.7,   36.2,   37.9,   40.8,   36.8,   36.0,   36.0,   38.5,   37.7,   37.4,   37.8,   40.7,   44.6,   48.9,   48.6,   52.8,   52.6,   57.2,   62.9,   59.5,   60.3,   52.9,   55.1,   58.7,   61.4,   52.3,   57.4,   49.7,   51.5,   53.5,   53.3,   53.7,   53.7,   55.2,   56.1,   57.8,   62.4,   62.1,   62.4,   55.4,   60.1,   59.4,   59.5,   59.6,   52.8,   56.0,   49.2,   52.8,   53.8,   52.0,   54.6,   52.8,   42.8,   44.3,   45.6,   37.3,   41.3,   37.8,   43.2,   42.9,   36.0,   37.2,   34.1,   28.8,   24.7,   22.3,   21.2,   20.7,   23.3,   25.9,   26.0,   25.0,   22.9,   26.9,   30.4,   27.6,   29.8,   27.5,   18.6,   15.0,   15.6,   18.8
1990/01/17 18:15,    7.1,    6.4,    9.4,   10.7,   12.7,   14.2,   15.1,   14.7,   16.9,   17.2,   19.5,   19.6,   19.2,   21.3,   22.5,   23.2,   23.8,   22.5,   22.7,   21.6,   22.8,   21.7,   23.0,   23.6,   23.9,   23.8,   24.4,   25.3,   26.4,   27.6,   29.5,   30.7,   31.8,   32.1,   32.9,   33.5,   35.6,   34.8,   35.4,   36.9,   37.4,   37.4,   37.0,   37.3,   35.6,   36.5,   36.9,   37.1,   37.9,   40.3,   44.4,   48.5,   48.7,   50.8,   52.9,   56.4,   62.2,   59.9,   57.2,   52.1,   53.6,   56.9,   60.2,   56.0,   54.4,   47.5,   50.6,   54.3,   51.1,   54.6,   53.1,   53.0,   57.3,   57.8,   61.2,   61.0,   59.3,   57.1,   56.0,   63.4,   53.8,   58.6,   55.7,   54.6,   48.1,   53.2,   49.2,   51.9,   53.5,   53.0,   42.3,   42.3,   43.5,   37.1,   38.0,   42.6,   41.3,   42.0,   38.8,   36.7,   34.1,   30.7,   25.9,   22.3,   21.2,   20.5,   22.3,   24.7,   25.9,   25.0,   22.7,   26.0,   29.8,   27.7,   29.3,   27.1,   17.0,   16.2,   17.1,   19.3
1990/01/17 18:25,    7.1,    6.8,    8.1,   10.5,   13.2,   14.0,   14.4,   14.7,   17.3,   17.8,   19.0,   20.1,   17.9,   20.6,   21.6,   22.9,   23.3,   22.7,   21.7,   22.3,   21.9,   22.7,   23.2,   23.5,   25.4,   24.7,   26.1,   26.1,   26.5,   27.8,   29.2,   30.5,   31.5,   32.8,   32.7,   33.4,   33.7,   36.5,   34.7,   36.4,   37.5,   36.3,   37.8,   38.7,   34.5,   36.5,   37.7,   36.0,   36.9,   39.0,   42.9,   46.7,   47.4,   50.1,   52.3,   57.3,   62.3,   56.4,   53.6,   54.6,   54.9,   54.9,   57.5,   56.0,   54.5,   49.2,   51.5,   53.0,   50.1,   54.6,   54.9,   55.8,   58.3,   55.7,   58.5,  999.0,  999.0,   58.6,   55.6,   62.2,   53.0,   58.5,   62.6,   53.1,   46.7,   50.0,   52.4,   52.4,   53.0,   51.2,   46.6,   40.9,   40.4,   38.4,   39.3,   40.8,  999.0,  999.0,   39.3,   33.1,   32.4,   29.9,   26.2,   23.1,   21.3,   21.4,   23.3,   26.7,   26.4,   24.1,   24.3,   25.6,   28.8,   28.0,   29.8,   25.8,   20.1,   16.5,   17.6,   20.9
1990/01/17 18:35,    7.9,    5.1,    6.8,   11.4,   13.0,   14.1,   14.7,   14.7,   16.9,   17.5,   18.5,   18.7,   18.7,   21.0,   22.1,   23.6,   23.0,   22.0,   21.1,   22.3,   23.0,   22.3,   24.1,   23.5,   25.0,   24.5,   25.6,   25.8,   26.2,   27.9,   28.4,   30.8,   31.5,   33.0,   32.4,   34.6,   35.7,   37.7,   35.2,   38.2,   36.9,   37.7,   39.9,   39.2,   36.9,   37.3,   37.4,   35.0,   37.2,   39.2,   42.6,   46.3,   46.8,   50.4,   54.4,   58.1,   63.1,   53.0,   55.2,   56.2,   54.5,   56.5,   55.8,   58.5,   54.9,   51.7,   49.1,   50.1,   53.1,   54.5,   56.9,   53.9,   56.5,   61.4,   59.5,   59.7,   56.8,   57.6,   58.8,   60.7,   52.2,   58.8,   57.4,   51.2,   50.9,   47.2,   53.2,   49.9,   53.7,   50.9,   52.1,   42.5,   39.4,   38.0,   38.3,   41.6,   42.1,   36.1,   41.8,   35.8,   36.2,   29.0,   25.4,   23.2,   21.7,   22.9,   23.5,   27.2,   29.6,   25.3,   24.8,   26.4,   29.7,   28.0,   29.2,   29.0,   17.4,   16.1,   18.0,   19.7
1990/01/17 18:45,    5.1,    8.4,   10.6,   12.1,   13.3,   14.4,   14.4,   15.9,   17.4,   17.5,   19.3,   18.2,   19.8,   22.0,   23.3,   24.7,   23.6,   22.2,   21.6,   22.5,   21.8,   22.5,   23.7,   23.5,   23.3,   24.4,   23.5,   24.7,   25.6,   26.3,   28.3,   30.9,   32.0,   33.3,   34.4,   34.6,   36.8,   36.4,   37.5,   36.8,   37.4,   39.0,   39.9,   39.9,   38.3,   38.3,   38.2,   36.5,   37.8,   41.4,   44.3,   46.3,   48.3,   52.8,   54.8,   59.5,   59.6,   56.4,   55.6,   55.9,   54.6,   58.8,   56.2,   59.4,   58.7,   49.5,   49.7,   50.5,   55.6,   56.4,   55.4,   58.5,   57.2,   58.5,   60.6,   58.6,   55.7,   58.5,   60.9,   59.4,   56.3,   58.2,  999.0,   54.1,   50.9,   51.8,   51.4,   50.9,   55.7,   52.4,   53.0,   41.7,   44.9,   38.9,   39.1,   43.0,  999.0,   40.9,   41.1,   36.4,   36.1,   33.3,   28.2,   22.7,   22.6,   22.3,   23.3,   26.3,   26.7,   26.3,   23.9,   25.9,   28.5,   26.3,   27.7,   25.8,   18.3,   14.5,   15.4,   18.3
1990/01/17 18:55,  999.0,    8.9,   11.6,   12.9,   13.7,   13.8,   14.7,   16.5,   17.1,   18.7,   20.0,   18.2,   20.2,   22.3,   23.3,   24.7,   24.5,   23.3,   21.1,   21.9,   22.0,   22.5,   22.6,   23.9,   23.6,   24.3,   25.0,   24.2,   25.4,   26.7,   28.5,   31.0,   31.5,   33.7,   35.1,   35.1,   35.8,   37.0,   35.1,   35.5,   37.9,   37.6,   40.0,  999.0,   38.1,   38.5,   39.5,   36.6,   38.8,   42.3,   46.4,   45.9,   49.6,   54.1,   55.5,   60.4,   57.2,   54.0,   57.3,   55.3,   55.8,   60.2,   54.8,   59.1,   54.0,   52.8,   50.7,   50.0,   53.7,   58.1,   54.4,   58.5,   59.1,   58.8,   60.3,   60.3,  999.0,   58.9,   60.7,   61.8,   55.6,   57.5,  999.0,   49.0,   51.8,   51.1,   55.5,   49.6,   54.6,   50.7,   51.3,  999.0,   43.0,  999.0,   37.6,  999.0,  999.0,  999.0,   37.7,   37.8,   37.6,   30.3,   27.4,   20.7,   21.2,   21.9,   24.5,   24.7,   25.1,   25.4,   24.2,   25.4,   26.8,   27.4,   27.9,   25.0,   18.9,   16.9,   15.7,   18.0
1990/01/17 19:05,    7.3,    9.7,   11.6,   13.7,   13.5,   14.1,   15.1,   16.6,   17.1,   18.5,   19.2,   19.7,   20.8,   22.4,   23.3,   24.5,   25.4,   23.3,   20.3,   20.7,   21.9,   23.1,   23.6,   24.7,   24.1,   24.2,   25.5,   25.2,   26.1,   26.1,   28.0,   29.4,   32.0,   32.2,   33.9,   35.7,   35.9,   34.8,   34.9,   35.6,   36.5,   37.9,   39.3,   40.3,   42.5,   37.8,   40.2,   39.6,   40.2,   43.1,   45.9,   46.1,   51.7,   53.7,   57.7,   58.3,   57.1,   56.8,   57.6,   53.9,   54.6,   56.4,   56.5,   59.3,   53.2,   53.4,   50.8,   50.2,   54.3,   58.1,   55.1,   54.6,   58.0,   59.6,   56.9,   59.1,   58.1,   60.3,   60.1,   60.5,   63.3,   55.7,   57.7,   43.9,   49.9,   51.4,   54.6,   49.1,   55.1,   50.6,   51.3,   43.9,   41.9,   38.0,   38.6,   40.2,  999.0,   38.4,   39.8,   37.9,   36.7,   29.7,   27.7,   20.1,   20.0,   20.8,   22.7,   23.6,   25.7,   24.7,   24.8,   24.8,  999.0,   26.3,   25.8,   23.1,   19.1,   14.9,   14.7,   16.9
1990/01/17 19:15,    7.6,    9.1,   12.2,   13.2,   13.6,   13.4,   14.2,   15.8,   17.0,   18.9,   20.0,   19.0,   20.7,   22.3,   22.7,   25.0,   25.2,   23.4,   21.5,   21.6,   22.1,   23.3,   23.6,   25.7,   23.7,   24.8,   25.4,   25.4,   25.3,   26.5,   28.5,   28.5,   30.4,   30.1,   31.8,   33.2,   33.7,   33.9,   34.9,   34.8,   36.2,   36.7,   38.5,   40.2,   41.5,   37.7,   37.9,   41.1,   41.4,   44.4,   44.8,   45.7,   50.6,   54.2,   55.9,   57.2,   57.9,   56.3,   56.6,   53.0,   55.0,   56.4,   58.7,   57.2,   53.8,   53.8,   51.1,   51.0,   55.3,   56.4,   54.5,   55.8,   55.3,   56.4,   59.1,   56.1,   56.5,   61.7,   63.4,   58.0,   61.1,   57.8,  999.0,   53.1,   49.4,   51.5,   54.1,   49.9,   54.2,   52.1,   50.2,   44.8,   44.7,   38.5,   37.4,   41.4,  999.0,  999.0,   36.8,   38.3,   37.6,   29.1,   26.5,   18.7,   20.5,   21.7,   24.3,   26.8,   26.8,   23.6,   24.1,   26.8,  999.0,   29.0,   24.2,   24.6,   21.0,   14.6,   14.4,   16.1
1990/01/17 19:25,    9.3,    9.2,   12.5,   13.5,   14.0,   14.3,   15.0,   15.5,   16.6,   18.5,   19.9,   19.0,   19.3,   21.6,   23.5,   23.1,   24.8,   24.1,   20.6,   21.2,   21.7,   22.7,   23.6,   24.6,   24.4,   24.1,   24.8,   26.1,   26.2,   26.5,   28.2,   29.0,   29.1,   30.0,   30.9,   32.1,   33.4,   32.6,   34.5,   35.1,   36.8,   37.5,   39.8,   39.7,   40.9,   37.6,   37.6,   40.1,   42.0,   45.1,   43.0,   45.0,   50.5,   53.9,   54.6,   57.4,   58.0,   58.8,   54.7,   55.0,   53.6,   56.3,   57.4,   58.2,   54.6,   53.3,   52.5,   53.1,   54.8,   56.4,   58.5,   57.7,  999.0,   55.8,   57.3,   56.1,  999.0,   59.6,   60.7,   58.3,   60.5,   63.0,   57.2,  999.0,   49.6,   54.4,   53.2,   50.9,   54.4,   52.1,   50.9,   43.0,   42.6,   37.3,   37.8,   39.5,  999.0,  999.0,   39.9,   38.9,   36.4,   34.0,   25.1,   21.8,   20.5,   22.5,  999.0,   27.2,   27.9,   29.9,   25.6,   26.8,   25.4,   25.4,   24.3,   24.1,   21.5,   15.0,   13.4,   16.6
1990/01/17 19:35,    8.5,   10.1,   12.7,   13.5,   14.5,   14.5,   15.3,   16.8,   17.0,   19.0,   20.4,   20.2,   20.6,   22.5,   23.3,   23.0,   24.4,   24.3,   22.5,   22.0,   21.3,   22.8,   23.1,   24.4,   24.0,   24.1,   25.0,   25.2,   25.9,   27.5,   27.5,   28.6,   29.1,   30.8,   29.4,   31.0,   32.4,   33.0,   34.4,   36.2,   36.7,   37.3,   39.3,   39.0,   38.7,   37.2,   37.8,   39.0,   41.6,   44.8,   44.0,   44.8,   50.1,   53.7,   53.7,   58.6,   57.0,   55.7,   57.2,   53.6,   52.3,   55.4,   57.6,   55.8,   53.7,   52.4,   52.0,   54.6,   53.2,   55.9,   53.8,   57.5,   60.5,   55.2,   56.8,  999.0,   55.3,   58.9,   61.6,   57.0,   56.6,   59.9,   56.0,  999.0,   45.7,   50.6,   50.4,   50.4,   52.1,   51.1,   49.5,   43.4,   41.7,   37.4,   36.5,  999.0,  999.0,   37.2,   38.6,   37.3,   34.6,   31.3,   28.8,   21.3,   18.8,   21.4,   24.2,   27.3,   26.5,   28.6,   25.7,   26.6,   28.4,   24.7,   23.1,   22.5,   19.0,   15.5,   13.6,   16.6
1990/01/17 19:45,    8.4,   10.6,   12.5,   13.0,   13.6,   14.4,   15.2,   17.1,   18.2,   19.3,   20.7,   20.6,   20.5,   21.4,   22.1,   22.4,   24.3,   24.1,   22.1,   21.2,   21.3,   22.5,   22.7,   23.9,   23.8,   23.4,   24.3,   25.6,   26.1,   27.6,   28.5,   29.7,   30.3,   30.1,   30.9,   32.5,   32.6,   32.4,   34.8,   35.1,   35.7,   36.8,   39.1,   39.5,   40.3,   37.4,   35.9,   38.4,   41.0,   44.3,   43.1,   45.0,   48.9,   51.7,   52.6,   55.0,   57.1,   55.9,   54.9,   52.6,   52.8,   54.3,   57.8,   55.5,   54.9,   52.5,   49.9,   54.3,   56.9,   54.6,   54.7,   53.8,   55.7,   53.5,   56.7,   56.7,   54.7,   59.9,   61.0,   55.6,   60.0,   56.4,   54.9,   52.2,   47.9,   50.0,   48.1,   49.8,   50.2,   49.7,   50.5,   42.3,   38.1,   36.4,   37.1,  999.0,  999.0,   38.2,   36.4,   36.1,   32.8,   28.0,   24.2,   20.3,   18.2,   20.7,   23.1,   25.1,   24.6,   27.4,   26.8,   25.8,   25.2,   24.4,   22.4,  999.0,   15.5,   14.7,   12.2,   15.4
1990/01/17 19:55,   10.1,   10.0,   12.7,   13.3,   14.0,   14.4,   15.2,   16.5,   17.0,   18.6,   20.5,   21.1,   20.8,   20.6,   22.6,   22.5,   24.4,   23.2,   20.9,   21.7,   21.2,   22.4,   23.5,   23.9,   24.0,   24.0,   24.6,   26.5,   26.8,   29.0,   29.8,   30.5,   30.0,   30.7,   32.3,   31.9,   31.8,   33.8,   34.9,   34.3,   35.0,   36.3,   38.3,   39.1,  999.0,   36.6,   39.0,   36.9,   40.2,   42.4,   42.5,   44.4,   46.2,   51.1,   53.0,   54.5,   54.5,   56.4,   54.1,   50.2,   54.0,   55.0,   56.9,   54.7,   54.0,   53.9,   49.9,   54.1,   56.3,   55.1,   55.1,   52.9,   59.6,   56.6,   59.5,  999.0,   52.6,   61.7,   55.2,   62.1,   57.6,   59.6,   54.0,   53.3,   48.9,   52.0,   46.9,   50.3,   50.2,   52.2,   52.1,   42.3,   38.9,   35.8,   35.4,   39.3,  999.0,   37.1,   36.4,   35.9,   32.6,   28.0,   24.3,   19.0,   18.6,   20.8,   23.5,   26.6,   26.4,   28.6,   27.2,   28.3,   29.6,  999.0,   23.0,   22.3,   17.2,   15.5,   13.5,   13.8
1990/01/17 20:05,  999.0,   11.6,   13.2,   13.3,   15.0,   14.8,   15.0,   17.0,   17.7,   18.9,   20.4,   21.8,   20.9,   21.2,   23.0,   22.8,   24.5,   24.3,   20.9,   20.8,   21.8,   23.6,   24.0,   23.9,   24.9,   23.9,   25.6,   26.1,   28.5,   29.8,   31.3,   30.9,   30.3,   31.0,   31.8,   30.8,   32.8,   33.8,   33.3,   34.4,   36.9,   36.7,   39.4,   38.9,  999.0,   37.1,   37.9,   37.2,   40.3,   41.6,   42.2,   45.5,   46.0,   50.4,   52.5,   53.8,   54.4,   55.8,   57.3,   50.7,   54.5,   55.9,   57.1,   55.4,   54.2,   55.4,   49.5,   54.5,   56.0,   59.1,   56.5,   53.9,   57.0,   58.1,   59.5,   51.4,   57.5,   61.1,   58.7,   65.6,   54.0,   55.6,   58.5,   49.9,   53.3,   51.0,   49.0,   51.7,   51.6,   54.1,   45.4,   41.7,   40.4,   36.1,   35.9,   36.6,  999.0,   35.2,   36.4,   35.9,   32.0,   26.6,   23.0,   17.7,   18.1,   21.2,   24.4,   27.5,   26.5,   27.8,   25.9,   27.0,  999.0,  999.0,   18.4,   21.5,   17.5,   16.2,   12.8,   13.2
1990/01/17 20:15,  999.0,   12.4,   13.1,   13.3,   13.8,   14.8,   15.1,   17.4,   18.7,   18.6,   19.8,   21.4,   20.9,   21.3,   22.2,   23.0,   24.1,   23.8,   20.3,   21.3,   21.8,   23.7,   24.4,   24.5,   24.2,   24.2,   25.3,   27.3,   28.4,   29.7,   30.5,   30.3,   30.7,   32.1,   31.5,   32.2,   33.1,   31.4,   35.1,   35.3,   36.7,   37.8,   40.3,   42.1,  999.0,   37.5,   36.7,   39.2,   41.4,   40.5,   43.5,   44.9,   45.0,   50.3,   54.0,   53.5,   53.9,   56.0,   54.9,   52.2,   55.4,   56.0,   57.6,   55.5,   54.7,   52.9,   51.0,   55.3,   56.7,   58.2,   57.0,   55.0,   56.9,   57.5,   57.2,   56.3,   59.1,  999.0,   58.6,   64.6,   57.6,   56.8,   57.4,   50.4,   55.6,  999.0,   48.9,   52.2,   51.6,   54.6,   44.6,   42.4,   38.7,   36.4,   37.2,  999.0,  999.0,   33.7,   36.0,   34.9,   30.6,   26.7,   22.9,   19.9,   19.1,   22.6,   24.7,   25.1,   27.0,   27.8,   25.9,   25.3,  999.0,   26.8,  999.0,   20.8,   15.7,   16.5,   15.8,   13.4
1990/01/17 20:25,   10.9,   13.1,   12.4,   14.3,   15.0,   14.0,   15.4,   18.1,   19.4,   18.7,   20.3,   21.4,   21.8,   22.7,   23.0,   23.8,   24.9,   23.0,   21.0,   21.7,   22.0,   23.3,   23.8,   24.8,   24.7,   25.3,   26.8,   26.6,   28.3,   29.0,   29.9,   30.1,   31.0,   31.4,   31.5,   32.2,   34.0,   33.9,   34.4,   35.7,   37.4,   38.7,   40.1,   40.4,   40.7,   36.5,   37.3,   39.3,   42.1,   40.6,   43.4,   43.0,   44.9,   50.7,   53.7,   54.5,   54.2,   53.8,   54.8,   51.1,   55.3,   56.0,   56.7,   54.9,   54.4,   51.6,   50.4,   55.2,   56.7,   56.4,   58.4,   52.8,   55.3,   55.4,   59.8,   57.7,   55.7,   59.5,   58.6,   64.9,   59.5,   54.3,   57.6,   52.7,   51.6,   53.8,   49.0,   48.6,   51.0,   52.3,   49.5,   42.0,   38.0,   36.9,   36.1,  999.0,   38.2,   36.0,   35.7,   33.7,   29.5,   25.2,   22.4,   19.7,   19.5,   21.6,   24.5,   26.9,   25.9,   26.8,   27.4,  999.0,   25.0,   24.3,  999.0,   19.4,   17.8,   15.7,   15.6,   15.7
1990/01/17 20:35,    9.6,   11.9,   11.9,   12.7,   13.1,   14.1,   13.9,   18.2,   18.7,   18.8,   19.2,   21.0,   21.2,   22.2,   22.7,   23.6,   24.4,   21.6,   20.5,   22.0,   22.3,   22.3,   23.7,   24.5,   24.8,   26.2,   25.6,   27.0,   29.4,   28.7,   29.8,   30.3,   30.2,   30.8,   31.9,   32.4,   34.1,   35.1,   35.2,   35.3,   36.9,   38.1,   39.0,   40.8,   39.8,  999.0,   36.8,   39.2,   41.0,   40.5,   43.6,   41.0,   44.7,   50.0,   53.0,   54.3,   53.7,   52.5,   56.8,   48.3,   53.4,   55.3,   55.0,   58.6,   54.3,   52.2,   51.7,   54.9,   55.3,   56.2,   61.2,   52.0,   57.9,   57.0,   60.5,   60.1,  999.0,   55.0,  999.0,   63.8,  999.0,   49.2,   56.1,   55.6,   49.3,   53.7,   50.4,   48.2,   52.1,   53.1,   49.5,   43.5,   43.0,   37.8,   36.0,   39.7,   41.0,   39.9,   36.7,   34.4,   29.0,   26.7,   22.9,   18.4,   20.4,   20.9,  999.0,   24.1,   24.4,   25.6,   24.5,   26.6,   22.9,   22.7,  999.0,   19.8,   18.7,   15.0,   15.9,   14.4
1990/01/17 20:45,    8.0,   12.3,   11.9,   12.5,   13.5,   13.7,   14.0,   16.4,   18.7,   17.9,   19.3,   20.7,   21.1,   20.7,   22.5,   24.6,   24.9,   22.6,   20.7,   22.3,   22.2,   23.2,   23.7,   24.7,   25.3,   26.2,   26.2,   26.4,   29.0,   29.5,   31.0,   31.5,   31.1,   31.8,   31.6,   33.4,   33.8,   32.5,   36.2,   34.4,   37.1,   38.8,   38.0,   40.1,   39.2,   39.3,   38.1,   38.4,   40.4,   40.2,   42.8,   43.0,   44.2,   48.8,   52.6,   54.0,   54.3,   51.6,   55.1,   48.4,   53.1,   55.3,   52.9,   56.9,   56.2,   52.5,   51.0,   55.5,   55.6,   57.4,   58.9,   52.0,   57.1,   55.6,   58.7,   64.6,   53.5,   58.7,  999.0,   65.2,   61.9,  999.0,   53.3,   57.9,   53.6,   52.5,   52.2,   49.1,   52.9,   54.2,   48.3,   44.0,   43.5,   36.9,   39.3,   41.3,   38.7,   41.3,   40.5,   35.1,   30.8,   26.8,   22.9,   20.5,   18.7,   21.7,   23.9,   25.7,   26.3,   23.9,   26.5,   27.0,  999.0,   24.9,   20.9,  999.0,   15.4,   13.6,   15.1,   13.3
1990/01/17 20:55,   12.6,   11.0,   11.4,   12.0,   13.3,   13.3,   14.1,   16.6,   18.8,   17.9,   18.9,   20.4,   21.2,   21.5,   23.2,   24.6,   25.9,   22.7,   21.9,   22.8,   22.7,   23.4,   24.0,   24.8,   25.0,   26.0,   27.3,   27.2,   28.7,   30.9,   31.2,   30.6,   32.0,   32.0,   31.8,   32.3,   33.1,   35.0,   35.6,   35.1,   38.0,   38.5,   39.1,   39.6,   39.9,   38.6,   39.8,   39.2,   39.3,   42.3,   41.4,   42.2,   45.3,   49.1,   54.2,   54.1,   53.9,   51.3,   54.2,   48.4,   51.8,   54.7,   53.1,   55.0,   57.1,   51.7,   51.2,   54.9,   53.9,   56.8,   59.7,   53.7,   55.4,  999.0,   57.5,   59.5,   56.5,   61.8,  999.0,   61.1,   64.4,  999.0,  999.0,   54.7,   56.6,   47.0,   51.6,   47.9,   51.2,   53.4,   50.8,   44.3,   41.9,   37.3,   37.5,   40.4,   38.6,   37.5,   38.1,   34.8,   31.0,   26.4,   22.9,   19.5,   18.5,   20.3,   24.2,   26.1,   25.4,   25.7,   26.3,   26.2,   24.3,  999.0,   20.5,   22.6,   16.8,   13.5,   14.0,   15.8
1990/01/17 21:05,   12.4,   12.8,   11.3,   12.2,   13.7,   13.7,   13.8,   16.2,   18.7,   18.1,   19.2,   20.7,   21.4,   21.0,   22.8,   24.9,   25.1,   22.9,   20.9,   22.0,   22.2,   23.5,   24.1,   24.6,   24.7,   25.6,   26.7,   26.8,   28.6,   29.7,   30.1,   30.9,   30.7,   32.3,   32.5,   32.2,   34.2,   35.7,   34.2,   37.3,   37.9,   38.0,   39.5,   40.9,   41.2,   38.2,   40.1,   40.4,   40.7,   43.4,   40.7,   42.2,   46.8,   48.9,   54.0,   52.2,   51.9,   50.3,   51.0,   48.7,   50.9,   52.3,   52.7,   53.9,   54.7,   54.9,   50.4,   55.0,   56.7,   57.8,   60.8,   55.1,  999.0,   55.2,   56.8,   57.8,   58.7,   57.5,  999.0,  999.0,   60.1,   63.9,   63.5,   53.9,   56.7,  999.0,   50.6,   47.3,   52.6,   56.0,   43.7,   44.3,   44.5,   36.1,   38.5,   42.8,   38.3,   37.3,   37.3,   35.9,   31.0,   27.7,   24.6,   20.3,   18.9,   21.2,   24.5,   26.5,   26.2,   25.5,   25.6,   23.3,   20.7,  999.0,   20.0,   21.7,  999.0,   13.8,   13.8,   15.6
1990/01/17 21:15,   12.5,   12.1,   11.3,   12.4,   12.7,   14.1,   14.3,   15.8,   17.7,   17.2,   18.7,   20.6,   21.3,   22.0,   22.4,   25.0,   25.9,   21.4,   21.8,   23.1,   22.4,   23.3,   25.1,   25.5,   25.5,   26.3,   27.3,   27.5,   29.5,   29.0,   30.1,   31.0,   30.9,   32.7,   32.9,   33.3,   34.4,   34.4,   34.0,   35.6,   36.9,   36.7,   39.2,   40.6,   40.5,   40.2,   39.0,   39.4,   41.0,   43.5,   41.0,   44.1,   45.1,   47.8,   51.3,   50.9,   53.3,   48.0,   50.4,   49.5,   50.4,   51.9,   50.4,   54.7,   54.5,   51.8,   50.9,   56.1,   56.3,   56.3,   59.5,   55.1,   55.8,   55.1,   57.4,   61.1,   52.7,  999.0,   65.4,  999.0,   59.4,   63.8,   55.2,   54.5,   57.1,  999.0,   50.9,   48.3,   52.6,   57.3,   46.4,   44.2,   44.1,   42.9,   38.4,   42.8,   35.7,   42.4,   38.6,   35.5,   32.2,   27.1,   23.8,   20.9,   19.2,   20.4,   23.1,   25.2,   26.9,   24.8,   23.4,   21.9,   21.5,   20.6,   17.6,  999.0,   13.6,   12.7,   12.9,   14.2
1990/01/17 21:25,   11.4,   11.4,   10.7,   11.8,   12.6,   13.0,   14.1,   15.5,   17.1,   17.5,   19.4,   20.1,   20.2,   21.6,   23.7,   25.2,   26.4,   22.3,   21.8,   22.2,   22.8,   24.6,   25.8,   26.0,   25.3,   26.4,   27.3,   28.6,   28.8,   30.5,   29.6,   31.4,   31.8,   32.8,   33.3,   33.9,   34.0,   34.0,   35.5,   35.3,   37.2,   37.7,   39.6,   40.6,   38.9,   39.9,   40.0,   38.8,   41.7,   41.2,   41.8,   42.7,   45.2,   49.7,   52.5,   52.3,   50.4,   48.9,   51.2,   48.8,   49.7,   51.7,   52.1,   54.9,   53.8,   50.8,   50.5,   54.9,   56.7,   56.3,   60.0,   53.3,   54.3,   57.3,   56.0,   61.1,  999.0,   56.2,  999.0,  999.0,   59.5,   60.4,  999.0,   54.1,  999.0,  999.0,   51.0,   46.2,   51.7,   56.4,   49.7,   45.0,   45.6,   38.7,   39.5,   41.7,   36.1,   41.3,   42.3,   35.5,   33.0,   29.1,   24.6,   20.1,   17.1,   19.5,   22.5,   25.0,   25.5,   24.5,   23.9,   23.0,   20.8,  999.0,   20.1,  999.0,   16.1,   13.2,   13.9,  999.0
1990/01/17 21:35,   11.6,   10.5,   11.6,   12.1,   12.8,   13.4,   14.2,   15.8,   17.3,   18.2,   19.5,   20.1,   19.4,   20.8,   22.7,   24.4,   25.7,   25.6,   22.4,   22.4,   22.9,   24.5,   26.0,   26.6,   25.2,   26.7,   27.7,   29.7,   28.8,   29.5,   30.3,   31.8,   32.8,   33.7,   33.5,   34.0,   34.3,   36.5,   35.0,   35.9,   36.2,   39.8,   37.9,   39.9,   40.2,   40.5,   41.1,   39.9,   39.3,   39.9,   42.2,   40.8,   43.7,   48.1,   50.1,   51.0,   52.4,   50.0,   49.1,   48.3,   48.3,   51.1,   52.5,   54.9,   55.8,   51.7,   48.4,   54.2,   54.8,   55.2,   59.9,   53.1,   52.8,   55.7,   57.9,   61.1,   56.7,   61.3,   65.4,  999.0,   56.2,  999.0,   53.3,   54.2,   52.3,   52.9,   48.9,   48.1,   54.3,   55.5,   48.1,   44.6,   44.5,   38.5,   38.4,   41.3,   40.4,   41.3,   43.5,   37.7,   34.1,   29.5,   25.4,   20.4,   19.2,   18.9,   22.7,   24.6,   26.5,   24.2,   25.1,   21.7,   21.3,  999.0,   19.1,   18.4,   14.2,   13.1,   14.0,   14.6
1990/01/17 21:45,   11.8,   10.2,   11.7,   12.0,   13.5,   13.7,   14.7,   15.6,   17.1,   17.5,   19.8,   20.6,   20.3,   21.0,   22.5,   23.8,   25.0,   21.7,   22.3,   21.9,   23.1,   24.8,   26.1,   26.2,   25.8,   27.3,   28.5,   29.5,   30.0,   29.1,   29.8,   32.2,   32.6,   34.4,   34.5,   33.8,   35.3,   35.9,   35.9,   36.7,   37.8,   37.5,   39.8,   41.5,   39.3,   41.3,   43.4,   40.0,   40.8,   40.6,   42.0,   41.3,   39.7,   45.3,   49.3,   50.9,   49.9,   48.5,   46.5,   50.8,   45.8,   50.6,   52.7,   52.2,   57.0,   53.8,   47.0,   52.1,   56.0,   56.5,   56.7,   58.0,   52.0,   56.0,   57.7,   60.1,   59.4,   62.7,   61.6,   66.8,   60.7,  999.0,  999.0,   54.7,   56.7,   53.1,   48.2,   50.9,   56.3,   55.1,   48.6,   46.1,   42.9,   37.5,   40.3,  999.0,   40.5,   41.1,   45.0,   38.4,   35.3,   31.8,   26.1,   20.9,   18.4,   19.2,   22.7,   25.2,   27.0,   24.1,   26.2,   24.1,   20.9,  999.0,   19.2,   16.4,   14.4,   11.2,   12.0,   12.9
1990/01/17 21:55,   11.3,   11.0,   11.7,   12.6,   13.3,   13.7,   14.6,   16.0,   17.1,   18.2,   19.5,   20.1,   19.5,   20.8,   21.7,   23.6,   24.9,   24.4,   22.1,   21.6,   22.7,   24.9,   25.5,   26.0,   26.0,   26.2,   27.6,   29.1,   30.0,   30.4,   30.7,   31.9,   32.5,   34.9,   34.9,   34.7,   35.7,   36.6,   36.6,   37.7,   37.1,   39.0,   41.7,   42.7,   41.3,   43.4,   43.6,   43.4,   40.2,   42.0,   41.5,   41.2,   42.4,   45.9,   50.0,   49.7,   49.8,   50.0,   47.5,   49.5,   45.9,   51.0,   54.0,   53.0,   58.6,   51.3,   50.2,   51.0,   55.5,   60.8,   53.4,   60.1,   52.7,   57.6,   57.6,   58.2,   59.8,   64.0,   60.9,   64.9,  999.0,   64.2,   59.5,   54.6,   54.7,   52.4,   47.1,   51.6,   55.1,   52.1,   48.5,   42.9,   41.3,   40.2,   38.9,  999.0,  999.0,   39.6,   43.1,   39.2,   34.9,   31.1,   26.7,   23.1,   18.2,   18.7,   22.5,   25.2,   26.5,   25.3,   27.0,  999.0,  999.0,  999.0,   18.0,   18.6,  999.0,  999.0,   11.0,   11.9
1990/01/17 22:05,   10.6,   11.0,   11.7,   12.8,   13.7,   14.5,   14.5,   16.4,   18.0,   19.8,   19.9,   20.2,   20.0,   21.8,   23.6,   24.5,   25.4,   22.7,   23.3,   22.1,   22.6,   24.5,   26.0,   25.9,   25.5,   25.7,   27.3,   28.9,   29.5,   30.3,   31.4,   30.9,   32.6,   34.0,   35.9,   36.5,   36.5,   36.7,   36.3,   38.2,   38.6,   39.5,   41.5,   41.1,   40.1,   42.2,   45.5,   43.3,   43.2,   43.2,   42.2,   42.3,   43.1,   44.2,   48.6,   46.9,   49.5,   49.2,   46.8,   46.8,   46.7,   50.0,   51.4,   54.1,   58.6,   49.4,   53.2,   49.7,   54.2,   57.9,   54.3,   58.5,   53.0,   58.0,   58.2,   58.3,   62.4,   62.0,   59.8,   61.4,   59.0,   59.0,   61.1,   53.8,   56.0,   45.0,   47.1,   51.5,   54.0,   48.3,   46.7,   43.1,   39.9,   39.4,   33.0,   40.2,  999.0,   37.7,   41.3,   42.2,   33.4,   29.7,   25.8,   23.7,   19.6,   19.8,   22.4,   24.6,   24.3,   24.5,   26.6,  999.0,  999.0,   20.7,   16.7,   16.5,   16.6,   10.8,   10.3,   11.5
1990/01/17 22:15,   10.9,   11.6,   12.2,   12.9,   13.7,   14.2,   15.0,   16.8,   18.9,   21.5,   20.2,   21.2,   21.2,   24.0,   24.8,   25.3,   26.4,   24.7,   24.0,   23.1,   22.0,   24.0,   26.5,   27.0,   26.8,   25.9,   26.9,   28.0,   29.3,   29.6,   31.9,   31.4,   32.7,   34.6,   36.5,   37.3,   36.7,   35.9,   37.1,   37.6,   39.3,   39.8,   40.4,   40.6,   41.7,   45.8,   43.0,   45.3,   42.3,   42.4,   43.1,   42.6,   44.5,   42.9,   47.8,   46.8,   47.2,   49.1,   47.9,   48.2,   48.0,   50.5,   52.2,   54.1,   57.2,   51.3,   52.7,   48.5,   52.9,   56.4,   56.4,   56.1,   53.3,   57.7,   56.8,   59.7,   61.4,  999.0,   60.7,   60.1,   61.0,   58.2,   59.1,   54.8,   58.4,   47.6,   48.4,   51.3,   50.1,   50.2,   47.5,   44.5,   38.2,   38.6,  999.0,   38.8,  999.0,   38.5,   42.0,   41.6,   33.4,   30.6,   26.6,   23.1,   20.1,   19.1,   21.8,   24.0,   24.9,   24.9,   26.6,   20.2,   20.0,   19.9,   17.9,  999.0,   13.3,   10.7,   11.0,   12.5
1990/01/17 22:25,   10.6,   11.6,   12.6,   13.2,   13.8,   14.3,   15.5,   17.3,   19.7,   21.9,   21.8,   22.0,   23.3,   25.1,   25.2,   26.1,   26.6,   25.7,   23.5,   23.3,   22.5,   23.4,   26.1,   26.4,   26.7,   26.3,   26.9,   27.9,   28.7,   31.1,   33.4,   32.9,   32.4,   34.3,   36.1,   37.9,   35.7,   36.0,   36.4,   37.9,   40.4,   38.9,   39.6,   39.5,   43.4,   42.5,   44.6,   45.6,   43.1,   43.1,   45.7,   44.5,   44.7,   43.7,   44.5,   48.0,   45.1,   47.5,   48.9,   46.3,   48.6,   49.1,   54.0,   53.7,   57.0,   49.2,   48.8,   49.1,   52.6,   57.4,   56.0,   54.4,   53.4,   57.6,   56.6,   59.3,   63.3,   59.2,   60.1,  999.0,   62.9,   58.3,   61.3,   53.4,   57.6,  999.0,   48.0,   49.4,   50.9,   51.0,   46.6,   45.6,   39.4,   37.4,   36.4,  999.0,  999.0,   38.6,   41.1,   43.6,   34.1,   30.9,   27.7,   23.9,   20.7,   19.6,   22.5,   24.8,   25.2,   26.2,   28.0,   21.2,   20.9,   21.6,   16.2,   17.3,   15.4,   11.2,   10.0,   11.4
1990/01/17 22:35,   10.9,   11.1,   12.5,   14.1,   14.6,   15.0,   16.4,   18.0,   20.7,   22.4,   21.9,   21.8,   23.5,   25.5,   26.6,   27.0,   26.8,   24.8,   24.6,   22.9,   22.3,   23.1,   25.6,   26.4,   25.8,   26.1,   26.2,   27.2,   28.2,   31.1,   33.4,   32.4,   33.1,   33.5,   35.7,   36.5,   35.2,   35.0,   35.2,   37.6,   39.2,   37.0,   38.7,   39.5,   43.7,   42.9,   45.5,   48.0,   43.2,   45.0,   45.6,   44.1,   44.5,   43.9,   44.5,   47.7,   45.6,   49.9,   48.4,   48.9,   50.4,   50.5,   52.8,   56.4,   49.1,   50.1,   49.6,   53.1,   54.9,   54.8,   56.8,   55.4,   50.6,   56.2,   55.1,   58.8,   61.9,   62.1,   60.4,   64.3,   61.6,   61.6,   60.1,   52.6,   55.3,  999.0,   46.4,   49.6,   50.5,   51.5,   45.4,   43.2,   42.2,   36.3,   37.2,   37.9,  999.0,   38.4,   41.4,   43.9,   34.6,   30.1,   27.4,   23.5,   21.7,   21.5,   23.7,   25.7,   25.4,   28.1,   29.4,   20.2,  999.0,  999.0,   15.9,   17.3,   13.3,   11.6,   11.1,   12.0
1990/01/17 22:45,    9.8,   11.1,   12.5,   13.0,   13.8,   14.2,   16.4,   18.6,   21.5,   21.4,   22.6,   21.6,   23.5,   25.8,   25.9,   26.9,   27.3,   24.9,   23.0,   22.5,   22.0,   24.0,   26.5,   26.8,   25.8,   26.3,   26.7,   27.4,   28.9,   31.6,   32.9,   32.9,   33.1,   34.6,   36.2,   36.2,   35.7,   36.3,   36.5,   39.1,   38.5,   38.9,   38.9,   41.3,   43.8,   42.8,   46.0,   43.4,   45.4,   43.6,   45.2,   42.6,   42.4,   42.7,   44.4,   46.5,   45.6,   48.2,   47.5,   48.0,   52.7,   50.5,   50.8,   55.7,   50.8,   47.5,   49.9,   55.7,   53.2,   53.1,   55.3,   55.8,   51.0,   55.5,   54.9,   60.0,   57.6,   60.8,   60.8,   61.4,   64.3,   63.2,   57.0,   56.5,   55.1,   57.8,   47.0,   48.0,   50.2,   51.9,   46.6,   43.2,   41.1,   40.3,   36.3,   37.4,  999.0,   38.8,   42.3,   41.4,   34.4,   29.2,   27.1,   24.5,   22.5,   22.5,   23.9,   25.7,   26.5,   28.4,  999.0,   21.0,  999.0,  999.0,  999.0,  999.0,   11.2,   10.8,    8.6,   11.1
1990/01/17 22:55,   10.3,   10.9,   11.9,   13.1,   13.5,   14.2,   17.4,   19.9,   22.1,   21.8,   22.6,   22.8,   24.5,   26.1,   26.8,   26.6,   26.7,   25.5,   24.7,   22.6,   23.3,   25.6,   27.4,   26.8,   27.1,   25.9,   26.5,   27.1,   29.3,   32.4,   32.2,   32.7,   34.3,   35.8,   37.0,   36.9,   36.7,   36.1,   37.4,   39.6,   37.9,   39.6,   39.7,   42.5,   42.2,   42.8,   45.9,   43.2,   46.2,   44.6,   45.3,   42.4,   41.6,   41.3,   41.9,   45.7,   45.2,   48.4,   47.6,   49.1,   50.7,   49.4,   52.4,   55.2,   51.0,   49.3,   50.6,   53.9,   51.6,   52.8,   55.3,   57.8,   50.8,   55.2,   56.1,   59.8,   60.2,   58.3,   61.9,   60.1,   63.5,   61.2,   60.3,   59.1,   55.2,   55.4,   44.8,   49.5,   50.3,   51.6,   45.5,   42.7,   41.6,   40.7,   36.7,   39.4,  999.0,   39.7,   44.8,   43.6,   34.7,   33.6,   26.5,   24.4,   23.1,   22.8,   24.5,   27.1,   27.8,   28.4,   21.0,   20.6,   20.0,  999.0,  999.0,   15.0,  999.0,   11.1,    8.9,   10.5
1990/01/17 23:05,    9.8,   11.9,   12.1,   12.7,   13.5,   15.3,   18.3,   20.1,   22.1,   21.9,   22.4,   23.5,   25.3,   27.1,   26.1,   26.0,   27.0,   25.9,   23.5,   23.4,   23.6,   25.7,   26.3,   26.6,   27.0,   25.9,   27.0,   27.6,   30.0,   32.5,   32.6,   33.5,   33.4,   36.0,   38.1,   37.2,   35.6,   36.6,   39.3,   37.9,   37.9,   39.5,   40.0,   41.8,   41.6,   44.2,   43.4,   46.2,   46.8,   43.9,   44.0,   43.9,   41.7,   40.4,   42.4,   45.9,   45.9,   48.3,   48.1,   48.9,   50.3,   51.0,   50.5,   54.1,   51.2,   51.5,   52.2,   54.9,   51.8,   52.7,   55.0,   56.7,   51.7,   54.5,   56.1,   58.0,   57.5,   58.1,   58.9,   62.6,   59.3,   61.7,   61.9,   58.5,   57.8,   55.3,   47.6,   49.1,   51.2,   53.1,   44.8,   42.8,   40.5,   40.1,   42.3,   41.3,  999.0,   41.8,   44.5,   35.4,   34.8,   31.0,   26.2,   25.5,   23.7,   22.0,   24.6,   24.9,   26.2,   26.5,   22.6,   18.9,  999.0,  999.0,  999.0,   15.7,  999.0,   11.3,   10.0,   11.2
1990/01/17 23:15,    6.4,   11.3,   11.3,   13.3,   13.8,   15.3,   18.2,   21.3,   21.3,   21.7,   22.4,   23.5,   25.4,   26.7,   25.0,   25.6,   25.9,   24.5,   24.8,   22.9,   23.4,   25.8,   26.3,   26.2,   25.9,   26.3,   27.1,   27.1,   29.1,   31.5,   32.5,   32.9,   33.3,   35.9,   38.7,   37.6,   36.7,   37.1,   39.5,   37.7,   38.5,   38.6,   39.6,   41.4,   41.5,   43.9,   45.6,   46.9,   48.1,   45.9,   44.1,   44.0,   41.7,   39.8,   42.4,   46.6,   46.8,   47.2,   48.2,   50.0,   49.9,   52.9,   51.0,   50.3,   50.6,   50.9,   53.4,   51.2,   52.2,   54.1,   53.0,   55.2,   50.2,   53.0,   55.0,   56.4,   58.1,   54.0,   56.8,   58.8,   62.1,   57.4,   61.7,   52.8,   58.8,   50.9,   52.5,   45.3,   49.0,   51.5,   42.3,   42.6,   40.7,   40.7,   40.0,   41.9,   41.2,   41.8,   43.6,   35.6,   32.9,   33.3,   26.1,   25.1,   22.6,   23.0,   24.3,   26.8,   26.8,   29.3,   25.4,   20.8,  999.0,  999.0,  999.0,   15.0,   11.8,  999.0,   10.0,   11.6
1990/01/17 23:25,   10.5,   11.3,   12.4,   13.3,   13.4,   15.7,   18.9,   21.3,   21.4,   22.2,   24.2,   23.9,   25.3,   27.7,   25.5,   26.6,   27.2,   24.4,   24.2,   22.8,   24.6,   26.1,   26.7,   26.8,   25.8,   26.4,   27.4,   27.1,   28.9,   31.3,   32.7,   33.3,   35.6,   38.6,   35.3,   36.3,   37.3,   36.5,   37.2,   37.8,   40.3,   38.6,   39.9,   42.1,   42.2,   43.7,   45.4,   48.3,   47.5,   46.8,   44.7,   43.7,   40.6,   39.8,   42.1,   46.6,   48.6,   48.6,   48.1,   50.7,   50.0,   53.2,   50.3,   52.0,   48.5,   49.4,   52.2,   51.5,   54.4,   55.0,   53.3,   56.1,   52.0,   51.8,   54.2,   56.3,   58.9,   61.8,   58.5,   56.9,   60.2,   57.7,   62.0,   53.6,   58.0,   53.3,   52.3,   48.4,   49.5,   52.1,  999.0,   41.5,   41.2,   41.3,   42.8,   44.4,   40.7,   43.9,   42.9,   35.5,   33.8,   29.8,   26.2,   24.1,   22.5,   22.6,   23.7,   26.4,   27.0,   25.7,   25.9,   21.7,   20.2,  999.0,   18.4,  999.0,   11.7,   11.3,    9.4,   11.5
1990/01/17 23:35,    9.8,   11.1,   12.5,   13.9,   14.6,   16.3,   19.1,   22.0,   21.1,   22.6,   23.9,   23.0,   24.6,   26.8,   25.5,   26.2,   26.2,   23.9,   25.3,   24.0,   25.0,   26.6,   27.2,   26.2,   25.9,   26.3,   26.8,   27.8,   29.4,   30.8,   32.5,   34.6,   36.9,   37.3,   34.4,   35.8,   37.9,   37.0,   38.5,   39.1,   40.3,   39.1,   40.6,   41.5,   42.0,   43.6,   46.5,   47.8,   46.2,   46.7,   42.2,   42.1,   40.4,   40.5,   42.5,   46.3,   48.7,   47.6,   47.8,   49.5,   50.6,   53.7,   49.8,   54.1,   47.1,   49.2,   50.5,   52.6,   56.7,   52.9,   55.2,   55.4,   56.4,   50.5,   52.5,   57.2,   58.0,   60.4,   58.2,   59.3,   59.0,   61.8,   59.6,   53.2,   57.4,   53.3,   52.0,   48.2,   50.2,   49.1,   44.7,   41.8,   40.8,   40.2,   41.0,   43.1,   40.1,   43.5,   42.2,   35.7,   32.7,   27.3,   26.3,   23.0,   21.3,   21.8,   23.4,   26.8,   28.7,   26.1,   26.3,   20.4,   22.1,  999.0,   15.2,  999.0,   11.2,   11.7,   10.0,   11.5
1990/01/17 23:45,   10.3,   11.7,   11.9,   13.5,   14.8,   15.8,   19.1,   22.7,   23.2,   23.1,   23.4,   23.5,   23.4,   26.0,   24.8,   26.4,   26.6,   24.8,   24.8,   23.3,   24.3,   26.2,   26.6,   26.7,   26.9,   26.3,   27.1,   28.1,   28.9,   31.0,   32.5,   35.5,   37.0,   36.4,   35.0,   36.3,   38.0,   38.6,   39.0,   40.5,   40.5,   40.9,   40.7,   40.9,   41.9,   44.2,   45.9,   44.7,   46.1,   46.0,   43.3,   42.4,   40.0,   38.8,   41.2,   44.7,   46.9,   46.4,   47.5,   48.4,   51.2,   54.4,   50.1,   50.0,   48.8,   48.5,   51.2,   52.1,   56.7,   52.7,   57.6,   56.3,   56.0,   49.3,   53.7,   56.5,   55.9,   59.8,   55.9,   59.3,   62.6,   59.8,   57.5,   53.8,   58.1,   54.2,   51.8,   50.7,   51.7,   48.8,   44.0,   42.6,   40.1,   41.9,   40.7,   43.5,   41.3,   42.3,   40.0,   36.5,   30.0,   32.4,   26.5,   21.1,   20.2,   18.8,   22.1,   26.2,   30.4,   25.7,   27.5,  999.0,   22.5,  999.0,  999.0,   12.2,   11.9,   10.3,   10.3,   11.4
1990/01/17 23:55,   10.8,   11.7,   13.1,   14.3,   15.3,   16.0,   18.9,   22.2,   22.7,   22.9,   22.9,   22.9,   23.6,   26.5,   25.7,   26.8,   26.1,   24.8,   24.8,   23.8,   24.3,   26.0,   26.8,   26.4,   25.6,   27.1,   28.4,   28.6,   30.5,   32.5,   34.1,   37.3,   38.0,   35.8,   36.3,   35.2,   37.4,   37.2,   39.3,   41.1,   43.2,   42.5,   41.0,   41.6,   43.6,   45.4,   46.6,   46.0,   45.5,   45.2,   44.1,   43.1,   38.9,   40.1,   42.6,   44.7,   45.7,   46.4,   50.0,   46.4,   51.4,   52.9,   51.4,   50.4,   48.7,   50.2,   52.1,   52.8,   54.9,   53.5,   56.5,   55.1,   54.5,   50.1,   53.3,   56.9,   56.8,   60.1,   60.0,   60.7,   65.0,   61.2,   56.8,   51.7,   57.6,   53.7,   53.4,   50.9,   51.5,   48.4,   40.3,   41.2,   39.6,   42.4,   41.5,   44.4,   42.3,   43.8,   36.7,   37.3,   30.2,   25.4,   23.8,   22.3,   20.5,   21.8,   22.2,   26.3,   29.8,   28.4,   26.3,   24.9,   23.3,   22.3,  999.0,   12.7,   11.9,   10.3,    9.7,   11.3
